<?xml version="1.0" encoding="UTF-8"?>
<gpx version="1.1" creator="https://www.youtrack.es" xsi:schemaLocation="http://www.topografix.com/GPX/1/1 http://www.topografix.com/GPX/1/1/gpx.xsd http://www.garmin.com/xmlschemas/GpxExtensions/v3 http://www.garmin.com/xmlschemas/GpxExtensionsv3.xsd http://www.garmin.com/xmlschemas/TrackPointExtension/v1 http://www.garmin.com/xmlschemas/TrackPointExtensionv1.xsd" xmlns:gpxtpx="http://www.garmin.com/xmlschemas/TrackPointExtension/v1" xmlns:gpxx="http://www.garmin.com/xmlschemas/GpxExtensions/v3" xmlns:xsi="http://www.w3.org/2001/XMLSchema-instance">
  <metadata>
    <link href="https://www.youtrack.es">
      <text>YouTrack.es</text>
    </link>
    <time>2026-05-09T02:38:57Z</time>
  </metadata>
  <trk>
    <src>https://www.youtrack.es</src>
    <link href="https://www.youtrack.es/ruta/6580-gr-48-barrancos-hinojales">
      <text>YouTrack.es</text>
    </link>
    <trkseg>
      <trkpt lat="38.127942" lon="-6.971150">
        <ele>375.5</ele>
        <time>2009-01-26T11:26:27Z</time>
      </trkpt>
      <trkpt lat="38.127944" lon="-6.971106">
        <ele>374.6</ele>
        <time>2009-01-26T11:26:30Z</time>
      </trkpt>
      <trkpt lat="38.127931" lon="-6.970589">
        <ele>369.7</ele>
        <time>2009-01-26T11:27:07Z</time>
      </trkpt>
      <trkpt lat="38.127922" lon="-6.970502">
        <ele>368.8</ele>
        <time>2009-01-26T11:27:14Z</time>
      </trkpt>
      <trkpt lat="38.127801" lon="-6.970233">
        <ele>364.8</ele>
        <time>2009-01-26T11:27:42Z</time>
      </trkpt>
      <trkpt lat="38.127679" lon="-6.969890">
        <ele>363.9</ele>
        <time>2009-01-26T11:28:08Z</time>
      </trkpt>
      <trkpt lat="38.127723" lon="-6.969533">
        <ele>365.8</ele>
        <time>2009-01-26T11:28:31Z</time>
      </trkpt>
      <trkpt lat="38.127738" lon="-6.969201">
        <ele>360.9</ele>
        <time>2009-01-26T11:28:58Z</time>
      </trkpt>
      <trkpt lat="38.127831" lon="-6.968778">
        <ele>356.9</ele>
        <time>2009-01-26T11:29:30Z</time>
      </trkpt>
      <trkpt lat="38.128037" lon="-6.968437">
        <ele>352.0</ele>
        <time>2009-01-26T11:30:00Z</time>
      </trkpt>
      <trkpt lat="38.128102" lon="-6.968124">
        <ele>349.9</ele>
        <time>2009-01-26T11:30:24Z</time>
      </trkpt>
      <trkpt lat="38.128202" lon="-6.967878">
        <ele>347.2</ele>
        <time>2009-01-26T11:30:48Z</time>
      </trkpt>
      <trkpt lat="38.128354" lon="-6.967694">
        <ele>342.3</ele>
        <time>2009-01-26T11:31:13Z</time>
      </trkpt>
      <trkpt lat="38.128565" lon="-6.967456">
        <ele>334.7</ele>
        <time>2009-01-26T11:31:40Z</time>
      </trkpt>
      <trkpt lat="38.128658" lon="-6.967348">
        <ele>331.6</ele>
        <time>2009-01-26T11:31:53Z</time>
      </trkpt>
      <trkpt lat="38.128780" lon="-6.967196">
        <ele>328.9</ele>
        <time>2009-01-26T11:32:16Z</time>
      </trkpt>
      <trkpt lat="38.128898" lon="-6.966880">
        <ele>321.0</ele>
        <time>2009-01-26T11:32:49Z</time>
      </trkpt>
      <trkpt lat="38.129108" lon="-6.966698">
        <ele>315.2</ele>
        <time>2009-01-26T11:33:18Z</time>
      </trkpt>
      <trkpt lat="38.129178" lon="-6.966437">
        <ele>310.3</ele>
        <time>2009-01-26T11:33:42Z</time>
      </trkpt>
      <trkpt lat="38.129146" lon="-6.966036">
        <ele>305.4</ele>
        <time>2009-01-26T11:34:12Z</time>
      </trkpt>
      <trkpt lat="38.129073" lon="-6.965688">
        <ele>300.5</ele>
        <time>2009-01-26T11:34:41Z</time>
      </trkpt>
      <trkpt lat="38.129097" lon="-6.965565">
        <ele>298.4</ele>
        <time>2009-01-26T11:34:50Z</time>
      </trkpt>
      <trkpt lat="38.129288" lon="-6.965606">
        <ele>293.8</ele>
        <time>2009-01-26T11:35:11Z</time>
      </trkpt>
      <trkpt lat="38.129556" lon="-6.965691">
        <ele>288.0</ele>
        <time>2009-01-26T11:35:39Z</time>
      </trkpt>
      <trkpt lat="38.129759" lon="-6.965760">
        <ele>285.0</ele>
        <time>2009-01-26T11:35:59Z</time>
      </trkpt>
      <trkpt lat="38.130008" lon="-6.965841">
        <ele>279.2</ele>
        <time>2009-01-26T11:36:20Z</time>
      </trkpt>
      <trkpt lat="38.130266" lon="-6.965937">
        <ele>273.4</ele>
        <time>2009-01-26T11:36:42Z</time>
      </trkpt>
      <trkpt lat="38.130557" lon="-6.966074">
        <ele>269.4</ele>
        <time>2009-01-26T11:37:06Z</time>
      </trkpt>
      <trkpt lat="38.130749" lon="-6.966336">
        <ele>268.5</ele>
        <time>2009-01-26T11:37:27Z</time>
      </trkpt>
      <trkpt lat="38.130962" lon="-6.966542">
        <ele>273.4</ele>
        <time>2009-01-26T11:37:47Z</time>
      </trkpt>
      <trkpt lat="38.131198" lon="-6.966613">
        <ele>270.7</ele>
        <time>2009-01-26T11:38:05Z</time>
      </trkpt>
      <trkpt lat="38.131460" lon="-6.966649">
        <ele>267.6</ele>
        <time>2009-01-26T11:38:25Z</time>
      </trkpt>
      <trkpt lat="38.131641" lon="-6.966759">
        <ele>266.4</ele>
        <time>2009-01-26T11:38:43Z</time>
      </trkpt>
      <trkpt lat="38.131814" lon="-6.966781">
        <ele>265.8</ele>
        <time>2009-01-26T11:39:02Z</time>
      </trkpt>
      <trkpt lat="38.132069" lon="-6.966705">
        <ele>262.7</ele>
        <time>2009-01-26T11:39:23Z</time>
      </trkpt>
      <trkpt lat="38.132267" lon="-6.966495">
        <ele>258.8</ele>
        <time>2009-01-26T11:39:42Z</time>
      </trkpt>
      <trkpt lat="38.132499" lon="-6.966444">
        <ele>256.9</ele>
        <time>2009-01-26T11:39:59Z</time>
      </trkpt>
      <trkpt lat="38.132750" lon="-6.966506">
        <ele>253.9</ele>
        <time>2009-01-26T11:40:18Z</time>
      </trkpt>
      <trkpt lat="38.132808" lon="-6.966504">
        <ele>253.9</ele>
        <time>2009-01-26T11:40:22Z</time>
      </trkpt>
      <trkpt lat="38.132881" lon="-6.966479">
        <ele>254.8</ele>
        <time>2009-01-26T11:40:30Z</time>
      </trkpt>
      <trkpt lat="38.133050" lon="-6.966424">
        <ele>258.8</ele>
        <time>2009-01-26T11:40:44Z</time>
      </trkpt>
      <trkpt lat="38.133255" lon="-6.966391">
        <ele>263.7</ele>
        <time>2009-01-26T11:41:01Z</time>
      </trkpt>
      <trkpt lat="38.133425" lon="-6.966623">
        <ele>269.4</ele>
        <time>2009-01-26T11:41:20Z</time>
      </trkpt>
      <trkpt lat="38.133459" lon="-6.966620">
        <ele>270.7</ele>
        <time>2009-01-26T11:41:23Z</time>
      </trkpt>
      <trkpt lat="38.133519" lon="-6.966583">
        <ele>269.4</ele>
        <time>2009-01-26T11:41:28Z</time>
      </trkpt>
      <trkpt lat="38.133574" lon="-6.966537">
        <ele>269.4</ele>
        <time>2009-01-26T11:41:35Z</time>
      </trkpt>
      <trkpt lat="38.133730" lon="-6.966257">
        <ele>273.4</ele>
        <time>2009-01-26T11:41:58Z</time>
      </trkpt>
      <trkpt lat="38.133720" lon="-6.966146">
        <ele>272.5</ele>
        <time>2009-01-26T11:42:04Z</time>
      </trkpt>
      <trkpt lat="38.133663" lon="-6.965849">
        <ele>272.5</ele>
        <time>2009-01-26T11:42:23Z</time>
      </trkpt>
      <trkpt lat="38.133589" lon="-6.965645">
        <ele>267.6</ele>
        <time>2009-01-26T11:49:00Z</time>
      </trkpt>
      <trkpt lat="38.133500" lon="-6.965463">
        <ele>265.8</ele>
        <time>2009-01-26T11:49:13Z</time>
      </trkpt>
      <trkpt lat="38.133365" lon="-6.965169">
        <ele>266.4</ele>
        <time>2009-01-26T11:49:35Z</time>
      </trkpt>
      <trkpt lat="38.133340" lon="-6.965103">
        <ele>266.4</ele>
        <time>2009-01-26T11:49:40Z</time>
      </trkpt>
      <trkpt lat="38.133321" lon="-6.965065">
        <ele>265.8</ele>
        <time>2009-01-26T11:49:43Z</time>
      </trkpt>
      <trkpt lat="38.133274" lon="-6.964950">
        <ele>264.6</ele>
        <time>2009-01-26T11:49:51Z</time>
      </trkpt>
      <trkpt lat="38.133262" lon="-6.964894">
        <ele>263.7</ele>
        <time>2009-01-26T11:49:55Z</time>
      </trkpt>
      <trkpt lat="38.133171" lon="-6.964745">
        <ele>259.7</ele>
        <time>2009-01-26T11:50:07Z</time>
      </trkpt>
      <trkpt lat="38.133144" lon="-6.964680">
        <ele>256.9</ele>
        <time>2009-01-26T11:50:11Z</time>
      </trkpt>
      <trkpt lat="38.133072" lon="-6.964496">
        <ele>253.9</ele>
        <time>2009-01-26T11:50:24Z</time>
      </trkpt>
      <trkpt lat="38.133010" lon="-6.964218">
        <ele>250.9</ele>
        <time>2009-01-26T11:50:42Z</time>
      </trkpt>
      <trkpt lat="38.132925" lon="-6.964086">
        <ele>248.4</ele>
        <time>2009-01-26T11:51:01Z</time>
      </trkpt>
      <trkpt lat="38.132689" lon="-6.963888">
        <ele>245.1</ele>
        <time>2009-01-26T11:51:20Z</time>
      </trkpt>
      <trkpt lat="38.132547" lon="-6.963513">
        <ele>244.1</ele>
        <time>2009-01-26T11:51:44Z</time>
      </trkpt>
      <trkpt lat="38.132601" lon="-6.963302">
        <ele>243.5</ele>
        <time>2009-01-26T11:52:01Z</time>
      </trkpt>
      <trkpt lat="38.132601" lon="-6.963209">
        <ele>243.5</ele>
        <time>2009-01-26T11:52:07Z</time>
      </trkpt>
      <trkpt lat="38.132619" lon="-6.962866">
        <ele>243.5</ele>
        <time>2009-01-26T11:52:28Z</time>
      </trkpt>
      <trkpt lat="38.132607" lon="-6.962421">
        <ele>240.8</ele>
        <time>2009-01-26T11:52:54Z</time>
      </trkpt>
      <trkpt lat="38.132488" lon="-6.961943">
        <ele>239.3</ele>
        <time>2009-01-26T11:53:23Z</time>
      </trkpt>
      <trkpt lat="38.132296" lon="-6.961664">
        <ele>241.7</ele>
        <time>2009-01-26T11:53:44Z</time>
      </trkpt>
      <trkpt lat="38.132306" lon="-6.961614">
        <ele>241.7</ele>
        <time>2009-01-26T11:53:47Z</time>
      </trkpt>
      <trkpt lat="38.132445" lon="-6.961239">
        <ele>240.2</ele>
        <time>2009-01-26T11:54:10Z</time>
      </trkpt>
      <trkpt lat="38.132602" lon="-6.960813">
        <ele>240.8</ele>
        <time>2009-01-26T11:54:36Z</time>
      </trkpt>
      <trkpt lat="38.132770" lon="-6.960344">
        <ele>240.8</ele>
        <time>2009-01-26T11:55:05Z</time>
      </trkpt>
      <trkpt lat="38.132894" lon="-6.959975">
        <ele>241.1</ele>
        <time>2009-01-26T11:55:27Z</time>
      </trkpt>
      <trkpt lat="38.133045" lon="-6.959522">
        <ele>242.6</ele>
        <time>2009-01-26T11:55:54Z</time>
      </trkpt>
      <trkpt lat="38.133220" lon="-6.959008">
        <ele>245.1</ele>
        <time>2009-01-26T11:56:25Z</time>
      </trkpt>
      <trkpt lat="38.133367" lon="-6.958581">
        <ele>247.5</ele>
        <time>2009-01-26T11:56:50Z</time>
      </trkpt>
      <trkpt lat="38.133534" lon="-6.958179">
        <ele>249.0</ele>
        <time>2009-01-26T11:57:14Z</time>
      </trkpt>
      <trkpt lat="38.133719" lon="-6.957806">
        <ele>249.3</ele>
        <time>2009-01-26T11:57:38Z</time>
      </trkpt>
      <trkpt lat="38.133974" lon="-6.957323">
        <ele>249.3</ele>
        <time>2009-01-26T11:58:08Z</time>
      </trkpt>
      <trkpt lat="38.134189" lon="-6.956749">
        <ele>251.8</ele>
        <time>2009-01-26T11:58:42Z</time>
      </trkpt>
      <trkpt lat="38.134262" lon="-6.956431">
        <ele>252.4</ele>
        <time>2009-01-26T11:59:02Z</time>
      </trkpt>
      <trkpt lat="38.134333" lon="-6.955933">
        <ele>254.2</ele>
        <time>2009-01-26T11:59:30Z</time>
      </trkpt>
      <trkpt lat="38.134421" lon="-6.955341">
        <ele>254.2</ele>
        <time>2009-01-26T12:00:03Z</time>
      </trkpt>
      <trkpt lat="38.134507" lon="-6.954702">
        <ele>252.4</ele>
        <time>2009-01-26T12:00:38Z</time>
      </trkpt>
      <trkpt lat="38.134610" lon="-6.953965">
        <ele>251.8</ele>
        <time>2009-01-26T12:01:19Z</time>
      </trkpt>
      <trkpt lat="38.134646" lon="-6.953781">
        <ele>252.4</ele>
        <time>2009-01-26T12:01:33Z</time>
      </trkpt>
      <trkpt lat="38.134717" lon="-6.953263">
        <ele>253.3</ele>
        <time>2009-01-26T12:02:02Z</time>
      </trkpt>
      <trkpt lat="38.134820" lon="-6.952827">
        <ele>253.3</ele>
        <time>2009-01-26T12:02:29Z</time>
      </trkpt>
      <trkpt lat="38.134864" lon="-6.952783">
        <ele>252.4</ele>
        <time>2009-01-26T12:02:34Z</time>
      </trkpt>
      <trkpt lat="38.134896" lon="-6.952636">
        <ele>252.4</ele>
        <time>2009-01-26T12:02:44Z</time>
      </trkpt>
      <trkpt lat="38.134957" lon="-6.952220">
        <ele>251.5</ele>
        <time>2009-01-26T12:03:12Z</time>
      </trkpt>
      <trkpt lat="38.134962" lon="-6.952117">
        <ele>251.8</ele>
        <time>2009-01-26T12:03:19Z</time>
      </trkpt>
      <trkpt lat="38.134988" lon="-6.951961">
        <ele>251.8</ele>
        <time>2009-01-26T12:03:32Z</time>
      </trkpt>
      <trkpt lat="38.135006" lon="-6.951864">
        <ele>253.9</ele>
        <time>2009-01-26T12:03:49Z</time>
      </trkpt>
      <trkpt lat="38.135022" lon="-6.951737">
        <ele>253.3</ele>
        <time>2009-01-26T12:04:02Z</time>
      </trkpt>
      <trkpt lat="38.135040" lon="-6.951451">
        <ele>253.9</ele>
        <time>2009-01-26T12:04:22Z</time>
      </trkpt>
      <trkpt lat="38.135091" lon="-6.951458">
        <ele>247.5</ele>
        <time>2009-01-26T12:14:23Z</time>
      </trkpt>
      <trkpt lat="38.135105" lon="-6.951484">
        <ele>247.5</ele>
        <time>2009-01-26T12:14:32Z</time>
      </trkpt>
      <trkpt lat="38.135108" lon="-6.951481">
        <ele>246.6</ele>
        <time>2009-01-26T12:14:47Z</time>
      </trkpt>
      <trkpt lat="38.135202" lon="-6.951380">
        <ele>246.9</ele>
        <time>2009-01-26T12:15:02Z</time>
      </trkpt>
      <trkpt lat="38.135314" lon="-6.951093">
        <ele>248.4</ele>
        <time>2009-01-26T12:15:23Z</time>
      </trkpt>
      <trkpt lat="38.135470" lon="-6.950714">
        <ele>249.0</ele>
        <time>2009-01-26T12:15:49Z</time>
      </trkpt>
      <trkpt lat="38.135763" lon="-6.950438">
        <ele>249.3</ele>
        <time>2009-01-26T12:16:17Z</time>
      </trkpt>
      <trkpt lat="38.135774" lon="-6.950357">
        <ele>249.3</ele>
        <time>2009-01-26T12:16:23Z</time>
      </trkpt>
      <trkpt lat="38.135776" lon="-6.950343">
        <ele>249.9</ele>
        <time>2009-01-26T12:16:25Z</time>
      </trkpt>
      <trkpt lat="38.136029" lon="-6.950156">
        <ele>251.5</ele>
        <time>2009-01-26T12:16:50Z</time>
      </trkpt>
      <trkpt lat="38.136290" lon="-6.949954">
        <ele>253.3</ele>
        <time>2009-01-26T12:17:14Z</time>
      </trkpt>
      <trkpt lat="38.136414" lon="-6.949645">
        <ele>254.8</ele>
        <time>2009-01-26T12:17:36Z</time>
      </trkpt>
      <trkpt lat="38.136477" lon="-6.949256">
        <ele>254.8</ele>
        <time>2009-01-26T12:18:00Z</time>
      </trkpt>
      <trkpt lat="38.136534" lon="-6.948857">
        <ele>256.9</ele>
        <time>2009-01-26T12:18:25Z</time>
      </trkpt>
      <trkpt lat="38.136595" lon="-6.948586">
        <ele>256.9</ele>
        <time>2009-01-26T12:18:44Z</time>
      </trkpt>
      <trkpt lat="38.136651" lon="-6.948248">
        <ele>256.9</ele>
        <time>2009-01-26T12:19:06Z</time>
      </trkpt>
      <trkpt lat="38.136806" lon="-6.948061">
        <ele>250.9</ele>
        <time>2009-01-26T12:19:29Z</time>
      </trkpt>
      <trkpt lat="38.136874" lon="-6.948002">
        <ele>249.3</ele>
        <time>2009-01-26T12:19:37Z</time>
      </trkpt>
      <trkpt lat="38.137013" lon="-6.947837">
        <ele>247.5</ele>
        <time>2009-01-26T12:19:59Z</time>
      </trkpt>
      <trkpt lat="38.137062" lon="-6.947807">
        <ele>247.5</ele>
        <time>2009-01-26T12:20:04Z</time>
      </trkpt>
      <trkpt lat="38.137199" lon="-6.947641">
        <ele>242.6</ele>
        <time>2009-01-26T12:20:22Z</time>
      </trkpt>
      <trkpt lat="38.137230" lon="-6.947533">
        <ele>241.1</ele>
        <time>2009-01-26T12:20:32Z</time>
      </trkpt>
      <trkpt lat="38.137214" lon="-6.947287">
        <ele>236.8</ele>
        <time>2009-01-26T12:20:52Z</time>
      </trkpt>
      <trkpt lat="38.137192" lon="-6.946930">
        <ele>232.9</ele>
        <time>2009-01-26T12:21:14Z</time>
      </trkpt>
      <trkpt lat="38.137318" lon="-6.946723">
        <ele>236.8</ele>
        <time>2009-01-26T12:21:31Z</time>
      </trkpt>
      <trkpt lat="38.137468" lon="-6.946554">
        <ele>241.7</ele>
        <time>2009-01-26T12:21:50Z</time>
      </trkpt>
      <trkpt lat="38.137588" lon="-6.946325">
        <ele>245.1</ele>
        <time>2009-01-26T12:22:11Z</time>
      </trkpt>
      <trkpt lat="38.137697" lon="-6.946002">
        <ele>251.5</ele>
        <time>2009-01-26T12:22:37Z</time>
      </trkpt>
      <trkpt lat="38.137717" lon="-6.945679">
        <ele>251.8</ele>
        <time>2009-01-26T12:22:59Z</time>
      </trkpt>
      <trkpt lat="38.137759" lon="-6.945513">
        <ele>246.9</ele>
        <time>2009-01-26T12:23:17Z</time>
      </trkpt>
      <trkpt lat="38.137845" lon="-6.945352">
        <ele>244.1</ele>
        <time>2009-01-26T12:23:37Z</time>
      </trkpt>
      <trkpt lat="38.137862" lon="-6.945320">
        <ele>243.5</ele>
        <time>2009-01-26T12:23:40Z</time>
      </trkpt>
      <trkpt lat="38.137913" lon="-6.945124">
        <ele>240.2</ele>
        <time>2009-01-26T12:23:57Z</time>
      </trkpt>
      <trkpt lat="38.137960" lon="-6.944939">
        <ele>238.7</ele>
        <time>2009-01-26T12:24:41Z</time>
      </trkpt>
      <trkpt lat="38.137987" lon="-6.944883">
        <ele>238.4</ele>
        <time>2009-01-26T12:24:56Z</time>
      </trkpt>
      <trkpt lat="38.138067" lon="-6.944626">
        <ele>234.4</ele>
        <time>2009-01-26T12:25:15Z</time>
      </trkpt>
      <trkpt lat="38.138123" lon="-6.944473">
        <ele>232.0</ele>
        <time>2009-01-26T12:25:30Z</time>
      </trkpt>
      <trkpt lat="38.138154" lon="-6.944452">
        <ele>231.3</ele>
        <time>2009-01-26T12:25:33Z</time>
      </trkpt>
      <trkpt lat="38.138199" lon="-6.944428">
        <ele>231.0</ele>
        <time>2009-01-26T12:25:38Z</time>
      </trkpt>
      <trkpt lat="38.138258" lon="-6.944371">
        <ele>231.0</ele>
        <time>2009-01-26T12:25:45Z</time>
      </trkpt>
      <trkpt lat="38.138307" lon="-6.944340">
        <ele>231.0</ele>
        <time>2009-01-26T12:25:50Z</time>
      </trkpt>
      <trkpt lat="38.138400" lon="-6.944286">
        <ele>229.5</ele>
        <time>2009-01-26T12:25:59Z</time>
      </trkpt>
      <trkpt lat="38.138485" lon="-6.944174">
        <ele>228.9</ele>
        <time>2009-01-26T12:26:16Z</time>
      </trkpt>
      <trkpt lat="38.138573" lon="-6.944085">
        <ele>228.0</ele>
        <time>2009-01-26T12:26:33Z</time>
      </trkpt>
      <trkpt lat="38.138735" lon="-6.944059">
        <ele>225.6</ele>
        <time>2009-01-26T12:26:56Z</time>
      </trkpt>
      <trkpt lat="38.138846" lon="-6.943907">
        <ele>228.0</ele>
        <time>2009-01-26T12:29:13Z</time>
      </trkpt>
      <trkpt lat="38.138950" lon="-6.943759">
        <ele>228.0</ele>
        <time>2009-01-26T12:29:28Z</time>
      </trkpt>
      <trkpt lat="38.139033" lon="-6.943567">
        <ele>224.6</ele>
        <time>2009-01-26T12:29:45Z</time>
      </trkpt>
      <trkpt lat="38.139001" lon="-6.943360">
        <ele>223.1</ele>
        <time>2009-01-26T12:30:04Z</time>
      </trkpt>
      <trkpt lat="38.138997" lon="-6.943349">
        <ele>223.1</ele>
        <time>2009-01-26T12:30:06Z</time>
      </trkpt>
      <trkpt lat="38.139084" lon="-6.943180">
        <ele>222.2</ele>
        <time>2009-01-26T12:30:25Z</time>
      </trkpt>
      <trkpt lat="38.139089" lon="-6.943157">
        <ele>221.3</ele>
        <time>2009-01-26T12:30:27Z</time>
      </trkpt>
      <trkpt lat="38.139104" lon="-6.943118">
        <ele>220.7</ele>
        <time>2009-01-26T12:30:31Z</time>
      </trkpt>
      <trkpt lat="38.139202" lon="-6.942915">
        <ele>219.8</ele>
        <time>2009-01-26T12:30:48Z</time>
      </trkpt>
      <trkpt lat="38.139295" lon="-6.942693">
        <ele>218.2</ele>
        <time>2009-01-26T12:31:06Z</time>
      </trkpt>
      <trkpt lat="38.139420" lon="-6.942517">
        <ele>219.8</ele>
        <time>2009-01-26T12:31:24Z</time>
      </trkpt>
      <trkpt lat="38.139493" lon="-6.942489">
        <ele>218.8</ele>
        <time>2009-01-26T12:31:40Z</time>
      </trkpt>
      <trkpt lat="38.139556" lon="-6.942422">
        <ele>217.3</ele>
        <time>2009-01-26T12:31:59Z</time>
      </trkpt>
      <trkpt lat="38.139559" lon="-6.942411">
        <ele>217.3</ele>
        <time>2009-01-26T12:32:00Z</time>
      </trkpt>
      <trkpt lat="38.139595" lon="-6.942311">
        <ele>217.3</ele>
        <time>2009-01-26T12:32:15Z</time>
      </trkpt>
      <trkpt lat="38.139644" lon="-6.942185">
        <ele>217.3</ele>
        <time>2009-01-26T12:32:29Z</time>
      </trkpt>
      <trkpt lat="38.139700" lon="-6.942095">
        <ele>217.3</ele>
        <time>2009-01-26T12:32:40Z</time>
      </trkpt>
      <trkpt lat="38.139837" lon="-6.941920">
        <ele>216.4</ele>
        <time>2009-01-26T12:33:02Z</time>
      </trkpt>
      <trkpt lat="38.139957" lon="-6.941807">
        <ele>214.9</ele>
        <time>2009-01-26T12:33:19Z</time>
      </trkpt>
      <trkpt lat="38.139989" lon="-6.941676">
        <ele>213.1</ele>
        <time>2009-01-26T12:33:32Z</time>
      </trkpt>
      <trkpt lat="38.140031" lon="-6.941584">
        <ele>209.1</ele>
        <time>2009-01-26T12:41:32Z</time>
      </trkpt>
      <trkpt lat="38.140139" lon="-6.941385">
        <ele>208.2</ele>
        <time>2009-01-26T12:41:51Z</time>
      </trkpt>
      <trkpt lat="38.140146" lon="-6.941296">
        <ele>208.5</ele>
        <time>2009-01-26T12:42:01Z</time>
      </trkpt>
      <trkpt lat="38.140041" lon="-6.940975">
        <ele>208.5</ele>
        <time>2009-01-26T12:42:24Z</time>
      </trkpt>
      <trkpt lat="38.139901" lon="-6.940594">
        <ele>208.5</ele>
        <time>2009-01-26T12:42:51Z</time>
      </trkpt>
      <trkpt lat="38.139789" lon="-6.940474">
        <ele>208.5</ele>
        <time>2009-01-26T12:43:03Z</time>
      </trkpt>
      <trkpt lat="38.139671" lon="-6.940312">
        <ele>208.5</ele>
        <time>2009-01-26T12:43:21Z</time>
      </trkpt>
      <trkpt lat="38.139574" lon="-6.940197">
        <ele>208.2</ele>
        <time>2009-01-26T12:43:44Z</time>
      </trkpt>
      <trkpt lat="38.139461" lon="-6.940102">
        <ele>208.2</ele>
        <time>2009-01-26T12:43:59Z</time>
      </trkpt>
      <trkpt lat="38.139373" lon="-6.940015">
        <ele>208.5</ele>
        <time>2009-01-26T12:44:14Z</time>
      </trkpt>
      <trkpt lat="38.139283" lon="-6.939977">
        <ele>208.2</ele>
        <time>2009-01-26T12:44:34Z</time>
      </trkpt>
      <trkpt lat="38.139155" lon="-6.939879">
        <ele>210.0</ele>
        <time>2009-01-26T12:44:55Z</time>
      </trkpt>
      <trkpt lat="38.139031" lon="-6.939820">
        <ele>211.5</ele>
        <time>2009-01-26T12:45:46Z</time>
      </trkpt>
      <trkpt lat="38.138928" lon="-6.939749">
        <ele>208.5</ele>
        <time>2009-01-26T12:46:02Z</time>
      </trkpt>
      <trkpt lat="38.138874" lon="-6.939731">
        <ele>207.6</ele>
        <time>2009-01-26T12:49:13Z</time>
      </trkpt>
      <trkpt lat="38.138811" lon="-6.939687">
        <ele>209.1</ele>
        <time>2009-01-26T12:49:31Z</time>
      </trkpt>
      <trkpt lat="38.138749" lon="-6.939604">
        <ele>209.1</ele>
        <time>2009-01-26T12:49:47Z</time>
      </trkpt>
      <trkpt lat="38.138763" lon="-6.939528">
        <ele>209.1</ele>
        <time>2009-01-26T12:50:15Z</time>
      </trkpt>
      <trkpt lat="38.138754" lon="-6.939489">
        <ele>207.6</ele>
        <time>2009-01-26T12:50:29Z</time>
      </trkpt>
      <trkpt lat="38.138729" lon="-6.939444">
        <ele>206.7</ele>
        <time>2009-01-26T12:50:41Z</time>
      </trkpt>
      <trkpt lat="38.138718" lon="-6.939425">
        <ele>206.7</ele>
        <time>2009-01-26T12:50:46Z</time>
      </trkpt>
      <trkpt lat="38.138713" lon="-6.939398">
        <ele>205.7</ele>
        <time>2009-01-26T12:50:59Z</time>
      </trkpt>
      <trkpt lat="38.138720" lon="-6.939284">
        <ele>203.3</ele>
        <time>2009-01-26T12:51:59Z</time>
      </trkpt>
      <trkpt lat="38.138781" lon="-6.939220">
        <ele>205.7</ele>
        <time>2009-01-26T12:52:17Z</time>
      </trkpt>
      <trkpt lat="38.138943" lon="-6.939053">
        <ele>208.2</ele>
        <time>2009-01-26T12:52:36Z</time>
      </trkpt>
      <trkpt lat="38.139107" lon="-6.938779">
        <ele>210.0</ele>
        <time>2009-01-26T12:52:58Z</time>
      </trkpt>
      <trkpt lat="38.139138" lon="-6.938458">
        <ele>212.4</ele>
        <time>2009-01-26T12:53:18Z</time>
      </trkpt>
      <trkpt lat="38.139229" lon="-6.938207">
        <ele>217.3</ele>
        <time>2009-01-26T12:53:37Z</time>
      </trkpt>
      <trkpt lat="38.139268" lon="-6.938078">
        <ele>219.8</ele>
        <time>2009-01-26T12:53:55Z</time>
      </trkpt>
      <trkpt lat="38.139387" lon="-6.937873">
        <ele>222.2</ele>
        <time>2009-01-26T12:54:13Z</time>
      </trkpt>
      <trkpt lat="38.139547" lon="-6.937833">
        <ele>225.6</ele>
        <time>2009-01-26T12:54:27Z</time>
      </trkpt>
      <trkpt lat="38.139795" lon="-6.937868">
        <ele>228.9</ele>
        <time>2009-01-26T12:54:47Z</time>
      </trkpt>
      <trkpt lat="38.140048" lon="-6.938134">
        <ele>229.5</ele>
        <time>2009-01-26T12:55:11Z</time>
      </trkpt>
      <trkpt lat="38.140221" lon="-6.938395">
        <ele>230.4</ele>
        <time>2009-01-26T12:55:34Z</time>
      </trkpt>
      <trkpt lat="38.140277" lon="-6.938363">
        <ele>231.0</ele>
        <time>2009-01-26T12:55:47Z</time>
      </trkpt>
      <trkpt lat="38.140705" lon="-6.938372">
        <ele>232.0</ele>
        <time>2009-01-26T12:56:15Z</time>
      </trkpt>
      <trkpt lat="38.140739" lon="-6.938372">
        <ele>232.0</ele>
        <time>2009-01-26T12:56:19Z</time>
      </trkpt>
      <trkpt lat="38.140735" lon="-6.938366">
        <ele>232.0</ele>
        <time>2009-01-26T12:57:32Z</time>
      </trkpt>
      <trkpt lat="38.140989" lon="-6.938261">
        <ele>232.9</ele>
        <time>2009-01-26T12:57:54Z</time>
      </trkpt>
      <trkpt lat="38.141246" lon="-6.938012">
        <ele>232.0</ele>
        <time>2009-01-26T12:58:17Z</time>
      </trkpt>
      <trkpt lat="38.141571" lon="-6.938092">
        <ele>235.9</ele>
        <time>2009-01-26T12:58:42Z</time>
      </trkpt>
      <trkpt lat="38.141882" lon="-6.938332">
        <ele>236.8</ele>
        <time>2009-01-26T12:59:08Z</time>
      </trkpt>
      <trkpt lat="38.142102" lon="-6.938450">
        <ele>232.9</ele>
        <time>2009-01-26T12:59:25Z</time>
      </trkpt>
      <trkpt lat="38.142134" lon="-6.938466">
        <ele>234.4</ele>
        <time>2009-01-26T12:59:39Z</time>
      </trkpt>
      <trkpt lat="38.142407" lon="-6.938346">
        <ele>235.9</ele>
        <time>2009-01-26T13:00:01Z</time>
      </trkpt>
      <trkpt lat="38.142754" lon="-6.938231">
        <ele>233.5</ele>
        <time>2009-01-26T13:00:25Z</time>
      </trkpt>
      <trkpt lat="38.142804" lon="-6.938205">
        <ele>232.9</ele>
        <time>2009-01-26T13:00:40Z</time>
      </trkpt>
      <trkpt lat="38.143078" lon="-6.938132">
        <ele>234.4</ele>
        <time>2009-01-26T13:01:02Z</time>
      </trkpt>
      <trkpt lat="38.143432" lon="-6.938271">
        <ele>233.8</ele>
        <time>2009-01-26T13:01:28Z</time>
      </trkpt>
      <trkpt lat="38.143657" lon="-6.937879">
        <ele>236.8</ele>
        <time>2009-01-26T13:01:57Z</time>
      </trkpt>
      <trkpt lat="38.143755" lon="-6.937511">
        <ele>239.3</ele>
        <time>2009-01-26T13:02:19Z</time>
      </trkpt>
      <trkpt lat="38.144104" lon="-6.937225">
        <ele>239.3</ele>
        <time>2009-01-26T13:02:48Z</time>
      </trkpt>
      <trkpt lat="38.144399" lon="-6.937280">
        <ele>238.7</ele>
        <time>2009-01-26T13:03:09Z</time>
      </trkpt>
      <trkpt lat="38.144365" lon="-6.937657">
        <ele>235.9</ele>
        <time>2009-01-26T13:03:33Z</time>
      </trkpt>
      <trkpt lat="38.144365" lon="-6.937687">
        <ele>235.9</ele>
        <time>2009-01-26T13:03:35Z</time>
      </trkpt>
      <trkpt lat="38.144343" lon="-6.937909">
        <ele>235.9</ele>
        <time>2009-01-26T13:03:48Z</time>
      </trkpt>
      <trkpt lat="38.144349" lon="-6.938505">
        <ele>235.3</ele>
        <time>2009-01-26T13:04:21Z</time>
      </trkpt>
      <trkpt lat="38.144458" lon="-6.938888">
        <ele>235.3</ele>
        <time>2009-01-26T13:04:43Z</time>
      </trkpt>
      <trkpt lat="38.144620" lon="-6.939129">
        <ele>235.3</ele>
        <time>2009-01-26T13:05:02Z</time>
      </trkpt>
      <trkpt lat="38.144620" lon="-6.939119">
        <ele>236.2</ele>
        <time>2009-01-26T13:05:08Z</time>
      </trkpt>
      <trkpt lat="38.144713" lon="-6.939376">
        <ele>238.4</ele>
        <time>2009-01-26T13:05:31Z</time>
      </trkpt>
      <trkpt lat="38.144888" lon="-6.939827">
        <ele>241.7</ele>
        <time>2009-01-26T13:06:00Z</time>
      </trkpt>
      <trkpt lat="38.145210" lon="-6.940129">
        <ele>244.4</ele>
        <time>2009-01-26T13:06:28Z</time>
      </trkpt>
      <trkpt lat="38.145460" lon="-6.940327">
        <ele>244.1</ele>
        <time>2009-01-26T13:06:48Z</time>
      </trkpt>
      <trkpt lat="38.145770" lon="-6.940323">
        <ele>241.7</ele>
        <time>2009-01-26T13:07:09Z</time>
      </trkpt>
      <trkpt lat="38.146122" lon="-6.940137">
        <ele>245.1</ele>
        <time>2009-01-26T13:07:35Z</time>
      </trkpt>
      <trkpt lat="38.146347" lon="-6.939692">
        <ele>249.9</ele>
        <time>2009-01-26T13:08:04Z</time>
      </trkpt>
      <trkpt lat="38.146612" lon="-6.939420">
        <ele>256.0</ele>
        <time>2009-01-26T13:08:28Z</time>
      </trkpt>
      <trkpt lat="38.147041" lon="-6.939396">
        <ele>259.7</ele>
        <time>2009-01-26T13:08:58Z</time>
      </trkpt>
      <trkpt lat="38.147570" lon="-6.939457">
        <ele>261.5</ele>
        <time>2009-01-26T13:09:35Z</time>
      </trkpt>
      <trkpt lat="38.148093" lon="-6.939364">
        <ele>258.8</ele>
        <time>2009-01-26T13:10:10Z</time>
      </trkpt>
      <trkpt lat="38.148459" lon="-6.939142">
        <ele>261.8</ele>
        <time>2009-01-26T13:10:39Z</time>
      </trkpt>
      <trkpt lat="38.148809" lon="-6.939071">
        <ele>263.7</ele>
        <time>2009-01-26T13:11:04Z</time>
      </trkpt>
      <trkpt lat="38.149195" lon="-6.939271">
        <ele>262.7</ele>
        <time>2009-01-26T13:11:32Z</time>
      </trkpt>
      <trkpt lat="38.149551" lon="-6.939115">
        <ele>262.4</ele>
        <time>2009-01-26T13:11:57Z</time>
      </trkpt>
      <trkpt lat="38.149897" lon="-6.938891">
        <ele>261.8</ele>
        <time>2009-01-26T13:12:25Z</time>
      </trkpt>
      <trkpt lat="38.150194" lon="-6.938756">
        <ele>261.8</ele>
        <time>2009-01-26T13:12:47Z</time>
      </trkpt>
      <trkpt lat="38.150593" lon="-6.938415">
        <ele>260.9</ele>
        <time>2009-01-26T13:13:20Z</time>
      </trkpt>
      <trkpt lat="38.150918" lon="-6.938026">
        <ele>261.5</ele>
        <time>2009-01-26T13:13:51Z</time>
      </trkpt>
      <trkpt lat="38.151319" lon="-6.937843">
        <ele>263.7</ele>
        <time>2009-01-26T13:14:21Z</time>
      </trkpt>
      <trkpt lat="38.151783" lon="-6.937937">
        <ele>267.3</ele>
        <time>2009-01-26T13:14:53Z</time>
      </trkpt>
      <trkpt lat="38.152169" lon="-6.938307">
        <ele>267.3</ele>
        <time>2009-01-26T13:15:25Z</time>
      </trkpt>
      <trkpt lat="38.152573" lon="-6.938675">
        <ele>264.6</ele>
        <time>2009-01-26T13:15:59Z</time>
      </trkpt>
      <trkpt lat="38.152947" lon="-6.938994">
        <ele>269.4</ele>
        <time>2009-01-26T13:16:31Z</time>
      </trkpt>
      <trkpt lat="38.153308" lon="-6.939170">
        <ele>267.6</ele>
        <time>2009-01-26T13:16:58Z</time>
      </trkpt>
      <trkpt lat="38.153634" lon="-6.939109">
        <ele>272.5</ele>
        <time>2009-01-26T13:17:23Z</time>
      </trkpt>
      <trkpt lat="38.153947" lon="-6.939038">
        <ele>277.4</ele>
        <time>2009-01-26T13:17:46Z</time>
      </trkpt>
      <trkpt lat="38.154359" lon="-6.939258">
        <ele>275.5</ele>
        <time>2009-01-26T13:18:16Z</time>
      </trkpt>
      <trkpt lat="38.154781" lon="-6.939427">
        <ele>274.3</ele>
        <time>2009-01-26T13:18:47Z</time>
      </trkpt>
      <trkpt lat="38.155246" lon="-6.939260">
        <ele>276.5</ele>
        <time>2009-01-26T13:19:21Z</time>
      </trkpt>
      <trkpt lat="38.155583" lon="-6.939115">
        <ele>280.1</ele>
        <time>2009-01-26T13:19:46Z</time>
      </trkpt>
      <trkpt lat="38.155761" lon="-6.939033">
        <ele>283.2</ele>
        <time>2009-01-26T13:20:01Z</time>
      </trkpt>
      <trkpt lat="38.156041" lon="-6.938871">
        <ele>285.9</ele>
        <time>2009-01-26T13:20:25Z</time>
      </trkpt>
      <trkpt lat="38.156293" lon="-6.938766">
        <ele>288.0</ele>
        <time>2009-01-26T13:20:49Z</time>
      </trkpt>
      <trkpt lat="38.156312" lon="-6.938714">
        <ele>292.0</ele>
        <time>2009-01-26T13:23:11Z</time>
      </trkpt>
      <trkpt lat="38.156307" lon="-6.938710">
        <ele>291.7</ele>
        <time>2009-01-26T13:24:38Z</time>
      </trkpt>
      <trkpt lat="38.156268" lon="-6.938668">
        <ele>289.9</ele>
        <time>2010-05-29T10:23:12Z</time>
      </trkpt>
      <trkpt lat="38.156094" lon="-6.938487">
        <ele>292.0</ele>
        <time>2010-05-29T10:23:12Z</time>
      </trkpt>
      <trkpt lat="38.155812" lon="-6.938159">
        <ele>295.7</ele>
        <time>2010-05-29T10:23:12Z</time>
      </trkpt>
      <trkpt lat="38.155842" lon="-6.937961">
        <ele>296.9</ele>
        <time>2010-05-29T10:23:12Z</time>
      </trkpt>
      <trkpt lat="38.155987" lon="-6.937626">
        <ele>299.6</ele>
        <time>2010-05-29T14:29:19Z</time>
      </trkpt>
      <trkpt lat="38.155999" lon="-6.937313">
        <ele>300.5</ele>
        <time>2010-05-29T14:29:35Z</time>
      </trkpt>
      <trkpt lat="38.155987" lon="-6.936942">
        <ele>301.8</ele>
        <time>2010-05-29T14:29:55Z</time>
      </trkpt>
      <trkpt lat="38.155895" lon="-6.936366">
        <ele>303.6</ele>
        <time>2010-05-29T14:30:25Z</time>
      </trkpt>
      <trkpt lat="38.155823" lon="-6.935849">
        <ele>304.5</ele>
        <time>2010-05-29T14:30:53Z</time>
      </trkpt>
      <trkpt lat="38.155745" lon="-6.935474">
        <ele>306.6</ele>
        <time>2010-05-29T14:31:12Z</time>
      </trkpt>
      <trkpt lat="38.155673" lon="-6.934929">
        <ele>309.4</ele>
        <time>2010-05-29T14:31:40Z</time>
      </trkpt>
      <trkpt lat="38.155617" lon="-6.934555">
        <ele>311.5</ele>
        <time>2010-05-29T14:31:59Z</time>
      </trkpt>
      <trkpt lat="38.155542" lon="-6.934151">
        <ele>313.9</ele>
        <time>2010-05-29T14:32:21Z</time>
      </trkpt>
      <trkpt lat="38.155514" lon="-6.933637">
        <ele>313.3</ele>
        <time>2010-05-29T14:32:46Z</time>
      </trkpt>
      <trkpt lat="38.155574" lon="-6.933184">
        <ele>313.3</ele>
        <time>2010-05-29T14:33:10Z</time>
      </trkpt>
      <trkpt lat="38.155659" lon="-6.932675">
        <ele>313.3</ele>
        <time>2010-05-29T13:08:38Z</time>
      </trkpt>
      <trkpt lat="38.155803" lon="-6.932397">
        <ele>313.0</ele>
        <time>2010-05-29T13:08:38Z</time>
      </trkpt>
      <trkpt lat="38.156018" lon="-6.932010">
        <ele>313.0</ele>
        <time>2010-05-29T13:08:38Z</time>
      </trkpt>
      <trkpt lat="38.156135" lon="-6.931902">
        <ele>313.0</ele>
        <time>2010-05-29T14:34:31Z</time>
      </trkpt>
      <trkpt lat="38.156136" lon="-6.931873">
        <ele>313.9</ele>
        <time>2010-05-29T14:34:45Z</time>
      </trkpt>
      <trkpt lat="38.156143" lon="-6.931674">
        <ele>314.2</ele>
        <time>2010-05-29T12:29:46Z</time>
      </trkpt>
      <trkpt lat="38.156057" lon="-6.931527">
        <ele>314.2</ele>
        <time>2010-05-29T12:29:46Z</time>
      </trkpt>
      <trkpt lat="38.156072" lon="-6.931100">
        <ele>315.2</ele>
        <time>2010-05-29T12:29:46Z</time>
      </trkpt>
      <trkpt lat="38.155995" lon="-6.930725">
        <ele>315.2</ele>
        <time>2010-05-29T12:29:46Z</time>
      </trkpt>
      <trkpt lat="38.156029" lon="-6.930356">
        <ele>316.1</ele>
        <time>2010-05-29T12:29:46Z</time>
      </trkpt>
      <trkpt lat="38.156293" lon="-6.929857">
        <ele>317.3</ele>
        <time>2010-05-29T14:37:24Z</time>
      </trkpt>
      <trkpt lat="38.156488" lon="-6.929440">
        <ele>320.0</ele>
        <time>2010-05-29T14:37:49Z</time>
      </trkpt>
      <trkpt lat="38.156571" lon="-6.928959">
        <ele>324.0</ele>
        <time>2010-05-29T14:38:17Z</time>
      </trkpt>
      <trkpt lat="38.156536" lon="-6.928672">
        <ele>325.8</ele>
        <time>2010-05-29T13:05:45Z</time>
      </trkpt>
      <trkpt lat="38.156168" lon="-6.928225">
        <ele>329.8</ele>
        <time>2010-05-29T14:39:07Z</time>
      </trkpt>
      <trkpt lat="38.155998" lon="-6.927930">
        <ele>332.5</ele>
        <time>2010-05-29T14:39:27Z</time>
      </trkpt>
      <trkpt lat="38.155874" lon="-6.927553">
        <ele>332.5</ele>
        <time>2010-05-29T14:39:49Z</time>
      </trkpt>
      <trkpt lat="38.155921" lon="-6.926871">
        <ele>334.4</ele>
        <time>2010-05-29T13:09:38Z</time>
      </trkpt>
      <trkpt lat="38.155789" lon="-6.926722">
        <ele>334.7</ele>
        <time>2010-05-29T14:40:35Z</time>
      </trkpt>
      <trkpt lat="38.155695" lon="-6.926203">
        <ele>333.5</ele>
        <time>2010-05-29T14:41:03Z</time>
      </trkpt>
      <trkpt lat="38.155669" lon="-6.925660">
        <ele>334.7</ele>
        <time>2010-05-29T13:03:59Z</time>
      </trkpt>
      <trkpt lat="38.155518" lon="-6.925452">
        <ele>335.6</ele>
        <time>2010-05-29T13:03:59Z</time>
      </trkpt>
      <trkpt lat="38.155279" lon="-6.925183">
        <ele>336.5</ele>
        <time>2010-05-29T13:03:59Z</time>
      </trkpt>
      <trkpt lat="38.155086" lon="-6.924887">
        <ele>338.3</ele>
        <time>2010-05-29T13:03:59Z</time>
      </trkpt>
      <trkpt lat="38.154763" lon="-6.924442">
        <ele>339.5</ele>
        <time>2010-05-29T13:03:59Z</time>
      </trkpt>
      <trkpt lat="38.154482" lon="-6.924085">
        <ele>341.4</ele>
        <time>2010-05-29T13:03:59Z</time>
      </trkpt>
      <trkpt lat="38.154220" lon="-6.923842">
        <ele>342.6</ele>
        <time>2010-05-29T13:03:59Z</time>
      </trkpt>
      <trkpt lat="38.154047" lon="-6.923634">
        <ele>343.5</ele>
        <time>2010-05-29T13:03:59Z</time>
      </trkpt>
      <trkpt lat="38.154035" lon="-6.923319">
        <ele>344.4</ele>
        <time>2010-05-29T14:44:30Z</time>
      </trkpt>
      <trkpt lat="38.154023" lon="-6.922976">
        <ele>344.4</ele>
        <time>2010-05-29T12:41:48Z</time>
      </trkpt>
      <trkpt lat="38.153923" lon="-6.922629">
        <ele>344.4</ele>
        <time>2010-05-29T12:41:48Z</time>
      </trkpt>
      <trkpt lat="38.153795" lon="-6.922394">
        <ele>344.4</ele>
        <time>2010-05-29T12:41:48Z</time>
      </trkpt>
      <trkpt lat="38.153761" lon="-6.922050">
        <ele>345.3</ele>
        <time>2010-05-29T12:41:48Z</time>
      </trkpt>
      <trkpt lat="38.153598" lon="-6.921585">
        <ele>345.3</ele>
        <time>2010-05-29T12:41:48Z</time>
      </trkpt>
      <trkpt lat="38.153619" lon="-6.920930">
        <ele>345.3</ele>
        <time>2010-05-29T12:41:48Z</time>
      </trkpt>
      <trkpt lat="38.153952" lon="-6.920434">
        <ele>345.3</ele>
        <time>2010-05-29T14:47:53Z</time>
      </trkpt>
      <trkpt lat="38.154234" lon="-6.920079">
        <ele>347.2</ele>
        <time>2010-05-29T14:48:18Z</time>
      </trkpt>
      <trkpt lat="38.154353" lon="-6.919886">
        <ele>348.4</ele>
        <time>2010-05-29T14:48:37Z</time>
      </trkpt>
      <trkpt lat="38.154401" lon="-6.919774">
        <ele>350.2</ele>
        <time>2010-05-29T14:48:55Z</time>
      </trkpt>
      <trkpt lat="38.154497" lon="-6.919608">
        <ele>352.0</ele>
        <time>2010-05-29T14:49:14Z</time>
      </trkpt>
      <trkpt lat="38.154520" lon="-6.919609">
        <ele>352.0</ele>
        <time>2010-05-29T14:49:19Z</time>
      </trkpt>
      <trkpt lat="38.154541" lon="-6.919611">
        <ele>351.1</ele>
        <time>2010-05-29T14:49:29Z</time>
      </trkpt>
      <trkpt lat="38.154475" lon="-6.919607">
        <ele>351.1</ele>
        <time>2010-05-29T14:49:46Z</time>
      </trkpt>
      <trkpt lat="38.154475" lon="-6.919578">
        <ele>351.1</ele>
        <time>2010-05-29T14:49:57Z</time>
      </trkpt>
      <trkpt lat="38.154480" lon="-6.919408">
        <ele>351.1</ele>
        <time>2010-05-29T14:50:11Z</time>
      </trkpt>
      <trkpt lat="38.154443" lon="-6.919234">
        <ele>351.1</ele>
        <time>2010-05-29T14:50:27Z</time>
      </trkpt>
      <trkpt lat="38.154499" lon="-6.918895">
        <ele>351.1</ele>
        <time>2010-05-29T14:50:49Z</time>
      </trkpt>
      <trkpt lat="38.154491" lon="-6.918438">
        <ele>349.3</ele>
        <time>2010-05-29T14:51:14Z</time>
      </trkpt>
      <trkpt lat="38.154365" lon="-6.918147">
        <ele>347.2</ele>
        <time>2010-05-29T14:51:33Z</time>
      </trkpt>
      <trkpt lat="38.154175" lon="-6.917793">
        <ele>348.1</ele>
        <time>2010-05-29T12:01:40Z</time>
      </trkpt>
      <trkpt lat="38.153846" lon="-6.917548">
        <ele>348.4</ele>
        <time>2010-05-29T12:01:40Z</time>
      </trkpt>
      <trkpt lat="38.153713" lon="-6.917455">
        <ele>348.4</ele>
        <time>2010-05-29T12:01:40Z</time>
      </trkpt>
      <trkpt lat="38.153607" lon="-6.917279">
        <ele>349.0</ele>
        <time>2010-05-29T12:01:40Z</time>
      </trkpt>
      <trkpt lat="38.153326" lon="-6.916950">
        <ele>349.3</ele>
        <time>2010-05-29T12:01:40Z</time>
      </trkpt>
      <trkpt lat="38.153132" lon="-6.916626">
        <ele>349.9</ele>
        <time>2010-05-29T12:01:40Z</time>
      </trkpt>
      <trkpt lat="38.152983" lon="-6.916418">
        <ele>350.2</ele>
        <time>2010-05-29T12:01:40Z</time>
      </trkpt>
      <trkpt lat="38.152895" lon="-6.916328">
        <ele>350.2</ele>
        <time>2010-05-29T12:01:40Z</time>
      </trkpt>
      <trkpt lat="38.152700" lon="-6.916118">
        <ele>350.2</ele>
        <time>2010-05-29T12:01:40Z</time>
      </trkpt>
      <trkpt lat="38.152463" lon="-6.915792">
        <ele>351.1</ele>
        <time>2010-05-29T12:01:40Z</time>
      </trkpt>
      <trkpt lat="38.152289" lon="-6.915611">
        <ele>351.1</ele>
        <time>2010-05-29T12:01:40Z</time>
      </trkpt>
      <trkpt lat="38.151987" lon="-6.915196">
        <ele>352.0</ele>
        <time>2010-05-29T12:01:40Z</time>
      </trkpt>
      <trkpt lat="38.151900" lon="-6.915105">
        <ele>352.0</ele>
        <time>2010-05-29T12:01:40Z</time>
      </trkpt>
      <trkpt lat="38.151751" lon="-6.914841">
        <ele>352.0</ele>
        <time>2010-05-29T12:01:40Z</time>
      </trkpt>
      <trkpt lat="38.151450" lon="-6.914425">
        <ele>353.3</ele>
        <time>2010-05-29T12:01:40Z</time>
      </trkpt>
      <trkpt lat="38.151188" lon="-6.914183">
        <ele>353.9</ele>
        <time>2010-05-29T12:01:40Z</time>
      </trkpt>
      <trkpt lat="38.150922" lon="-6.914054">
        <ele>354.2</ele>
        <time>2010-05-29T12:01:40Z</time>
      </trkpt>
      <trkpt lat="38.150680" lon="-6.913899">
        <ele>354.2</ele>
        <time>2010-05-29T12:01:40Z</time>
      </trkpt>
      <trkpt lat="38.150355" lon="-6.913511">
        <ele>355.1</ele>
        <time>2010-05-29T15:02:11Z</time>
      </trkpt>
      <trkpt lat="38.150120" lon="-6.913129">
        <ele>359.7</ele>
        <time>2010-05-29T15:02:36Z</time>
      </trkpt>
      <trkpt lat="38.149887" lon="-6.912716">
        <ele>358.1</ele>
        <time>2010-05-29T15:03:02Z</time>
      </trkpt>
      <trkpt lat="38.149629" lon="-6.912303">
        <ele>356.0</ele>
        <time>2010-05-29T15:03:29Z</time>
      </trkpt>
      <trkpt lat="38.149526" lon="-6.912041">
        <ele>353.3</ele>
        <time>2010-05-29T15:04:28Z</time>
      </trkpt>
      <trkpt lat="38.149491" lon="-6.911726">
        <ele>353.9</ele>
        <time>2010-05-29T15:04:47Z</time>
      </trkpt>
      <trkpt lat="38.149370" lon="-6.911291">
        <ele>353.3</ele>
        <time>2010-05-29T13:10:51Z</time>
      </trkpt>
      <trkpt lat="38.149135" lon="-6.910909">
        <ele>353.3</ele>
        <time>2010-05-29T13:10:51Z</time>
      </trkpt>
      <trkpt lat="38.149159" lon="-6.910197">
        <ele>353.3</ele>
        <time>2010-05-29T13:10:51Z</time>
      </trkpt>
      <trkpt lat="38.149033" lon="-6.909934">
        <ele>353.3</ele>
        <time>2010-05-29T13:10:51Z</time>
      </trkpt>
      <trkpt lat="38.148909" lon="-6.909584">
        <ele>353.3</ele>
        <time>2010-05-29T13:10:51Z</time>
      </trkpt>
      <trkpt lat="38.148871" lon="-6.909383">
        <ele>353.3</ele>
        <time>2010-05-29T13:10:51Z</time>
      </trkpt>
      <trkpt lat="38.148901" lon="-6.909156">
        <ele>353.3</ele>
        <time>2010-05-29T13:10:51Z</time>
      </trkpt>
      <trkpt lat="38.149001" lon="-6.908848">
        <ele>353.3</ele>
        <time>2010-05-29T13:10:51Z</time>
      </trkpt>
      <trkpt lat="38.149037" lon="-6.908451">
        <ele>353.3</ele>
        <time>2010-05-29T13:10:51Z</time>
      </trkpt>
      <trkpt lat="38.148827" lon="-6.908012">
        <ele>353.0</ele>
        <time>2010-05-29T13:10:51Z</time>
      </trkpt>
      <trkpt lat="38.148819" lon="-6.907554">
        <ele>353.0</ele>
        <time>2010-05-29T13:10:51Z</time>
      </trkpt>
      <trkpt lat="38.148695" lon="-6.907234">
        <ele>353.0</ele>
        <time>2010-05-29T13:10:51Z</time>
      </trkpt>
      <trkpt lat="38.148423" lon="-6.906593">
        <ele>353.0</ele>
        <time>2010-05-29T13:10:51Z</time>
      </trkpt>
      <trkpt lat="38.148412" lon="-6.906250">
        <ele>353.0</ele>
        <time>2010-05-29T13:10:51Z</time>
      </trkpt>
      <trkpt lat="38.148560" lon="-6.905887">
        <ele>352.0</ele>
        <time>2010-05-29T15:10:30Z</time>
      </trkpt>
      <trkpt lat="38.148577" lon="-6.905375">
        <ele>353.3</ele>
        <time>2010-05-29T13:12:45Z</time>
      </trkpt>
      <trkpt lat="38.148296" lon="-6.905018">
        <ele>354.2</ele>
        <time>2010-05-29T13:12:45Z</time>
      </trkpt>
      <trkpt lat="38.148058" lon="-6.904720">
        <ele>354.2</ele>
        <time>2010-05-29T13:12:45Z</time>
      </trkpt>
      <trkpt lat="38.147825" lon="-6.904280">
        <ele>355.1</ele>
        <time>2010-05-29T13:12:45Z</time>
      </trkpt>
      <trkpt lat="38.147655" lon="-6.903956">
        <ele>355.1</ele>
        <time>2010-05-29T13:12:45Z</time>
      </trkpt>
      <trkpt lat="38.147099" lon="-6.903756">
        <ele>356.0</ele>
        <time>2010-05-29T13:12:45Z</time>
      </trkpt>
      <trkpt lat="38.146902" lon="-6.903602">
        <ele>356.9</ele>
        <time>2010-05-29T13:12:45Z</time>
      </trkpt>
      <trkpt lat="38.146729" lon="-6.903365">
        <ele>356.9</ele>
        <time>2010-05-29T13:12:45Z</time>
      </trkpt>
      <trkpt lat="38.146535" lon="-6.903127">
        <ele>357.8</ele>
        <time>2010-05-29T13:12:45Z</time>
      </trkpt>
      <trkpt lat="38.146387" lon="-6.902834">
        <ele>358.1</ele>
        <time>2010-05-29T13:12:45Z</time>
      </trkpt>
      <trkpt lat="38.146241" lon="-6.902484">
        <ele>358.7</ele>
        <time>2010-05-29T13:12:45Z</time>
      </trkpt>
      <trkpt lat="38.146099" lon="-6.902019">
        <ele>359.1</ele>
        <time>2010-05-29T13:12:45Z</time>
      </trkpt>
      <trkpt lat="38.146042" lon="-6.901674">
        <ele>359.7</ele>
        <time>2010-05-29T13:12:45Z</time>
      </trkpt>
      <trkpt lat="38.145829" lon="-6.901321">
        <ele>360.0</ele>
        <time>2010-05-29T13:12:45Z</time>
      </trkpt>
      <trkpt lat="38.145505" lon="-6.900905">
        <ele>360.9</ele>
        <time>2010-05-29T13:12:45Z</time>
      </trkpt>
      <trkpt lat="38.145175" lon="-6.900687">
        <ele>360.9</ele>
        <time>2010-05-29T13:12:45Z</time>
      </trkpt>
      <trkpt lat="38.144978" lon="-6.900506">
        <ele>361.8</ele>
        <time>2010-05-29T13:12:45Z</time>
      </trkpt>
      <trkpt lat="38.144853" lon="-6.900214">
        <ele>361.8</ele>
        <time>2010-05-29T13:12:45Z</time>
      </trkpt>
      <trkpt lat="38.144594" lon="-6.899857">
        <ele>362.7</ele>
        <time>2010-05-29T13:12:45Z</time>
      </trkpt>
      <trkpt lat="38.144453" lon="-6.899365">
        <ele>363.0</ele>
        <time>2010-05-29T15:18:21Z</time>
      </trkpt>
      <trkpt lat="38.144467" lon="-6.898938">
        <ele>361.8</ele>
        <time>2010-05-29T11:38:31Z</time>
      </trkpt>
      <trkpt lat="38.144350" lon="-6.898390">
        <ele>360.9</ele>
        <time>2010-05-29T11:38:31Z</time>
      </trkpt>
      <trkpt lat="38.144344" lon="-6.897905">
        <ele>360.0</ele>
        <time>2010-05-29T15:20:44Z</time>
      </trkpt>
      <trkpt lat="38.144381" lon="-6.897451">
        <ele>360.0</ele>
        <time>2010-05-29T15:21:24Z</time>
      </trkpt>
      <trkpt lat="38.144372" lon="-6.897052">
        <ele>360.9</ele>
        <time>2010-05-29T15:21:46Z</time>
      </trkpt>
      <trkpt lat="38.144379" lon="-6.896853">
        <ele>360.9</ele>
        <time>2010-05-29T15:22:00Z</time>
      </trkpt>
      <trkpt lat="38.144388" lon="-6.896568">
        <ele>361.8</ele>
        <time>2010-05-29T12:59:54Z</time>
      </trkpt>
      <trkpt lat="38.144245" lon="-6.896133">
        <ele>363.9</ele>
        <time>2010-05-29T12:59:54Z</time>
      </trkpt>
      <trkpt lat="38.144208" lon="-6.895902">
        <ele>364.5</ele>
        <time>2010-05-29T12:59:54Z</time>
      </trkpt>
      <trkpt lat="38.144109" lon="-6.895469">
        <ele>365.8</ele>
        <time>2010-05-29T12:59:54Z</time>
      </trkpt>
      <trkpt lat="38.144051" lon="-6.895181">
        <ele>366.7</ele>
        <time>2010-05-29T12:59:54Z</time>
      </trkpt>
      <trkpt lat="38.144021" lon="-6.894752">
        <ele>368.5</ele>
        <time>2010-05-29T12:59:54Z</time>
      </trkpt>
      <trkpt lat="38.144009" lon="-6.894437">
        <ele>369.7</ele>
        <time>2010-05-29T12:59:54Z</time>
      </trkpt>
      <trkpt lat="38.143971" lon="-6.894207">
        <ele>370.3</ele>
        <time>2010-05-29T12:59:54Z</time>
      </trkpt>
      <trkpt lat="38.143907" lon="-6.894089">
        <ele>370.6</ele>
        <time>2010-05-29T12:59:54Z</time>
      </trkpt>
      <trkpt lat="38.143867" lon="-6.893945">
        <ele>370.6</ele>
        <time>2010-05-29T12:59:54Z</time>
      </trkpt>
      <trkpt lat="38.143719" lon="-6.893652">
        <ele>372.5</ele>
        <time>2010-05-29T12:59:54Z</time>
      </trkpt>
      <trkpt lat="38.143615" lon="-6.893389">
        <ele>373.4</ele>
        <time>2010-05-29T12:59:54Z</time>
      </trkpt>
      <trkpt lat="38.143536" lon="-6.893071">
        <ele>374.3</ele>
        <time>2010-05-29T12:59:54Z</time>
      </trkpt>
      <trkpt lat="38.143387" lon="-6.892807">
        <ele>375.5</ele>
        <time>2010-05-29T12:59:54Z</time>
      </trkpt>
      <trkpt lat="38.143360" lon="-6.892264">
        <ele>377.3</ele>
        <time>2010-05-29T12:59:54Z</time>
      </trkpt>
      <trkpt lat="38.143280" lon="-6.891974">
        <ele>378.3</ele>
        <time>2010-05-29T12:59:54Z</time>
      </trkpt>
      <trkpt lat="38.143178" lon="-6.891655">
        <ele>379.5</ele>
        <time>2010-05-29T12:59:54Z</time>
      </trkpt>
      <trkpt lat="38.143034" lon="-6.891220">
        <ele>380.4</ele>
        <time>2010-05-29T12:59:54Z</time>
      </trkpt>
      <trkpt lat="38.142871" lon="-6.890726">
        <ele>382.2</ele>
        <time>2010-05-29T15:28:42Z</time>
      </trkpt>
      <trkpt lat="38.142883" lon="-6.890356">
        <ele>383.1</ele>
        <time>2010-05-29T15:29:03Z</time>
      </trkpt>
      <trkpt lat="38.143072" lon="-6.890081">
        <ele>384.0</ele>
        <time>2010-05-29T15:29:21Z</time>
      </trkpt>
      <trkpt lat="38.143194" lon="-6.889803">
        <ele>384.4</ele>
        <time>2010-05-29T15:29:43Z</time>
      </trkpt>
      <trkpt lat="38.143218" lon="-6.889747">
        <ele>384.0</ele>
        <time>2010-05-29T15:29:57Z</time>
      </trkpt>
      <trkpt lat="38.143243" lon="-6.889691">
        <ele>383.1</ele>
        <time>2010-05-29T15:30:29Z</time>
      </trkpt>
      <trkpt lat="38.143269" lon="-6.889578">
        <ele>383.1</ele>
        <time>2010-05-29T12:16:24Z</time>
      </trkpt>
      <trkpt lat="38.143128" lon="-6.889086">
        <ele>384.4</ele>
        <time>2010-05-29T12:16:24Z</time>
      </trkpt>
      <trkpt lat="38.143072" lon="-6.888713">
        <ele>385.3</ele>
        <time>2010-05-29T12:16:24Z</time>
      </trkpt>
      <trkpt lat="38.142944" lon="-6.888507">
        <ele>385.3</ele>
        <time>2010-05-29T12:16:24Z</time>
      </trkpt>
      <trkpt lat="38.142707" lon="-6.888180">
        <ele>386.2</ele>
        <time>2010-05-29T12:16:24Z</time>
      </trkpt>
      <trkpt lat="38.142403" lon="-6.887850">
        <ele>387.1</ele>
        <time>2010-05-29T12:16:24Z</time>
      </trkpt>
      <trkpt lat="38.142076" lon="-6.887519">
        <ele>388.0</ele>
        <time>2010-05-29T12:16:24Z</time>
      </trkpt>
      <trkpt lat="38.141819" lon="-6.887135">
        <ele>388.0</ele>
        <time>2010-05-29T12:16:24Z</time>
      </trkpt>
      <trkpt lat="38.141605" lon="-6.886782">
        <ele>389.2</ele>
        <time>2010-05-29T12:16:24Z</time>
      </trkpt>
      <trkpt lat="38.141410" lon="-6.886543">
        <ele>390.1</ele>
        <time>2010-05-29T12:16:24Z</time>
      </trkpt>
      <trkpt lat="38.141234" lon="-6.886419">
        <ele>390.1</ele>
        <time>2010-05-29T12:16:24Z</time>
      </trkpt>
      <trkpt lat="38.141146" lon="-6.886358">
        <ele>390.8</ele>
        <time>2010-05-29T12:16:24Z</time>
      </trkpt>
      <trkpt lat="38.141040" lon="-6.886182">
        <ele>391.1</ele>
        <time>2010-05-29T12:16:24Z</time>
      </trkpt>
      <trkpt lat="38.140935" lon="-6.885948">
        <ele>391.1</ele>
        <time>2010-05-29T12:16:24Z</time>
      </trkpt>
      <trkpt lat="38.140745" lon="-6.885566">
        <ele>392.0</ele>
        <time>2010-05-29T12:16:24Z</time>
      </trkpt>
      <trkpt lat="38.140619" lon="-6.885275">
        <ele>392.0</ele>
        <time>2010-05-29T12:16:24Z</time>
      </trkpt>
      <trkpt lat="38.140316" lon="-6.884917">
        <ele>392.9</ele>
        <time>2010-05-29T12:16:24Z</time>
      </trkpt>
      <trkpt lat="38.140056" lon="-6.884589">
        <ele>394.1</ele>
        <time>2010-05-29T12:16:24Z</time>
      </trkpt>
      <trkpt lat="38.139866" lon="-6.884208">
        <ele>394.7</ele>
        <time>2010-05-29T12:16:24Z</time>
      </trkpt>
      <trkpt lat="38.139611" lon="-6.883768">
        <ele>395.6</ele>
        <time>2010-05-29T12:16:24Z</time>
      </trkpt>
      <trkpt lat="38.139507" lon="-6.883506">
        <ele>395.9</ele>
        <time>2010-05-29T12:16:24Z</time>
      </trkpt>
      <trkpt lat="38.139384" lon="-6.883129">
        <ele>396.8</ele>
        <time>2010-05-29T12:16:24Z</time>
      </trkpt>
      <trkpt lat="38.139189" lon="-6.882889">
        <ele>396.8</ele>
        <time>2010-05-29T12:16:24Z</time>
      </trkpt>
      <trkpt lat="38.138991" lon="-6.882766">
        <ele>397.8</ele>
        <time>2010-05-29T12:16:24Z</time>
      </trkpt>
      <trkpt lat="38.138862" lon="-6.882588">
        <ele>397.8</ele>
        <time>2010-05-29T12:16:24Z</time>
      </trkpt>
      <trkpt lat="38.138733" lon="-6.882381">
        <ele>397.8</ele>
        <time>2010-05-29T12:16:24Z</time>
      </trkpt>
      <trkpt lat="38.138609" lon="-6.882060">
        <ele>398.7</ele>
        <time>2010-05-29T12:16:24Z</time>
      </trkpt>
      <trkpt lat="38.138547" lon="-6.881886">
        <ele>398.7</ele>
        <time>2010-05-29T12:16:24Z</time>
      </trkpt>
      <trkpt lat="38.138464" lon="-6.881682">
        <ele>399.6</ele>
        <time>2010-05-29T12:16:24Z</time>
      </trkpt>
      <trkpt lat="38.138362" lon="-6.881363">
        <ele>399.9</ele>
        <time>2010-05-29T12:16:24Z</time>
      </trkpt>
      <trkpt lat="38.138259" lon="-6.881073">
        <ele>400.5</ele>
        <time>2010-05-29T12:16:24Z</time>
      </trkpt>
      <trkpt lat="38.138471" lon="-6.880771">
        <ele>400.8</ele>
        <time>2010-05-29T15:45:01Z</time>
      </trkpt>
      <trkpt lat="38.138619" lon="-6.880379">
        <ele>402.6</ele>
        <time>2010-05-29T15:45:33Z</time>
      </trkpt>
      <trkpt lat="38.138671" lon="-6.880266">
        <ele>405.7</ele>
        <time>2010-05-29T07:52:34Z</time>
      </trkpt>
      <trkpt lat="38.138509" lon="-6.880259">
        <ele>408.4</ele>
        <time>2010-05-29T07:52:34Z</time>
      </trkpt>
      <trkpt lat="38.138356" lon="-6.880275">
        <ele>407.5</ele>
        <time>2010-05-29T07:52:34Z</time>
      </trkpt>
      <trkpt lat="38.138309" lon="-6.880162">
        <ele>408.4</ele>
        <time>2010-05-29T07:52:34Z</time>
      </trkpt>
      <trkpt lat="38.138206" lon="-6.879982">
        <ele>410.6</ele>
        <time>2010-05-29T07:52:34Z</time>
      </trkpt>
      <trkpt lat="38.138006" lon="-6.879886">
        <ele>412.4</ele>
        <time>2010-05-29T07:52:34Z</time>
      </trkpt>
      <trkpt lat="38.137923" lon="-6.879774">
        <ele>412.4</ele>
        <time>2010-05-29T07:52:34Z</time>
      </trkpt>
      <trkpt lat="38.137858" lon="-6.879650">
        <ele>412.4</ele>
        <time>2010-05-29T07:52:34Z</time>
      </trkpt>
      <trkpt lat="38.137791" lon="-6.879424">
        <ele>413.6</ele>
        <time>2010-05-29T07:52:34Z</time>
      </trkpt>
      <trkpt lat="38.137735" lon="-6.879334">
        <ele>414.5</ele>
        <time>2010-05-29T07:52:34Z</time>
      </trkpt>
      <trkpt lat="38.137560" lon="-6.879100">
        <ele>415.4</ele>
        <time>2010-05-29T07:52:34Z</time>
      </trkpt>
      <trkpt lat="38.137454" lon="-6.878749">
        <ele>417.0</ele>
        <time>2010-05-29T07:52:34Z</time>
      </trkpt>
      <trkpt lat="38.137351" lon="-6.878513">
        <ele>417.0</ele>
        <time>2010-05-29T07:52:34Z</time>
      </trkpt>
      <trkpt lat="38.137331" lon="-6.878399">
        <ele>417.6</ele>
        <time>2010-05-29T07:52:34Z</time>
      </trkpt>
      <trkpt lat="38.137275" lon="-6.878287">
        <ele>418.5</ele>
        <time>2010-05-29T07:52:34Z</time>
      </trkpt>
      <trkpt lat="38.137253" lon="-6.878116">
        <ele>419.4</ele>
        <time>2010-05-29T07:52:34Z</time>
      </trkpt>
      <trkpt lat="38.137193" lon="-6.877880">
        <ele>420.9</ele>
        <time>2010-05-29T15:54:59Z</time>
      </trkpt>
      <trkpt lat="38.132452" lon="-6.866653">
        <ele>438.6</ele>
        <time>2009-02-03T10:46:31Z</time>
      </trkpt>
      <trkpt lat="38.132432" lon="-6.866595">
        <ele>438.6</ele>
        <time>2009-02-03T10:46:36Z</time>
      </trkpt>
      <trkpt lat="38.132411" lon="-6.866537">
        <ele>438.6</ele>
        <time>2009-02-03T10:46:41Z</time>
      </trkpt>
      <trkpt lat="38.132389" lon="-6.866507">
        <ele>438.6</ele>
        <time>2009-02-03T10:46:45Z</time>
      </trkpt>
      <trkpt lat="38.132328" lon="-6.866304">
        <ele>441.4</ele>
        <time>2009-02-03T10:47:00Z</time>
      </trkpt>
      <trkpt lat="38.132291" lon="-6.866074">
        <ele>442.6</ele>
        <time>2009-02-03T10:47:18Z</time>
      </trkpt>
      <trkpt lat="38.132271" lon="-6.865988">
        <ele>442.6</ele>
        <time>2009-02-03T10:47:25Z</time>
      </trkpt>
      <trkpt lat="38.132169" lon="-6.865669">
        <ele>442.6</ele>
        <time>2009-02-03T10:47:47Z</time>
      </trkpt>
      <trkpt lat="38.132043" lon="-6.865405">
        <ele>443.5</ele>
        <time>2009-02-03T10:48:10Z</time>
      </trkpt>
      <trkpt lat="38.132021" lon="-6.865376">
        <ele>443.5</ele>
        <time>2009-02-03T10:48:17Z</time>
      </trkpt>
      <trkpt lat="38.131956" lon="-6.865315">
        <ele>443.5</ele>
        <time>2009-02-03T10:48:31Z</time>
      </trkpt>
      <trkpt lat="38.131802" lon="-6.865193">
        <ele>445.6</ele>
        <time>2009-02-03T10:48:48Z</time>
      </trkpt>
      <trkpt lat="38.131583" lon="-6.865010">
        <ele>447.1</ele>
        <time>2009-02-03T10:49:09Z</time>
      </trkpt>
      <trkpt lat="38.131386" lon="-6.864829">
        <ele>447.4</ele>
        <time>2009-02-03T10:49:28Z</time>
      </trkpt>
      <trkpt lat="38.131191" lon="-6.864619">
        <ele>448.4</ele>
        <time>2009-02-03T10:49:51Z</time>
      </trkpt>
      <trkpt lat="38.131191" lon="-6.864619">
        <ele>446.5</ele>
        <time>2009-02-03T10:50:10Z</time>
      </trkpt>
      <trkpt lat="38.131168" lon="-6.864618">
        <ele>448.4</ele>
        <time>2009-02-03T10:53:06Z</time>
      </trkpt>
      <trkpt lat="38.131014" lon="-6.864496">
        <ele>449.3</ele>
        <time>2009-02-03T10:53:22Z</time>
      </trkpt>
      <trkpt lat="38.130970" lon="-6.864465">
        <ele>450.2</ele>
        <time>2009-02-03T10:53:25Z</time>
      </trkpt>
      <trkpt lat="38.130839" lon="-6.864344">
        <ele>450.2</ele>
        <time>2009-02-03T10:53:37Z</time>
      </trkpt>
      <trkpt lat="38.130730" lon="-6.864253">
        <ele>450.2</ele>
        <time>2009-02-03T10:53:48Z</time>
      </trkpt>
      <trkpt lat="38.130535" lon="-6.864014">
        <ele>450.2</ele>
        <time>2009-02-03T10:54:09Z</time>
      </trkpt>
      <trkpt lat="38.130345" lon="-6.863634">
        <ele>451.4</ele>
        <time>2009-02-03T10:54:33Z</time>
      </trkpt>
      <trkpt lat="38.130217" lon="-6.863399">
        <ele>451.4</ele>
        <time>2009-02-03T10:54:49Z</time>
      </trkpt>
      <trkpt lat="38.130175" lon="-6.863311">
        <ele>451.4</ele>
        <time>2009-02-03T10:55:15Z</time>
      </trkpt>
      <trkpt lat="38.130094" lon="-6.863050">
        <ele>451.4</ele>
        <time>2009-02-03T10:55:32Z</time>
      </trkpt>
      <trkpt lat="38.130010" lon="-6.862846">
        <ele>449.3</ele>
        <time>2009-02-03T10:55:48Z</time>
      </trkpt>
      <trkpt lat="38.129839" lon="-6.862581">
        <ele>450.2</ele>
        <time>2009-02-03T10:56:07Z</time>
      </trkpt>
      <trkpt lat="38.129713" lon="-6.862289">
        <ele>451.4</ele>
        <time>2009-02-03T10:56:25Z</time>
      </trkpt>
      <trkpt lat="38.129565" lon="-6.861996">
        <ele>451.4</ele>
        <time>2009-02-03T10:56:44Z</time>
      </trkpt>
      <trkpt lat="38.129374" lon="-6.861644">
        <ele>452.3</ele>
        <time>2009-02-03T10:57:08Z</time>
      </trkpt>
      <trkpt lat="38.129312" lon="-6.861498">
        <ele>452.3</ele>
        <time>2009-02-03T10:57:19Z</time>
      </trkpt>
      <trkpt lat="38.129121" lon="-6.861117">
        <ele>452.3</ele>
        <time>2009-02-03T10:57:43Z</time>
      </trkpt>
      <trkpt lat="38.128997" lon="-6.860797">
        <ele>453.2</ele>
        <time>2009-02-03T10:58:04Z</time>
      </trkpt>
      <trkpt lat="38.128870" lon="-6.860534">
        <ele>455.1</ele>
        <time>2009-02-03T10:58:25Z</time>
      </trkpt>
      <trkpt lat="38.128785" lon="-6.860387">
        <ele>456.0</ele>
        <time>2009-02-03T10:58:41Z</time>
      </trkpt>
      <trkpt lat="38.128785" lon="-6.860387">
        <ele>457.2</ele>
        <time>2009-02-03T10:59:03Z</time>
      </trkpt>
      <trkpt lat="38.128743" lon="-6.860299">
        <ele>457.2</ele>
        <time>2009-02-03T10:59:14Z</time>
      </trkpt>
      <trkpt lat="38.128768" lon="-6.860215">
        <ele>457.2</ele>
        <time>2009-02-03T10:59:26Z</time>
      </trkpt>
      <trkpt lat="38.128768" lon="-6.860215">
        <ele>457.2</ele>
        <time>2009-02-03T10:59:40Z</time>
      </trkpt>
      <trkpt lat="38.128842" lon="-6.860019">
        <ele>457.2</ele>
        <time>2009-02-03T11:00:16Z</time>
      </trkpt>
      <trkpt lat="38.128870" lon="-6.859850">
        <ele>458.1</ele>
        <time>2009-02-03T11:00:29Z</time>
      </trkpt>
      <trkpt lat="38.128873" lon="-6.859764">
        <ele>457.2</ele>
        <time>2009-02-03T11:00:34Z</time>
      </trkpt>
      <trkpt lat="38.128884" lon="-6.859451">
        <ele>457.2</ele>
        <time>2009-02-03T11:00:51Z</time>
      </trkpt>
      <trkpt lat="38.128913" lon="-6.859225">
        <ele>458.1</ele>
        <time>2009-02-03T11:01:05Z</time>
      </trkpt>
      <trkpt lat="38.128879" lon="-6.858909">
        <ele>458.1</ele>
        <time>2009-02-03T11:01:35Z</time>
      </trkpt>
      <trkpt lat="38.128838" lon="-6.858793">
        <ele>458.1</ele>
        <time>2009-02-03T11:01:49Z</time>
      </trkpt>
      <trkpt lat="38.128780" lon="-6.858505">
        <ele>458.1</ele>
        <time>2009-02-03T11:02:06Z</time>
      </trkpt>
      <trkpt lat="38.128676" lon="-6.858243">
        <ele>457.2</ele>
        <time>2009-02-03T11:02:22Z</time>
      </trkpt>
      <trkpt lat="38.128635" lon="-6.858098">
        <ele>457.2</ele>
        <time>2009-02-03T11:02:50Z</time>
      </trkpt>
      <trkpt lat="38.128594" lon="-6.857982">
        <ele>457.2</ele>
        <time>2009-02-03T11:03:37Z</time>
      </trkpt>
      <trkpt lat="38.128553" lon="-6.857866">
        <ele>456.3</ele>
        <time>2009-02-03T11:03:48Z</time>
      </trkpt>
      <trkpt lat="38.128491" lon="-6.857692">
        <ele>455.1</ele>
        <time>2009-02-03T11:04:02Z</time>
      </trkpt>
      <trkpt lat="38.128409" lon="-6.857459">
        <ele>453.2</ele>
        <time>2009-02-03T11:04:25Z</time>
      </trkpt>
      <trkpt lat="38.128326" lon="-6.857227">
        <ele>452.0</ele>
        <time>2009-02-03T11:04:46Z</time>
      </trkpt>
      <trkpt lat="38.128245" lon="-6.856966">
        <ele>450.2</ele>
        <time>2009-02-03T11:05:07Z</time>
      </trkpt>
      <trkpt lat="38.128140" lon="-6.856732">
        <ele>448.4</ele>
        <time>2009-02-03T11:05:30Z</time>
      </trkpt>
      <trkpt lat="38.128037" lon="-6.856442">
        <ele>447.1</ele>
        <time>2009-02-03T11:05:54Z</time>
      </trkpt>
      <trkpt lat="38.127889" lon="-6.856149">
        <ele>442.6</ele>
        <time>2009-02-03T11:06:17Z</time>
      </trkpt>
      <trkpt lat="38.127743" lon="-6.855799">
        <ele>439.5</ele>
        <time>2009-02-03T11:06:40Z</time>
      </trkpt>
      <trkpt lat="38.127703" lon="-6.855626">
        <ele>439.5</ele>
        <time>2009-02-03T11:07:46Z</time>
      </trkpt>
      <trkpt lat="38.127709" lon="-6.855455">
        <ele>442.6</ele>
        <time>2009-02-03T11:08:43Z</time>
      </trkpt>
      <trkpt lat="38.127712" lon="-6.855370">
        <ele>442.3</ele>
        <time>2009-02-03T11:08:50Z</time>
      </trkpt>
      <trkpt lat="38.127836" lon="-6.855006">
        <ele>438.6</ele>
        <time>2009-02-03T11:09:13Z</time>
      </trkpt>
      <trkpt lat="38.127913" lon="-6.854725">
        <ele>437.4</ele>
        <time>2009-02-03T11:09:32Z</time>
      </trkpt>
      <trkpt lat="38.127990" lon="-6.854444">
        <ele>436.5</ele>
        <time>2009-02-03T11:09:51Z</time>
      </trkpt>
      <trkpt lat="38.128071" lon="-6.854020">
        <ele>435.9</ele>
        <time>2009-02-03T10:54:19Z</time>
      </trkpt>
      <trkpt lat="38.128109" lon="-6.853566">
        <ele>435.9</ele>
        <time>2009-02-03T10:54:19Z</time>
      </trkpt>
      <trkpt lat="38.127953" lon="-6.853501">
        <ele>435.9</ele>
        <time>2009-02-03T11:10:52Z</time>
      </trkpt>
      <trkpt lat="38.127859" lon="-6.853639">
        <ele>432.8</ele>
        <time>2009-02-03T10:53:58Z</time>
      </trkpt>
      <trkpt lat="38.127687" lon="-6.854057">
        <ele>426.1</ele>
        <time>2009-02-03T11:11:34Z</time>
      </trkpt>
      <trkpt lat="38.127639" lon="-6.854140">
        <ele>425.8</ele>
        <time>2009-02-03T11:11:48Z</time>
      </trkpt>
      <trkpt lat="38.127616" lon="-6.854168">
        <ele>427.0</ele>
        <time>2009-02-03T11:12:14Z</time>
      </trkpt>
      <trkpt lat="38.127387" lon="-6.854298">
        <ele>423.1</ele>
        <time>2009-02-03T11:12:35Z</time>
      </trkpt>
      <trkpt lat="38.127274" lon="-6.854292">
        <ele>422.1</ele>
        <time>2009-02-03T11:12:52Z</time>
      </trkpt>
      <trkpt lat="38.127074" lon="-6.854225">
        <ele>420.3</ele>
        <time>2009-02-03T11:13:08Z</time>
      </trkpt>
      <trkpt lat="38.126878" lon="-6.854015">
        <ele>415.4</ele>
        <time>2009-02-03T11:13:31Z</time>
      </trkpt>
      <trkpt lat="38.126796" lon="-6.853754">
        <ele>410.6</ele>
        <time>2009-02-03T10:50:01Z</time>
      </trkpt>
      <trkpt lat="38.126671" lon="-6.853462">
        <ele>406.6</ele>
        <time>2009-02-03T10:50:01Z</time>
      </trkpt>
      <trkpt lat="38.126763" lon="-6.853410">
        <ele>404.8</ele>
        <time>2009-02-03T11:14:21Z</time>
      </trkpt>
      <trkpt lat="38.126961" lon="-6.853534">
        <ele>401.7</ele>
        <time>2009-02-03T11:14:37Z</time>
      </trkpt>
      <trkpt lat="38.127054" lon="-6.853454">
        <ele>399.0</ele>
        <time>2009-02-03T10:52:02Z</time>
      </trkpt>
      <trkpt lat="38.126970" lon="-6.853278">
        <ele>395.9</ele>
        <time>2009-02-03T10:52:02Z</time>
      </trkpt>
      <trkpt lat="38.126847" lon="-6.852901">
        <ele>390.1</ele>
        <time>2009-02-03T10:52:02Z</time>
      </trkpt>
      <trkpt lat="38.126766" lon="-6.852612">
        <ele>385.9</ele>
        <time>2009-02-03T10:52:02Z</time>
      </trkpt>
      <trkpt lat="38.126728" lon="-6.852410">
        <ele>383.1</ele>
        <time>2009-02-03T11:16:04Z</time>
      </trkpt>
      <trkpt lat="38.126578" lon="-6.852174">
        <ele>376.4</ele>
        <time>2009-02-03T11:17:05Z</time>
      </trkpt>
      <trkpt lat="38.126452" lon="-6.851911">
        <ele>373.4</ele>
        <time>2009-02-03T11:17:22Z</time>
      </trkpt>
      <trkpt lat="38.126212" lon="-6.851671">
        <ele>371.6</ele>
        <time>2009-02-03T11:17:45Z</time>
      </trkpt>
      <trkpt lat="38.126040" lon="-6.851405">
        <ele>370.6</ele>
        <time>2009-02-03T10:46:30Z</time>
      </trkpt>
      <trkpt lat="38.125905" lon="-6.851398">
        <ele>370.6</ele>
        <time>2009-02-03T11:18:30Z</time>
      </trkpt>
      <trkpt lat="38.125744" lon="-6.851503">
        <ele>366.7</ele>
        <time>2009-02-03T11:18:51Z</time>
      </trkpt>
      <trkpt lat="38.125555" lon="-6.851779">
        <ele>362.7</ele>
        <time>2009-02-03T10:47:09Z</time>
      </trkpt>
      <trkpt lat="38.125415" lon="-6.851942">
        <ele>360.0</ele>
        <time>2009-02-03T10:47:09Z</time>
      </trkpt>
      <trkpt lat="38.125326" lon="-6.851909">
        <ele>358.7</ele>
        <time>2009-02-03T10:47:09Z</time>
      </trkpt>
      <trkpt lat="38.125114" lon="-6.851499">
        <ele>353.9</ele>
        <time>2009-02-03T10:47:09Z</time>
      </trkpt>
      <trkpt lat="38.124923" lon="-6.851147">
        <ele>349.9</ele>
        <time>2009-02-03T11:20:30Z</time>
      </trkpt>
      <trkpt lat="38.124728" lon="-6.850908">
        <ele>344.4</ele>
        <time>2009-02-03T11:20:53Z</time>
      </trkpt>
      <trkpt lat="38.124706" lon="-6.850879">
        <ele>344.1</ele>
        <time>2009-02-03T11:20:57Z</time>
      </trkpt>
      <trkpt lat="38.124642" lon="-6.850790">
        <ele>343.5</ele>
        <time>2009-02-03T11:21:14Z</time>
      </trkpt>
      <trkpt lat="38.124511" lon="-6.850669">
        <ele>341.4</ele>
        <time>2009-02-03T11:21:28Z</time>
      </trkpt>
      <trkpt lat="38.124203" lon="-6.850425">
        <ele>336.5</ele>
        <time>2009-02-03T11:22:05Z</time>
      </trkpt>
      <trkpt lat="38.124073" lon="-6.850275">
        <ele>333.5</ele>
        <time>2009-02-03T11:22:39Z</time>
      </trkpt>
      <trkpt lat="38.123986" lon="-6.850185">
        <ele>331.6</ele>
        <time>2009-02-03T11:23:18Z</time>
      </trkpt>
      <trkpt lat="38.123812" lon="-6.850005">
        <ele>328.9</ele>
        <time>2009-02-03T11:23:37Z</time>
      </trkpt>
      <trkpt lat="38.123639" lon="-6.849768">
        <ele>324.9</ele>
        <time>2009-02-03T11:23:56Z</time>
      </trkpt>
      <trkpt lat="38.123512" lon="-6.849533">
        <ele>322.2</ele>
        <time>2009-02-03T11:24:15Z</time>
      </trkpt>
      <trkpt lat="38.123342" lon="-6.849211">
        <ele>320.0</ele>
        <time>2009-02-03T11:24:38Z</time>
      </trkpt>
      <trkpt lat="38.123258" lon="-6.849035">
        <ele>317.3</ele>
        <time>2009-02-03T11:24:52Z</time>
      </trkpt>
      <trkpt lat="38.123130" lon="-6.848829">
        <ele>313.9</ele>
        <time>2009-02-03T11:25:09Z</time>
      </trkpt>
      <trkpt lat="38.122980" lon="-6.848593">
        <ele>309.4</ele>
        <time>2009-02-03T11:25:28Z</time>
      </trkpt>
      <trkpt lat="38.122833" lon="-6.848272">
        <ele>305.4</ele>
        <time>2009-02-03T11:25:51Z</time>
      </trkpt>
      <trkpt lat="38.122706" lon="-6.848008">
        <ele>303.3</ele>
        <time>2009-02-03T11:26:10Z</time>
      </trkpt>
      <trkpt lat="38.122627" lon="-6.847691">
        <ele>298.4</ele>
        <time>2009-02-03T11:26:31Z</time>
      </trkpt>
      <trkpt lat="38.122551" lon="-6.847259">
        <ele>294.7</ele>
        <time>2009-02-03T11:26:57Z</time>
      </trkpt>
      <trkpt lat="38.122535" lon="-6.847059">
        <ele>291.1</ele>
        <time>2009-02-03T11:27:13Z</time>
      </trkpt>
      <trkpt lat="38.122431" lon="-6.846797">
        <ele>289.0</ele>
        <time>2009-02-03T11:27:34Z</time>
      </trkpt>
      <trkpt lat="38.122367" lon="-6.846679">
        <ele>287.1</ele>
        <time>2009-02-03T11:27:46Z</time>
      </trkpt>
      <trkpt lat="38.122284" lon="-6.846475">
        <ele>285.0</ele>
        <time>2009-02-03T11:28:07Z</time>
      </trkpt>
      <trkpt lat="38.122242" lon="-6.846359">
        <ele>285.0</ele>
        <time>2009-02-03T11:28:21Z</time>
      </trkpt>
      <trkpt lat="38.122242" lon="-6.846359">
        <ele>285.9</ele>
        <time>2009-02-03T11:28:35Z</time>
      </trkpt>
      <trkpt lat="38.122242" lon="-6.846359">
        <ele>280.1</ele>
        <time>2009-02-03T11:29:46Z</time>
      </trkpt>
      <trkpt lat="38.122199" lon="-6.846300">
        <ele>284.1</ele>
        <time>2009-02-03T11:30:18Z</time>
      </trkpt>
      <trkpt lat="38.122178" lon="-6.846270">
        <ele>285.0</ele>
        <time>2009-02-03T11:30:52Z</time>
      </trkpt>
      <trkpt lat="38.122157" lon="-6.846212">
        <ele>288.0</ele>
        <time>2009-02-03T11:31:06Z</time>
      </trkpt>
      <trkpt lat="38.122024" lon="-6.846120">
        <ele>286.8</ele>
        <time>2009-02-03T11:31:31Z</time>
      </trkpt>
      <trkpt lat="38.121983" lon="-6.846032">
        <ele>285.0</ele>
        <time>2009-02-03T11:31:48Z</time>
      </trkpt>
      <trkpt lat="38.121965" lon="-6.845860">
        <ele>292.6</ele>
        <time>2009-02-03T11:33:13Z</time>
      </trkpt>
      <trkpt lat="38.121811" lon="-6.845795">
        <ele>291.1</ele>
        <time>2009-02-03T11:33:31Z</time>
      </trkpt>
      <trkpt lat="38.121544" lon="-6.845695">
        <ele>290.8</ele>
        <time>2009-02-03T11:33:52Z</time>
      </trkpt>
      <trkpt lat="38.121410" lon="-6.845660">
        <ele>292.0</ele>
        <time>2009-02-03T11:34:09Z</time>
      </trkpt>
      <trkpt lat="38.121410" lon="-6.845660">
        <ele>292.6</ele>
        <time>2009-02-03T11:34:16Z</time>
      </trkpt>
      <trkpt lat="38.121343" lon="-6.845628">
        <ele>292.9</ele>
        <time>2009-02-03T11:34:21Z</time>
      </trkpt>
      <trkpt lat="38.121168" lon="-6.845476">
        <ele>294.7</ele>
        <time>2009-02-03T11:34:39Z</time>
      </trkpt>
      <trkpt lat="38.120948" lon="-6.845322">
        <ele>296.6</ele>
        <time>2009-02-03T11:35:00Z</time>
      </trkpt>
      <trkpt lat="38.120820" lon="-6.845087">
        <ele>297.8</ele>
        <time>2009-02-03T11:35:21Z</time>
      </trkpt>
      <trkpt lat="38.120783" lon="-6.844829">
        <ele>298.7</ele>
        <time>2009-02-03T11:35:40Z</time>
      </trkpt>
      <trkpt lat="38.120611" lon="-6.844563">
        <ele>302.7</ele>
        <time>2009-02-03T11:36:02Z</time>
      </trkpt>
      <trkpt lat="38.120531" lon="-6.844302">
        <ele>305.4</ele>
        <time>2009-02-03T11:36:23Z</time>
      </trkpt>
      <trkpt lat="38.120509" lon="-6.844273">
        <ele>306.6</ele>
        <time>2009-02-03T11:36:29Z</time>
      </trkpt>
      <trkpt lat="38.120429" lon="-6.843983">
        <ele>307.5</ele>
        <time>2009-02-03T11:36:53Z</time>
      </trkpt>
      <trkpt lat="38.120429" lon="-6.843983">
        <ele>307.5</ele>
        <time>2009-02-03T11:36:55Z</time>
      </trkpt>
      <trkpt lat="38.120398" lon="-6.843554">
        <ele>305.4</ele>
        <time>2009-02-03T11:37:19Z</time>
      </trkpt>
      <trkpt lat="38.120382" lon="-6.843325">
        <ele>304.5</ele>
        <time>2009-02-03T11:37:35Z</time>
      </trkpt>
      <trkpt lat="38.120406" lon="-6.843270">
        <ele>304.5</ele>
        <time>2009-02-03T11:37:40Z</time>
      </trkpt>
      <trkpt lat="38.120408" lon="-6.843213">
        <ele>304.5</ele>
        <time>2009-02-03T11:37:42Z</time>
      </trkpt>
      <trkpt lat="38.120388" lon="-6.843155">
        <ele>304.5</ele>
        <time>2009-02-03T11:37:47Z</time>
      </trkpt>
      <trkpt lat="38.120281" lon="-6.842978">
        <ele>307.2</ele>
        <time>2009-02-03T11:38:01Z</time>
      </trkpt>
      <trkpt lat="38.120260" lon="-6.842948">
        <ele>306.6</ele>
        <time>2009-02-03T11:38:06Z</time>
      </trkpt>
      <trkpt lat="38.120176" lon="-6.842716">
        <ele>309.4</ele>
        <time>2009-02-03T11:38:25Z</time>
      </trkpt>
      <trkpt lat="38.120177" lon="-6.842688">
        <ele>309.4</ele>
        <time>2009-02-03T11:38:27Z</time>
      </trkpt>
      <trkpt lat="38.120139" lon="-6.842515">
        <ele>311.5</ele>
        <time>2009-02-03T11:38:46Z</time>
      </trkpt>
      <trkpt lat="38.120117" lon="-6.842485">
        <ele>310.3</ele>
        <time>2009-02-03T11:39:04Z</time>
      </trkpt>
      <trkpt lat="38.120095" lon="-6.842455">
        <ele>314.2</ele>
        <time>2009-02-03T11:39:52Z</time>
      </trkpt>
      <trkpt lat="38.120075" lon="-6.842397">
        <ele>313.9</ele>
        <time>2009-02-03T11:40:05Z</time>
      </trkpt>
      <trkpt lat="38.120031" lon="-6.842338">
        <ele>314.2</ele>
        <time>2009-02-03T11:40:20Z</time>
      </trkpt>
      <trkpt lat="38.119955" lon="-6.841935">
        <ele>314.2</ele>
        <time>2009-02-03T11:40:43Z</time>
      </trkpt>
      <trkpt lat="38.119880" lon="-6.841475">
        <ele>316.1</ele>
        <time>2009-02-03T11:41:14Z</time>
      </trkpt>
      <trkpt lat="38.119870" lon="-6.841104">
        <ele>317.3</ele>
        <time>2009-02-03T11:41:37Z</time>
      </trkpt>
      <trkpt lat="38.119946" lon="-6.840823">
        <ele>318.2</ele>
        <time>2009-02-03T11:41:54Z</time>
      </trkpt>
      <trkpt lat="38.119915" lon="-6.840422">
        <ele>316.1</ele>
        <time>2009-02-03T11:42:17Z</time>
      </trkpt>
      <trkpt lat="38.119900" lon="-6.840193">
        <ele>315.2</ele>
        <time>2009-02-03T11:42:31Z</time>
      </trkpt>
      <trkpt lat="38.119902" lon="-6.840136">
        <ele>315.2</ele>
        <time>2009-02-03T11:42:38Z</time>
      </trkpt>
      <trkpt lat="38.119904" lon="-6.840051">
        <ele>314.2</ele>
        <time>2009-02-03T11:42:41Z</time>
      </trkpt>
      <trkpt lat="38.119916" lon="-6.839681">
        <ele>310.3</ele>
        <time>2009-02-03T11:43:02Z</time>
      </trkpt>
      <trkpt lat="38.119838" lon="-6.839306">
        <ele>309.4</ele>
        <time>2009-02-03T11:43:25Z</time>
      </trkpt>
      <trkpt lat="38.119751" lon="-6.839216">
        <ele>310.3</ele>
        <time>2009-02-03T11:43:34Z</time>
      </trkpt>
      <trkpt lat="38.119490" lon="-6.838917">
        <ele>309.4</ele>
        <time>2009-02-03T11:43:58Z</time>
      </trkpt>
      <trkpt lat="38.119431" lon="-6.838658">
        <ele>305.4</ele>
        <time>2009-02-03T11:44:14Z</time>
      </trkpt>
      <trkpt lat="38.119431" lon="-6.838658">
        <ele>305.4</ele>
        <time>2009-02-03T11:44:15Z</time>
      </trkpt>
      <trkpt lat="38.119390" lon="-6.838570">
        <ele>304.5</ele>
        <time>2009-02-03T11:44:22Z</time>
      </trkpt>
      <trkpt lat="38.119403" lon="-6.838143">
        <ele>299.6</ele>
        <time>2009-02-03T11:44:45Z</time>
      </trkpt>
      <trkpt lat="38.119502" lon="-6.837892">
        <ele>297.8</ele>
        <time>2009-02-03T11:45:04Z</time>
      </trkpt>
      <trkpt lat="38.119668" lon="-6.837644">
        <ele>295.7</ele>
        <time>2009-02-03T11:45:23Z</time>
      </trkpt>
      <trkpt lat="38.119647" lon="-6.837586">
        <ele>295.7</ele>
        <time>2009-02-03T11:45:27Z</time>
      </trkpt>
      <trkpt lat="38.119625" lon="-6.837585">
        <ele>295.7</ele>
        <time>2009-02-03T11:45:32Z</time>
      </trkpt>
      <trkpt lat="38.119424" lon="-6.837517">
        <ele>296.6</ele>
        <time>2009-02-03T11:45:48Z</time>
      </trkpt>
      <trkpt lat="38.119184" lon="-6.837305">
        <ele>294.7</ele>
        <time>2009-02-03T11:46:09Z</time>
      </trkpt>
      <trkpt lat="38.119011" lon="-6.837068">
        <ele>292.9</ele>
        <time>2009-02-03T11:46:28Z</time>
      </trkpt>
      <trkpt lat="38.118858" lon="-6.836889">
        <ele>291.1</ele>
        <time>2009-02-03T10:53:05Z</time>
      </trkpt>
      <trkpt lat="38.118753" lon="-6.836684">
        <ele>289.9</ele>
        <time>2009-02-03T10:53:05Z</time>
      </trkpt>
      <trkpt lat="38.118873" lon="-6.836462">
        <ele>289.0</ele>
        <time>2009-02-03T11:47:18Z</time>
      </trkpt>
      <trkpt lat="38.119058" lon="-6.836301">
        <ele>288.0</ele>
        <time>2009-02-03T10:49:58Z</time>
      </trkpt>
      <trkpt lat="38.119108" lon="-6.836161">
        <ele>288.0</ele>
        <time>2009-02-03T10:49:58Z</time>
      </trkpt>
      <trkpt lat="38.118916" lon="-6.835809">
        <ele>287.1</ele>
        <time>2009-02-03T11:48:14Z</time>
      </trkpt>
      <trkpt lat="38.118765" lon="-6.835630">
        <ele>285.0</ele>
        <time>2009-02-03T11:48:33Z</time>
      </trkpt>
      <trkpt lat="38.118772" lon="-6.835402">
        <ele>284.1</ele>
        <time>2009-02-03T11:48:47Z</time>
      </trkpt>
      <trkpt lat="38.118830" lon="-6.835006">
        <ele>281.0</ele>
        <time>2009-02-03T11:49:10Z</time>
      </trkpt>
      <trkpt lat="38.118860" lon="-6.834780">
        <ele>280.1</ele>
        <time>2009-02-03T11:49:31Z</time>
      </trkpt>
      <trkpt lat="38.118864" lon="-6.834694">
        <ele>279.2</ele>
        <time>2009-02-03T11:50:00Z</time>
      </trkpt>
      <trkpt lat="38.118866" lon="-6.834609">
        <ele>281.3</ele>
        <time>2009-02-03T11:50:28Z</time>
      </trkpt>
      <trkpt lat="38.118893" lon="-6.834496">
        <ele>285.0</ele>
        <time>2009-02-03T11:50:56Z</time>
      </trkpt>
      <trkpt lat="38.118896" lon="-6.834382">
        <ele>283.2</ele>
        <time>2009-02-03T11:51:27Z</time>
      </trkpt>
      <trkpt lat="38.118927" lon="-6.834128">
        <ele>283.2</ele>
        <time>2009-02-03T11:51:45Z</time>
      </trkpt>
      <trkpt lat="38.118940" lon="-6.833701">
        <ele>282.2</ele>
        <time>2009-02-03T11:52:11Z</time>
      </trkpt>
      <trkpt lat="38.118905" lon="-6.833414">
        <ele>280.1</ele>
        <time>2009-02-03T11:52:32Z</time>
      </trkpt>
      <trkpt lat="38.118872" lon="-6.833070">
        <ele>280.1</ele>
        <time>2009-02-03T11:52:53Z</time>
      </trkpt>
      <trkpt lat="38.118860" lon="-6.832699">
        <ele>278.3</ele>
        <time>2009-02-03T11:04:06Z</time>
      </trkpt>
      <trkpt lat="38.118848" lon="-6.832412">
        <ele>277.4</ele>
        <time>2009-02-03T11:53:36Z</time>
      </trkpt>
      <trkpt lat="38.118853" lon="-6.832213">
        <ele>276.5</ele>
        <time>2009-02-03T11:53:52Z</time>
      </trkpt>
      <trkpt lat="38.118839" lon="-6.831985">
        <ele>275.5</ele>
        <time>2009-02-03T11:54:09Z</time>
      </trkpt>
      <trkpt lat="38.118839" lon="-6.831985">
        <ele>276.5</ele>
        <time>2009-02-03T11:54:23Z</time>
      </trkpt>
      <trkpt lat="38.118842" lon="-6.831900">
        <ele>276.5</ele>
        <time>2009-02-03T11:54:41Z</time>
      </trkpt>
      <trkpt lat="38.118872" lon="-6.831672">
        <ele>273.7</ele>
        <time>2009-02-07T12:54:47Z</time>
      </trkpt>
      <trkpt lat="38.118876" lon="-6.831558">
        <ele>273.7</ele>
        <time>2009-02-07T12:56:00Z</time>
      </trkpt>
      <trkpt lat="38.118928" lon="-6.831333">
        <ele>275.5</ele>
        <time>2009-02-07T10:03:00Z</time>
      </trkpt>
      <trkpt lat="38.119071" lon="-6.831113">
        <ele>277.4</ele>
        <time>2009-02-07T10:03:00Z</time>
      </trkpt>
      <trkpt lat="38.119213" lon="-6.830893">
        <ele>279.5</ele>
        <time>2009-02-07T10:03:00Z</time>
      </trkpt>
      <trkpt lat="38.119353" lon="-6.830728">
        <ele>281.3</ele>
        <time>2009-02-07T10:03:00Z</time>
      </trkpt>
      <trkpt lat="38.119448" lon="-6.830591">
        <ele>282.2</ele>
        <time>2009-02-07T10:03:00Z</time>
      </trkpt>
      <trkpt lat="38.119452" lon="-6.830477">
        <ele>283.2</ele>
        <time>2009-02-07T13:01:01Z</time>
      </trkpt>
      <trkpt lat="38.119432" lon="-6.830362">
        <ele>283.5</ele>
        <time>2009-02-07T11:39:40Z</time>
      </trkpt>
      <trkpt lat="38.119374" lon="-6.830074">
        <ele>285.0</ele>
        <time>2009-02-07T11:39:40Z</time>
      </trkpt>
      <trkpt lat="38.119341" lon="-6.829701">
        <ele>287.1</ele>
        <time>2009-02-07T11:39:40Z</time>
      </trkpt>
      <trkpt lat="38.119312" lon="-6.829215">
        <ele>289.9</ele>
        <time>2009-02-07T11:39:40Z</time>
      </trkpt>
      <trkpt lat="38.119311" lon="-6.828588">
        <ele>292.9</ele>
        <time>2009-02-07T11:39:40Z</time>
      </trkpt>
      <trkpt lat="38.119519" lon="-6.828371">
        <ele>294.1</ele>
        <time>2009-02-07T11:39:40Z</time>
      </trkpt>
      <trkpt lat="38.119754" lon="-6.828127">
        <ele>295.7</ele>
        <time>2009-02-07T13:05:10Z</time>
      </trkpt>
      <trkpt lat="38.119899" lon="-6.827821">
        <ele>296.9</ele>
        <time>2009-02-07T11:44:01Z</time>
      </trkpt>
      <trkpt lat="38.120111" lon="-6.827518">
        <ele>297.8</ele>
        <time>2009-02-07T11:44:01Z</time>
      </trkpt>
      <trkpt lat="38.120115" lon="-6.827404">
        <ele>298.4</ele>
        <time>2009-02-07T11:44:01Z</time>
      </trkpt>
      <trkpt lat="38.120071" lon="-6.827374">
        <ele>298.4</ele>
        <time>2009-02-07T11:44:01Z</time>
      </trkpt>
      <trkpt lat="38.119847" lon="-6.827333">
        <ele>298.7</ele>
        <time>2009-02-07T13:06:30Z</time>
      </trkpt>
      <trkpt lat="38.119555" lon="-6.827318">
        <ele>299.0</ele>
        <time>2009-02-07T13:06:53Z</time>
      </trkpt>
      <trkpt lat="38.119154" lon="-6.827183">
        <ele>300.5</ele>
        <time>2009-02-07T13:07:21Z</time>
      </trkpt>
      <trkpt lat="38.118909" lon="-6.827056">
        <ele>302.4</ele>
        <time>2009-02-07T13:07:42Z</time>
      </trkpt>
      <trkpt lat="38.118714" lon="-6.826818">
        <ele>304.8</ele>
        <time>2009-02-07T12:00:21Z</time>
      </trkpt>
      <trkpt lat="38.118636" lon="-6.826444">
        <ele>308.5</ele>
        <time>2009-02-07T12:00:21Z</time>
      </trkpt>
      <trkpt lat="38.118718" lon="-6.826020">
        <ele>311.5</ele>
        <time>2009-02-07T12:00:21Z</time>
      </trkpt>
      <trkpt lat="38.118884" lon="-6.825745">
        <ele>314.2</ele>
        <time>2009-02-07T12:00:21Z</time>
      </trkpt>
      <trkpt lat="38.119029" lon="-6.825438">
        <ele>317.3</ele>
        <time>2009-02-07T13:09:51Z</time>
      </trkpt>
      <trkpt lat="38.119077" lon="-6.825355">
        <ele>316.4</ele>
        <time>2009-02-07T13:10:08Z</time>
      </trkpt>
      <trkpt lat="38.119175" lon="-6.825132">
        <ele>322.2</ele>
        <time>2009-02-07T13:11:23Z</time>
      </trkpt>
      <trkpt lat="38.119225" lon="-6.824964">
        <ele>323.1</ele>
        <time>2009-02-07T13:11:42Z</time>
      </trkpt>
      <trkpt lat="38.119207" lon="-6.824820">
        <ele>323.1</ele>
        <time>2009-02-07T10:08:28Z</time>
      </trkpt>
      <trkpt lat="38.119099" lon="-6.824672">
        <ele>324.0</ele>
        <time>2009-02-07T13:12:52Z</time>
      </trkpt>
      <trkpt lat="38.118794" lon="-6.824371">
        <ele>324.0</ele>
        <time>2009-02-07T13:13:21Z</time>
      </trkpt>
      <trkpt lat="38.118489" lon="-6.824070">
        <ele>324.0</ele>
        <time>2009-02-07T13:13:49Z</time>
      </trkpt>
      <trkpt lat="38.118445" lon="-6.824011">
        <ele>324.0</ele>
        <time>2009-02-07T13:14:07Z</time>
      </trkpt>
      <trkpt lat="38.118271" lon="-6.823831">
        <ele>327.1</ele>
        <time>2009-02-07T13:14:26Z</time>
      </trkpt>
      <trkpt lat="38.118271" lon="-6.823831">
        <ele>327.1</ele>
        <time>2009-02-07T13:14:28Z</time>
      </trkpt>
      <trkpt lat="38.118227" lon="-6.823800">
        <ele>328.0</ele>
        <time>2009-02-07T13:14:33Z</time>
      </trkpt>
      <trkpt lat="38.118033" lon="-6.823533">
        <ele>332.8</ele>
        <time>2009-02-07T13:14:55Z</time>
      </trkpt>
      <trkpt lat="38.117889" lon="-6.823127">
        <ele>336.5</ele>
        <time>2009-02-07T13:15:22Z</time>
      </trkpt>
      <trkpt lat="38.117675" lon="-6.822773">
        <ele>340.5</ele>
        <time>2009-02-07T13:15:49Z</time>
      </trkpt>
      <trkpt lat="38.117435" lon="-6.822533">
        <ele>341.4</ele>
        <time>2009-02-07T13:16:12Z</time>
      </trkpt>
      <trkpt lat="38.117193" lon="-6.822350">
        <ele>341.4</ele>
        <time>2009-02-07T13:16:33Z</time>
      </trkpt>
      <trkpt lat="38.116931" lon="-6.822107">
        <ele>344.1</ele>
        <time>2009-02-07T13:16:59Z</time>
      </trkpt>
      <trkpt lat="38.116670" lon="-6.821837">
        <ele>347.2</ele>
        <time>2009-02-07T13:17:24Z</time>
      </trkpt>
      <trkpt lat="38.116409" lon="-6.821539">
        <ele>350.5</ele>
        <time>2009-02-07T13:17:48Z</time>
      </trkpt>
      <trkpt lat="38.116195" lon="-6.821214">
        <ele>354.2</ele>
        <time>2009-02-07T13:18:12Z</time>
      </trkpt>
      <trkpt lat="38.115979" lon="-6.820918">
        <ele>358.1</ele>
        <time>2009-02-07T13:18:37Z</time>
      </trkpt>
      <trkpt lat="38.115936" lon="-6.820858">
        <ele>355.1</ele>
        <time>2009-02-07T13:19:05Z</time>
      </trkpt>
      <trkpt lat="38.115936" lon="-6.820858">
        <ele>355.1</ele>
        <time>2009-02-07T13:19:06Z</time>
      </trkpt>
      <trkpt lat="38.115893" lon="-6.820799">
        <ele>368.8</ele>
        <time>2009-02-07T13:23:00Z</time>
      </trkpt>
      <trkpt lat="38.115714" lon="-6.820761">
        <ele>359.1</ele>
        <time>2009-02-07T13:23:52Z</time>
      </trkpt>
      <trkpt lat="38.115446" lon="-6.820690">
        <ele>356.3</ele>
        <time>2009-02-07T13:24:15Z</time>
      </trkpt>
      <trkpt lat="38.115020" lon="-6.820640">
        <ele>356.9</ele>
        <time>2009-02-07T13:24:42Z</time>
      </trkpt>
      <trkpt lat="38.114683" lon="-6.820622">
        <ele>358.1</ele>
        <time>2009-02-07T13:25:07Z</time>
      </trkpt>
      <trkpt lat="38.114369" lon="-6.820577">
        <ele>360.3</ele>
        <time>2009-02-07T13:25:30Z</time>
      </trkpt>
      <trkpt lat="38.114280" lon="-6.820544">
        <ele>361.8</ele>
        <time>2009-02-07T13:25:42Z</time>
      </trkpt>
      <trkpt lat="38.114043" lon="-6.820218">
        <ele>367.6</ele>
        <time>2009-02-07T13:26:08Z</time>
      </trkpt>
      <trkpt lat="38.113978" lon="-6.820129">
        <ele>368.8</ele>
        <time>2009-02-07T13:26:18Z</time>
      </trkpt>
      <trkpt lat="38.113804" lon="-6.819949">
        <ele>371.6</ele>
        <time>2009-02-07T13:26:36Z</time>
      </trkpt>
      <trkpt lat="38.113719" lon="-6.819774">
        <ele>370.6</ele>
        <time>2009-02-07T13:26:50Z</time>
      </trkpt>
      <trkpt lat="38.113519" lon="-6.819706">
        <ele>368.8</ele>
        <time>2009-02-07T13:27:05Z</time>
      </trkpt>
      <trkpt lat="38.113451" lon="-6.819703">
        <ele>368.8</ele>
        <time>2009-02-07T13:27:09Z</time>
      </trkpt>
      <trkpt lat="38.113361" lon="-6.819726">
        <ele>367.6</ele>
        <time>2009-02-07T13:27:23Z</time>
      </trkpt>
      <trkpt lat="38.113110" lon="-6.819799">
        <ele>367.9</ele>
        <time>2009-02-07T13:27:42Z</time>
      </trkpt>
      <trkpt lat="38.112817" lon="-6.819812">
        <ele>367.6</ele>
        <time>2009-02-07T13:28:03Z</time>
      </trkpt>
      <trkpt lat="38.112525" lon="-6.819797">
        <ele>367.9</ele>
        <time>2009-02-07T12:09:10Z</time>
      </trkpt>
      <trkpt lat="38.112328" lon="-6.819616">
        <ele>368.8</ele>
        <time>2009-02-07T12:09:10Z</time>
      </trkpt>
      <trkpt lat="38.112159" lon="-6.819293">
        <ele>369.4</ele>
        <time>2009-02-07T12:09:10Z</time>
      </trkpt>
      <trkpt lat="38.112059" lon="-6.818889">
        <ele>369.7</ele>
        <time>2009-02-07T13:29:42Z</time>
      </trkpt>
      <trkpt lat="38.111772" lon="-6.818703">
        <ele>372.8</ele>
        <time>2009-02-07T13:30:05Z</time>
      </trkpt>
      <trkpt lat="38.111728" lon="-6.818701">
        <ele>372.8</ele>
        <time>2009-02-07T13:30:08Z</time>
      </trkpt>
      <trkpt lat="38.111645" lon="-6.818468">
        <ele>372.5</ele>
        <time>2009-02-07T13:30:29Z</time>
      </trkpt>
      <trkpt lat="38.111516" lon="-6.818291">
        <ele>373.4</ele>
        <time>2009-02-07T13:30:48Z</time>
      </trkpt>
      <trkpt lat="38.111207" lon="-6.818075">
        <ele>375.5</ele>
        <time>2009-02-07T13:31:13Z</time>
      </trkpt>
      <trkpt lat="38.110918" lon="-6.817974">
        <ele>378.3</ele>
        <time>2009-02-07T13:31:34Z</time>
      </trkpt>
      <trkpt lat="38.110719" lon="-6.817850">
        <ele>380.1</ele>
        <time>2009-02-07T13:31:49Z</time>
      </trkpt>
      <trkpt lat="38.110551" lon="-6.817499">
        <ele>383.1</ele>
        <time>2009-02-07T11:52:13Z</time>
      </trkpt>
      <trkpt lat="38.110398" lon="-6.817349">
        <ele>385.3</ele>
        <time>2009-02-07T11:52:13Z</time>
      </trkpt>
      <trkpt lat="38.110242" lon="-6.817284">
        <ele>387.1</ele>
        <time>2009-02-07T11:52:13Z</time>
      </trkpt>
      <trkpt lat="38.110059" lon="-6.817388">
        <ele>388.9</ele>
        <time>2009-02-07T13:33:15Z</time>
      </trkpt>
      <trkpt lat="38.109833" lon="-6.817405">
        <ele>389.2</ele>
        <time>2009-02-07T13:33:34Z</time>
      </trkpt>
      <trkpt lat="38.109722" lon="-6.817342">
        <ele>390.1</ele>
        <time>2009-02-07T10:13:42Z</time>
      </trkpt>
      <trkpt lat="38.109572" lon="-6.817106">
        <ele>391.4</ele>
        <time>2009-02-07T13:34:54Z</time>
      </trkpt>
      <trkpt lat="38.109308" lon="-6.816922">
        <ele>391.1</ele>
        <time>2009-02-07T13:35:15Z</time>
      </trkpt>
      <trkpt lat="38.109048" lon="-6.816623">
        <ele>392.9</ele>
        <time>2009-02-07T13:35:39Z</time>
      </trkpt>
      <trkpt lat="38.109015" lon="-6.816251">
        <ele>393.8</ele>
        <time>2009-02-07T13:36:00Z</time>
      </trkpt>
      <trkpt lat="38.108939" lon="-6.815819">
        <ele>392.9</ele>
        <time>2009-02-07T13:36:24Z</time>
      </trkpt>
      <trkpt lat="38.108768" lon="-6.815525">
        <ele>392.0</ele>
        <time>2009-02-07T13:36:44Z</time>
      </trkpt>
      <trkpt lat="38.108508" lon="-6.815227">
        <ele>392.3</ele>
        <time>2009-02-07T13:37:06Z</time>
      </trkpt>
      <trkpt lat="38.108206" lon="-6.814812">
        <ele>392.3</ele>
        <time>2009-02-07T13:37:34Z</time>
      </trkpt>
      <trkpt lat="38.107926" lon="-6.814427">
        <ele>392.9</ele>
        <time>2009-02-07T13:38:00Z</time>
      </trkpt>
      <trkpt lat="38.107665" lon="-6.814128">
        <ele>394.1</ele>
        <time>2009-02-07T13:38:23Z</time>
      </trkpt>
      <trkpt lat="38.107424" lon="-6.813916">
        <ele>392.9</ele>
        <time>2009-02-07T13:38:42Z</time>
      </trkpt>
      <trkpt lat="38.107293" lon="-6.813795">
        <ele>391.4</ele>
        <time>2009-02-07T13:39:01Z</time>
      </trkpt>
      <trkpt lat="38.107204" lon="-6.813762">
        <ele>394.1</ele>
        <time>2009-02-07T13:39:17Z</time>
      </trkpt>
      <trkpt lat="38.107160" lon="-6.813732">
        <ele>395.9</ele>
        <time>2009-02-07T13:39:31Z</time>
      </trkpt>
      <trkpt lat="38.107072" lon="-6.813670">
        <ele>394.1</ele>
        <time>2009-02-07T13:40:02Z</time>
      </trkpt>
      <trkpt lat="38.106874" lon="-6.813517">
        <ele>392.3</ele>
        <time>2009-02-07T13:40:21Z</time>
      </trkpt>
      <trkpt lat="38.106701" lon="-6.813309">
        <ele>391.4</ele>
        <time>2009-02-07T13:40:42Z</time>
      </trkpt>
      <trkpt lat="38.106530" lon="-6.813015">
        <ele>387.1</ele>
        <time>2009-02-07T13:41:05Z</time>
      </trkpt>
      <trkpt lat="38.106242" lon="-6.812886">
        <ele>386.5</ele>
        <time>2009-02-07T13:41:28Z</time>
      </trkpt>
      <trkpt lat="38.105974" lon="-6.812815">
        <ele>386.2</ele>
        <time>2009-02-07T13:41:47Z</time>
      </trkpt>
      <trkpt lat="38.105849" lon="-6.812495">
        <ele>383.1</ele>
        <time>2009-02-07T13:42:09Z</time>
      </trkpt>
      <trkpt lat="38.105724" lon="-6.812175">
        <ele>381.3</ele>
        <time>2009-02-07T13:42:27Z</time>
      </trkpt>
      <trkpt lat="38.105597" lon="-6.811940">
        <ele>380.1</ele>
        <time>2009-02-07T13:42:46Z</time>
      </trkpt>
      <trkpt lat="38.105355" lon="-6.811757">
        <ele>378.6</ele>
        <time>2009-02-07T13:43:07Z</time>
      </trkpt>
      <trkpt lat="38.105113" lon="-6.811573">
        <ele>374.6</ele>
        <time>2009-02-07T13:43:26Z</time>
      </trkpt>
      <trkpt lat="38.104943" lon="-6.811279">
        <ele>372.8</ele>
        <time>2009-02-07T12:31:31Z</time>
      </trkpt>
      <trkpt lat="38.104798" lon="-6.810873">
        <ele>370.9</ele>
        <time>2009-02-07T12:31:31Z</time>
      </trkpt>
      <trkpt lat="38.104834" lon="-6.810476">
        <ele>369.7</ele>
        <time>2009-02-07T13:44:30Z</time>
      </trkpt>
      <trkpt lat="38.104933" lon="-6.810196">
        <ele>367.6</ele>
        <time>2009-02-07T13:44:50Z</time>
      </trkpt>
      <trkpt lat="38.104933" lon="-6.810196">
        <ele>370.6</ele>
        <time>2009-02-07T13:45:07Z</time>
      </trkpt>
      <trkpt lat="38.104933" lon="-6.810196">
        <ele>370.6</ele>
        <time>2009-02-07T13:45:21Z</time>
      </trkpt>
      <trkpt lat="38.104983" lon="-6.810027">
        <ele>369.7</ele>
        <time>2009-02-07T13:45:35Z</time>
      </trkpt>
      <trkpt lat="38.105015" lon="-6.809744">
        <ele>368.8</ele>
        <time>2009-02-07T13:46:41Z</time>
      </trkpt>
      <trkpt lat="38.104996" lon="-6.809629">
        <ele>371.6</ele>
        <time>2009-02-07T13:47:16Z</time>
      </trkpt>
      <trkpt lat="38.104815" lon="-6.809677">
        <ele>367.6</ele>
        <time>2009-02-07T13:47:33Z</time>
      </trkpt>
      <trkpt lat="38.104673" lon="-6.809869">
        <ele>366.1</ele>
        <time>2009-02-07T13:47:49Z</time>
      </trkpt>
      <trkpt lat="38.104444" lon="-6.809999">
        <ele>361.2</ele>
        <time>2009-02-07T13:48:08Z</time>
      </trkpt>
      <trkpt lat="38.104124" lon="-6.810154">
        <ele>358.1</ele>
        <time>2009-02-07T13:48:33Z</time>
      </trkpt>
      <trkpt lat="38.103811" lon="-6.810080">
        <ele>354.8</ele>
        <time>2009-02-07T13:48:55Z</time>
      </trkpt>
      <trkpt lat="38.103635" lon="-6.809929">
        <ele>352.3</ele>
        <time>2009-02-07T13:49:16Z</time>
      </trkpt>
      <trkpt lat="38.103550" lon="-6.809782">
        <ele>352.3</ele>
        <time>2009-02-07T13:49:30Z</time>
      </trkpt>
      <trkpt lat="38.103235" lon="-6.809765">
        <ele>356.0</ele>
        <time>2009-02-07T13:49:53Z</time>
      </trkpt>
      <trkpt lat="38.103016" lon="-6.809583">
        <ele>358.1</ele>
        <time>2009-02-07T13:50:12Z</time>
      </trkpt>
      <trkpt lat="38.102930" lon="-6.809465">
        <ele>359.7</ele>
        <time>2009-02-07T13:50:26Z</time>
      </trkpt>
      <trkpt lat="38.102757" lon="-6.809228">
        <ele>358.1</ele>
        <time>2009-02-07T13:50:48Z</time>
      </trkpt>
      <trkpt lat="38.102587" lon="-6.808934">
        <ele>356.0</ele>
        <time>2009-02-07T13:51:09Z</time>
      </trkpt>
      <trkpt lat="38.102416" lon="-6.808640">
        <ele>354.8</ele>
        <time>2009-02-07T13:51:32Z</time>
      </trkpt>
      <trkpt lat="38.102330" lon="-6.808521">
        <ele>353.3</ele>
        <time>2009-02-07T13:51:49Z</time>
      </trkpt>
      <trkpt lat="38.102330" lon="-6.808521">
        <ele>350.5</ele>
        <time>2009-02-07T14:27:16Z</time>
      </trkpt>
      <trkpt lat="38.102287" lon="-6.808462">
        <ele>352.0</ele>
        <time>2009-02-07T14:27:30Z</time>
      </trkpt>
      <trkpt lat="38.102199" lon="-6.808401">
        <ele>353.3</ele>
        <time>2009-02-07T14:27:44Z</time>
      </trkpt>
      <trkpt lat="38.102019" lon="-6.808391">
        <ele>359.1</ele>
        <time>2009-02-07T14:28:12Z</time>
      </trkpt>
      <trkpt lat="38.101753" lon="-6.808263">
        <ele>362.1</ele>
        <time>2009-02-07T14:28:36Z</time>
      </trkpt>
      <trkpt lat="38.101626" lon="-6.808000">
        <ele>363.0</ele>
        <time>2009-02-07T14:28:57Z</time>
      </trkpt>
      <trkpt lat="38.101570" lon="-6.807656">
        <ele>366.7</ele>
        <time>2009-02-07T14:29:20Z</time>
      </trkpt>
      <trkpt lat="38.101485" lon="-6.807509">
        <ele>370.6</ele>
        <time>2009-02-07T14:29:39Z</time>
      </trkpt>
      <trkpt lat="38.101464" lon="-6.807451">
        <ele>369.7</ele>
        <time>2009-02-07T14:29:46Z</time>
      </trkpt>
      <trkpt lat="38.101241" lon="-6.807382">
        <ele>370.6</ele>
        <time>2009-02-07T12:51:49Z</time>
      </trkpt>
      <trkpt lat="38.101019" lon="-6.807285">
        <ele>371.6</ele>
        <time>2009-02-07T14:30:28Z</time>
      </trkpt>
      <trkpt lat="38.100732" lon="-6.807099">
        <ele>374.6</ele>
        <time>2009-02-07T14:30:54Z</time>
      </trkpt>
      <trkpt lat="38.100535" lon="-6.806918">
        <ele>376.4</ele>
        <time>2009-02-07T14:31:15Z</time>
      </trkpt>
      <trkpt lat="38.100317" lon="-6.806707">
        <ele>378.3</ele>
        <time>2009-02-07T14:31:36Z</time>
      </trkpt>
      <trkpt lat="38.100187" lon="-6.806558">
        <ele>377.3</ele>
        <time>2009-02-07T14:31:50Z</time>
      </trkpt>
      <trkpt lat="38.100013" lon="-6.806349">
        <ele>377.3</ele>
        <time>2009-02-07T14:32:30Z</time>
      </trkpt>
      <trkpt lat="38.099704" lon="-6.806162">
        <ele>376.4</ele>
        <time>2009-02-07T14:32:56Z</time>
      </trkpt>
      <trkpt lat="38.099417" lon="-6.805976">
        <ele>378.3</ele>
        <time>2009-02-07T14:33:20Z</time>
      </trkpt>
      <trkpt lat="38.099352" lon="-6.805916">
        <ele>378.6</ele>
        <time>2009-02-07T14:33:26Z</time>
      </trkpt>
      <trkpt lat="38.099089" lon="-6.805674">
        <ele>378.3</ele>
        <time>2009-02-07T14:33:50Z</time>
      </trkpt>
      <trkpt lat="38.098984" lon="-6.805441">
        <ele>378.6</ele>
        <time>2009-02-07T13:11:01Z</time>
      </trkpt>
      <trkpt lat="38.098980" lon="-6.804871">
        <ele>378.6</ele>
        <time>2009-02-07T14:34:37Z</time>
      </trkpt>
      <trkpt lat="38.098837" lon="-6.804436">
        <ele>379.2</ele>
        <time>2009-02-07T14:35:03Z</time>
      </trkpt>
      <trkpt lat="38.098691" lon="-6.804058">
        <ele>380.4</ele>
        <time>2009-02-07T14:35:26Z</time>
      </trkpt>
      <trkpt lat="38.098588" lon="-6.803767">
        <ele>382.2</ele>
        <time>2009-02-07T14:35:45Z</time>
      </trkpt>
      <trkpt lat="38.098462" lon="-6.803504">
        <ele>386.2</ele>
        <time>2009-02-07T14:36:04Z</time>
      </trkpt>
      <trkpt lat="38.098248" lon="-6.803151">
        <ele>388.9</ele>
        <time>2009-02-07T13:00:49Z</time>
      </trkpt>
      <trkpt lat="38.098094" lon="-6.803029">
        <ele>390.1</ele>
        <time>2009-02-07T13:00:49Z</time>
      </trkpt>
      <trkpt lat="38.097780" lon="-6.803013">
        <ele>392.0</ele>
        <time>2009-02-07T14:37:07Z</time>
      </trkpt>
      <trkpt lat="38.097580" lon="-6.802917">
        <ele>392.3</ele>
        <time>2009-02-07T14:37:23Z</time>
      </trkpt>
      <trkpt lat="38.097411" lon="-6.802567">
        <ele>394.1</ele>
        <time>2009-02-07T14:37:43Z</time>
      </trkpt>
      <trkpt lat="38.097280" lon="-6.802446">
        <ele>394.1</ele>
        <time>2009-02-07T12:01:02Z</time>
      </trkpt>
      <trkpt lat="38.097078" lon="-6.802435">
        <ele>394.7</ele>
        <time>2009-02-07T12:01:02Z</time>
      </trkpt>
      <trkpt lat="38.096855" lon="-6.802367">
        <ele>395.0</ele>
        <time>2009-02-07T14:38:58Z</time>
      </trkpt>
      <trkpt lat="38.096727" lon="-6.802132">
        <ele>393.8</ele>
        <time>2009-02-07T14:39:18Z</time>
      </trkpt>
      <trkpt lat="38.096643" lon="-6.801957">
        <ele>392.9</ele>
        <time>2009-02-07T14:39:37Z</time>
      </trkpt>
      <trkpt lat="38.096600" lon="-6.801898">
        <ele>392.3</ele>
        <time>2009-02-07T14:39:56Z</time>
      </trkpt>
      <trkpt lat="38.096515" lon="-6.801722">
        <ele>398.1</ele>
        <time>2009-02-07T14:41:16Z</time>
      </trkpt>
      <trkpt lat="38.096431" lon="-6.801547">
        <ele>397.2</ele>
        <time>2009-02-07T14:41:54Z</time>
      </trkpt>
      <trkpt lat="38.096346" lon="-6.801371">
        <ele>397.2</ele>
        <time>2009-02-07T14:42:31Z</time>
      </trkpt>
      <trkpt lat="38.096218" lon="-6.801165">
        <ele>397.8</ele>
        <time>2009-02-07T12:53:09Z</time>
      </trkpt>
      <trkpt lat="38.096072" lon="-6.800816">
        <ele>397.8</ele>
        <time>2009-02-07T12:53:09Z</time>
      </trkpt>
      <trkpt lat="38.096029" lon="-6.800728">
        <ele>397.8</ele>
        <time>2009-02-07T14:43:25Z</time>
      </trkpt>
      <trkpt lat="38.095885" lon="-6.800322">
        <ele>396.8</ele>
        <time>2009-02-07T14:43:49Z</time>
      </trkpt>
      <trkpt lat="38.095718" lon="-6.799914">
        <ele>397.2</ele>
        <time>2009-02-07T14:44:14Z</time>
      </trkpt>
      <trkpt lat="38.095504" lon="-6.799561">
        <ele>397.8</ele>
        <time>2009-02-07T14:44:35Z</time>
      </trkpt>
      <trkpt lat="38.095287" lon="-6.799322">
        <ele>398.1</ele>
        <time>2009-02-07T14:44:54Z</time>
      </trkpt>
      <trkpt lat="38.094955" lon="-6.799134">
        <ele>399.0</ele>
        <time>2009-02-07T14:45:20Z</time>
      </trkpt>
      <trkpt lat="38.094625" lon="-6.798889">
        <ele>401.7</ele>
        <time>2009-02-07T14:45:46Z</time>
      </trkpt>
      <trkpt lat="38.094360" lon="-6.798732">
        <ele>403.6</ele>
        <time>2009-02-07T13:00:01Z</time>
      </trkpt>
      <trkpt lat="38.093956" lon="-6.798683">
        <ele>406.6</ele>
        <time>2009-02-07T14:46:43Z</time>
      </trkpt>
      <trkpt lat="38.093956" lon="-6.798683">
        <ele>407.8</ele>
        <time>2009-02-07T14:46:56Z</time>
      </trkpt>
      <trkpt lat="38.093798" lon="-6.798703">
        <ele>408.4</ele>
        <time>2009-02-07T14:47:10Z</time>
      </trkpt>
      <trkpt lat="38.093555" lon="-6.798548">
        <ele>411.5</ele>
        <time>2009-02-07T14:47:32Z</time>
      </trkpt>
      <trkpt lat="38.093136" lon="-6.798298">
        <ele>413.3</ele>
        <time>2009-02-07T14:48:02Z</time>
      </trkpt>
      <trkpt lat="38.092892" lon="-6.798172">
        <ele>414.5</ele>
        <time>2009-02-07T14:48:21Z</time>
      </trkpt>
      <trkpt lat="38.092760" lon="-6.798080">
        <ele>414.2</ele>
        <time>2009-02-07T14:48:42Z</time>
      </trkpt>
      <trkpt lat="38.092540" lon="-6.797926">
        <ele>418.2</ele>
        <time>2009-02-07T14:49:03Z</time>
      </trkpt>
      <trkpt lat="38.092277" lon="-6.797684">
        <ele>418.2</ele>
        <time>2009-02-07T14:49:27Z</time>
      </trkpt>
      <trkpt lat="38.092170" lon="-6.797508">
        <ele>420.9</ele>
        <time>2009-02-07T14:49:41Z</time>
      </trkpt>
      <trkpt lat="38.092026" lon="-6.797101">
        <ele>423.1</ele>
        <time>2009-02-07T14:50:09Z</time>
      </trkpt>
      <trkpt lat="38.091902" lon="-6.796753">
        <ele>424.0</ele>
        <time>2009-02-07T14:50:33Z</time>
      </trkpt>
      <trkpt lat="38.091757" lon="-6.796346">
        <ele>426.7</ele>
        <time>2009-02-07T14:51:01Z</time>
      </trkpt>
      <trkpt lat="38.091679" lon="-6.795972">
        <ele>428.9</ele>
        <time>2009-02-07T14:51:27Z</time>
      </trkpt>
      <trkpt lat="38.091624" lon="-6.795599">
        <ele>430.7</ele>
        <time>2009-02-07T14:51:54Z</time>
      </trkpt>
      <trkpt lat="38.091456" lon="-6.795220">
        <ele>432.2</ele>
        <time>2009-02-07T14:52:20Z</time>
      </trkpt>
      <trkpt lat="38.091238" lon="-6.795009">
        <ele>435.9</ele>
        <time>2009-02-07T14:52:44Z</time>
      </trkpt>
      <trkpt lat="38.090976" lon="-6.794739">
        <ele>436.8</ele>
        <time>2009-02-07T14:53:10Z</time>
      </trkpt>
      <trkpt lat="38.090855" lon="-6.794305">
        <ele>438.6</ele>
        <time>2009-02-07T14:53:38Z</time>
      </trkpt>
      <trkpt lat="38.090755" lon="-6.793929">
        <ele>438.0</ele>
        <time>2009-02-07T14:54:02Z</time>
      </trkpt>
      <trkpt lat="38.090790" lon="-6.793532">
        <ele>438.9</ele>
        <time>2009-02-07T14:54:27Z</time>
      </trkpt>
      <trkpt lat="38.090984" lon="-6.793115">
        <ele>442.3</ele>
        <time>2009-02-07T14:54:56Z</time>
      </trkpt>
      <trkpt lat="38.091042" lon="-6.792691">
        <ele>442.3</ele>
        <time>2009-02-07T14:55:23Z</time>
      </trkpt>
      <trkpt lat="38.091028" lon="-6.792433">
        <ele>442.3</ele>
        <time>2009-02-07T14:55:45Z</time>
      </trkpt>
      <trkpt lat="38.091031" lon="-6.792348">
        <ele>441.7</ele>
        <time>2009-02-07T14:55:57Z</time>
      </trkpt>
      <trkpt lat="38.091020" lon="-6.792006">
        <ele>442.9</ele>
        <time>2009-02-07T14:56:20Z</time>
      </trkpt>
      <trkpt lat="38.091011" lon="-6.791578">
        <ele>446.5</ele>
        <time>2009-02-07T14:57:18Z</time>
      </trkpt>
      <trkpt lat="38.091013" lon="-6.791521">
        <ele>446.5</ele>
        <time>2009-02-07T14:57:28Z</time>
      </trkpt>
      <trkpt lat="38.091029" lon="-6.791009">
        <ele>447.1</ele>
        <time>2009-02-07T14:58:15Z</time>
      </trkpt>
      <trkpt lat="38.091031" lon="-6.790952">
        <ele>449.3</ele>
        <time>2009-02-07T14:58:41Z</time>
      </trkpt>
      <trkpt lat="38.091072" lon="-6.790384">
        <ele>454.5</ele>
        <time>2009-02-07T14:59:35Z</time>
      </trkpt>
      <trkpt lat="38.091098" lon="-6.790272">
        <ele>454.5</ele>
        <time>2009-02-07T14:59:47Z</time>
      </trkpt>
      <trkpt lat="38.091100" lon="-6.790215">
        <ele>454.5</ele>
        <time>2009-02-07T14:59:53Z</time>
      </trkpt>
      <trkpt lat="38.091134" lon="-6.789846">
        <ele>456.3</ele>
        <time>2009-02-07T15:00:20Z</time>
      </trkpt>
      <trkpt lat="38.091190" lon="-6.789507">
        <ele>456.3</ele>
        <time>2009-02-07T15:00:43Z</time>
      </trkpt>
      <trkpt lat="38.091157" lon="-6.789135">
        <ele>456.3</ele>
        <time>2009-02-07T15:01:07Z</time>
      </trkpt>
      <trkpt lat="38.091034" lon="-6.788758">
        <ele>456.3</ele>
        <time>2009-02-07T15:01:34Z</time>
      </trkpt>
      <trkpt lat="38.090867" lon="-6.788350">
        <ele>456.3</ele>
        <time>2009-02-07T15:02:00Z</time>
      </trkpt>
      <trkpt lat="38.090789" lon="-6.787976">
        <ele>455.4</ele>
        <time>2009-02-07T15:02:26Z</time>
      </trkpt>
      <trkpt lat="38.090687" lon="-6.787657">
        <ele>455.4</ele>
        <time>2009-02-07T15:02:47Z</time>
      </trkpt>
      <trkpt lat="38.090675" lon="-6.787343">
        <ele>456.3</ele>
        <time>2009-02-07T15:03:08Z</time>
      </trkpt>
      <trkpt lat="38.090711" lon="-6.786918">
        <ele>458.1</ele>
        <time>2009-02-07T15:03:32Z</time>
      </trkpt>
      <trkpt lat="38.090835" lon="-6.786554">
        <ele>459.0</ele>
        <time>2009-02-07T15:03:56Z</time>
      </trkpt>
      <trkpt lat="38.090938" lon="-6.786160">
        <ele>460.9</ele>
        <time>2009-02-07T15:04:19Z</time>
      </trkpt>
      <trkpt lat="38.090927" lon="-6.785789">
        <ele>462.1</ele>
        <time>2009-02-07T15:04:43Z</time>
      </trkpt>
      <trkpt lat="38.090873" lon="-6.785387">
        <ele>461.8</ele>
        <time>2009-02-07T15:05:10Z</time>
      </trkpt>
      <trkpt lat="38.090791" lon="-6.785127">
        <ele>461.8</ele>
        <time>2009-02-07T15:05:29Z</time>
      </trkpt>
      <trkpt lat="38.090714" lon="-6.784724">
        <ele>463.9</ele>
        <time>2009-02-07T15:06:31Z</time>
      </trkpt>
      <trkpt lat="38.090714" lon="-6.784724">
        <ele>463.9</ele>
        <time>2009-02-07T15:06:58Z</time>
      </trkpt>
      <trkpt lat="38.090721" lon="-6.784496">
        <ele>464.8</ele>
        <time>2009-02-07T15:07:12Z</time>
      </trkpt>
      <trkpt lat="38.090751" lon="-6.784270">
        <ele>465.7</ele>
        <time>2009-02-07T15:07:25Z</time>
      </trkpt>
      <trkpt lat="38.090783" lon="-6.783986">
        <ele>466.6</ele>
        <time>2009-02-07T15:07:45Z</time>
      </trkpt>
      <trkpt lat="38.090837" lon="-6.783704">
        <ele>466.6</ele>
        <time>2009-02-07T15:08:02Z</time>
      </trkpt>
      <trkpt lat="38.090865" lon="-6.783535">
        <ele>466.6</ele>
        <time>2009-02-07T15:08:16Z</time>
      </trkpt>
      <trkpt lat="38.090896" lon="-6.783280">
        <ele>467.6</ele>
        <time>2009-02-07T15:08:37Z</time>
      </trkpt>
      <trkpt lat="38.090926" lon="-6.783054">
        <ele>468.8</ele>
        <time>2009-02-07T15:08:54Z</time>
      </trkpt>
      <trkpt lat="38.091003" lon="-6.782744">
        <ele>467.9</ele>
        <time>2009-02-07T15:09:15Z</time>
      </trkpt>
      <trkpt lat="38.091012" lon="-6.782460">
        <ele>467.9</ele>
        <time>2009-02-07T15:09:34Z</time>
      </trkpt>
      <trkpt lat="38.091025" lon="-6.782061">
        <ele>466.0</ele>
        <time>2009-02-07T15:09:57Z</time>
      </trkpt>
      <trkpt lat="38.090970" lon="-6.781660">
        <ele>463.9</ele>
        <time>2009-02-07T15:10:23Z</time>
      </trkpt>
      <trkpt lat="38.090961" lon="-6.781260">
        <ele>465.7</ele>
        <time>2009-02-07T15:10:46Z</time>
      </trkpt>
      <trkpt lat="38.090904" lon="-6.780915">
        <ele>466.0</ele>
        <time>2009-02-07T15:11:07Z</time>
      </trkpt>
      <trkpt lat="38.090844" lon="-6.780684">
        <ele>466.6</ele>
        <time>2009-02-07T15:11:19Z</time>
      </trkpt>
      <trkpt lat="38.090767" lon="-6.780281">
        <ele>467.9</ele>
        <time>2009-02-07T15:11:43Z</time>
      </trkpt>
      <trkpt lat="38.090692" lon="-6.779822">
        <ele>467.9</ele>
        <time>2009-02-07T15:12:08Z</time>
      </trkpt>
      <trkpt lat="38.090573" lon="-6.779303">
        <ele>468.8</ele>
        <time>2009-02-07T15:12:37Z</time>
      </trkpt>
      <trkpt lat="38.090360" lon="-6.778950">
        <ele>469.7</ele>
        <time>2009-02-07T15:13:02Z</time>
      </trkpt>
      <trkpt lat="38.090148" lon="-6.778540">
        <ele>468.8</ele>
        <time>2009-02-07T15:13:28Z</time>
      </trkpt>
      <trkpt lat="38.089999" lon="-6.778247">
        <ele>469.7</ele>
        <time>2009-02-07T15:13:59Z</time>
      </trkpt>
      <trkpt lat="38.090063" lon="-6.778365">
        <ele>469.7</ele>
        <time>2009-02-07T15:14:17Z</time>
      </trkpt>
      <trkpt lat="38.090063" lon="-6.778365">
        <ele>468.8</ele>
        <time>2009-02-07T15:14:24Z</time>
      </trkpt>
      <trkpt lat="38.089786" lon="-6.777866">
        <ele>469.7</ele>
        <time>2009-02-07T15:14:58Z</time>
      </trkpt>
      <trkpt lat="38.089786" lon="-6.777894">
        <ele>469.7</ele>
        <time>2009-02-07T15:15:00Z</time>
      </trkpt>
      <trkpt lat="38.089806" lon="-6.777952">
        <ele>468.8</ele>
        <time>2009-02-07T15:15:14Z</time>
      </trkpt>
      <trkpt lat="38.089786" lon="-6.777866">
        <ele>468.8</ele>
        <time>2009-02-07T15:15:19Z</time>
      </trkpt>
      <trkpt lat="38.089617" lon="-6.777544">
        <ele>469.7</ele>
        <time>2009-02-07T15:15:40Z</time>
      </trkpt>
      <trkpt lat="38.089493" lon="-6.777195">
        <ele>472.4</ele>
        <time>2009-02-07T15:16:03Z</time>
      </trkpt>
      <trkpt lat="38.089305" lon="-6.776730">
        <ele>474.0</ele>
        <time>2009-02-07T15:16:31Z</time>
      </trkpt>
      <trkpt lat="38.089181" lon="-6.776382">
        <ele>474.0</ele>
        <time>2009-02-07T15:16:53Z</time>
      </trkpt>
      <trkpt lat="38.089125" lon="-6.776037">
        <ele>472.7</ele>
        <time>2009-02-07T15:17:11Z</time>
      </trkpt>
      <trkpt lat="38.089074" lon="-6.775521">
        <ele>469.7</ele>
        <time>2009-02-07T15:17:39Z</time>
      </trkpt>
      <trkpt lat="38.089036" lon="-6.775291">
        <ele>468.8</ele>
        <time>2009-02-07T15:17:54Z</time>
      </trkpt>
      <trkpt lat="38.088958" lon="-6.774917">
        <ele>467.9</ele>
        <time>2009-02-07T15:18:15Z</time>
      </trkpt>
      <trkpt lat="38.088906" lon="-6.774430">
        <ele>467.9</ele>
        <time>2009-02-07T15:18:41Z</time>
      </trkpt>
      <trkpt lat="38.088853" lon="-6.773971">
        <ele>469.7</ele>
        <time>2009-02-07T15:19:07Z</time>
      </trkpt>
      <trkpt lat="38.088729" lon="-6.773623">
        <ele>470.6</ele>
        <time>2009-02-07T15:19:30Z</time>
      </trkpt>
      <trkpt lat="38.088562" lon="-6.773215">
        <ele>470.6</ele>
        <time>2009-02-07T15:19:56Z</time>
      </trkpt>
      <trkpt lat="38.088416" lon="-6.772866">
        <ele>470.6</ele>
        <time>2009-02-07T15:20:21Z</time>
      </trkpt>
      <trkpt lat="38.088330" lon="-6.772747">
        <ele>469.7</ele>
        <time>2009-02-07T15:21:25Z</time>
      </trkpt>
      <trkpt lat="38.088242" lon="-6.772658">
        <ele>470.6</ele>
        <time>2009-02-07T15:22:33Z</time>
      </trkpt>
      <trkpt lat="38.088169" lon="-6.772825">
        <ele>469.7</ele>
        <time>2009-02-07T15:23:55Z</time>
      </trkpt>
      <trkpt lat="38.088115" lon="-6.773107">
        <ele>468.8</ele>
        <time>2009-02-07T15:24:16Z</time>
      </trkpt>
      <trkpt lat="38.088016" lon="-6.773387">
        <ele>466.6</ele>
        <time>2009-02-07T15:24:42Z</time>
      </trkpt>
      <trkpt lat="38.087874" lon="-6.773579">
        <ele>463.9</ele>
        <time>2009-02-07T15:25:03Z</time>
      </trkpt>
      <trkpt lat="38.087750" lon="-6.773971">
        <ele>460.2</ele>
        <time>2009-02-07T15:25:27Z</time>
      </trkpt>
      <trkpt lat="38.087672" lon="-6.774252">
        <ele>456.3</ele>
        <time>2009-02-07T15:25:46Z</time>
      </trkpt>
      <trkpt lat="38.087437" lon="-6.774582">
        <ele>451.4</ele>
        <time>2009-02-07T15:26:12Z</time>
      </trkpt>
      <trkpt lat="38.087202" lon="-6.774912">
        <ele>449.6</ele>
        <time>2009-02-07T15:26:37Z</time>
      </trkpt>
      <trkpt lat="38.086968" lon="-6.775185">
        <ele>447.4</ele>
        <time>2009-02-07T15:26:58Z</time>
      </trkpt>
      <trkpt lat="38.086736" lon="-6.775372">
        <ele>447.1</ele>
        <time>2009-02-07T15:27:19Z</time>
      </trkpt>
      <trkpt lat="38.086438" lon="-6.775528">
        <ele>447.4</ele>
        <time>2009-02-07T15:27:43Z</time>
      </trkpt>
      <trkpt lat="38.086189" lon="-6.775601">
        <ele>445.6</ele>
        <time>2009-02-07T15:28:02Z</time>
      </trkpt>
      <trkpt lat="38.085894" lon="-6.775642">
        <ele>442.9</ele>
        <time>2009-02-07T15:28:21Z</time>
      </trkpt>
      <trkpt lat="38.085558" lon="-6.775597">
        <ele>441.4</ele>
        <time>2009-02-07T15:28:48Z</time>
      </trkpt>
      <trkpt lat="38.085426" lon="-6.775504">
        <ele>439.5</ele>
        <time>2009-02-07T15:29:08Z</time>
      </trkpt>
      <trkpt lat="38.085404" lon="-6.775446">
        <ele>440.7</ele>
        <time>2009-02-07T15:29:21Z</time>
      </trkpt>
      <trkpt lat="38.085163" lon="-6.775291">
        <ele>438.6</ele>
        <time>2009-02-07T15:29:43Z</time>
      </trkpt>
      <trkpt lat="38.084917" lon="-6.775193">
        <ele>435.9</ele>
        <time>2009-02-07T15:30:04Z</time>
      </trkpt>
      <trkpt lat="38.084601" lon="-6.775234">
        <ele>434.6</ele>
        <time>2009-02-07T15:30:27Z</time>
      </trkpt>
      <trkpt lat="38.084307" lon="-6.775276">
        <ele>432.2</ele>
        <time>2009-02-07T15:30:48Z</time>
      </trkpt>
      <trkpt lat="38.084059" lon="-6.775291">
        <ele>430.1</ele>
        <time>2009-02-07T15:31:05Z</time>
      </trkpt>
      <trkpt lat="38.083741" lon="-6.775361">
        <ele>427.9</ele>
        <time>2009-02-07T15:31:26Z</time>
      </trkpt>
      <trkpt lat="38.083424" lon="-6.775401">
        <ele>426.1</ele>
        <time>2009-02-07T15:31:50Z</time>
      </trkpt>
      <trkpt lat="38.083066" lon="-6.775354">
        <ele>424.0</ele>
        <time>2009-02-07T15:32:13Z</time>
      </trkpt>
      <trkpt lat="38.082843" lon="-6.775257">
        <ele>422.1</ele>
        <time>2009-02-07T15:32:32Z</time>
      </trkpt>
      <trkpt lat="38.082464" lon="-6.775181">
        <ele>418.2</ele>
        <time>2009-02-07T15:32:57Z</time>
      </trkpt>
      <trkpt lat="38.082147" lon="-6.775222">
        <ele>417.3</ele>
        <time>2009-02-07T15:33:19Z</time>
      </trkpt>
      <trkpt lat="38.081851" lon="-6.775320">
        <ele>416.4</ele>
        <time>2009-02-07T15:33:40Z</time>
      </trkpt>
      <trkpt lat="38.081557" lon="-6.775362">
        <ele>413.6</ele>
        <time>2009-02-07T15:34:01Z</time>
      </trkpt>
      <trkpt lat="38.081306" lon="-6.775463">
        <ele>412.7</ele>
        <time>2009-02-07T15:34:20Z</time>
      </trkpt>
      <trkpt lat="38.081055" lon="-6.775564">
        <ele>411.5</ele>
        <time>2009-02-07T15:34:38Z</time>
      </trkpt>
      <trkpt lat="38.080964" lon="-6.775616">
        <ele>412.4</ele>
        <time>2009-02-07T15:34:50Z</time>
      </trkpt>
      <trkpt lat="38.080666" lon="-6.775772">
        <ele>410.6</ele>
        <time>2009-02-07T15:35:09Z</time>
      </trkpt>
      <trkpt lat="38.080371" lon="-6.775814">
        <ele>408.4</ele>
        <time>2009-02-07T15:35:30Z</time>
      </trkpt>
      <trkpt lat="38.080056" lon="-6.775798">
        <ele>406.3</ele>
        <time>2009-02-07T15:35:54Z</time>
      </trkpt>
      <trkpt lat="38.079722" lon="-6.775723">
        <ele>404.8</ele>
        <time>2009-02-07T15:36:17Z</time>
      </trkpt>
      <trkpt lat="38.079433" lon="-6.775595">
        <ele>403.9</ele>
        <time>2009-02-07T15:36:38Z</time>
      </trkpt>
      <trkpt lat="38.079164" lon="-6.775524">
        <ele>404.8</ele>
        <time>2009-02-07T15:36:59Z</time>
      </trkpt>
      <trkpt lat="38.078763" lon="-6.775389">
        <ele>402.0</ele>
        <time>2009-02-07T15:37:35Z</time>
      </trkpt>
      <trkpt lat="38.078651" lon="-6.775384">
        <ele>402.6</ele>
        <time>2009-02-07T15:37:51Z</time>
      </trkpt>
      <trkpt lat="38.078403" lon="-6.775371">
        <ele>400.8</ele>
        <time>2009-02-07T15:38:10Z</time>
      </trkpt>
      <trkpt lat="38.078181" lon="-6.775274">
        <ele>396.8</ele>
        <time>2009-02-07T15:38:31Z</time>
      </trkpt>
      <trkpt lat="38.078115" lon="-6.775242">
        <ele>396.8</ele>
        <time>2009-02-07T15:38:45Z</time>
      </trkpt>
      <trkpt lat="38.078115" lon="-6.775242">
        <ele>396.2</ele>
        <time>2009-02-07T15:38:52Z</time>
      </trkpt>
      <trkpt lat="38.077822" lon="-6.775227">
        <ele>396.8</ele>
        <time>2009-02-07T15:39:53Z</time>
      </trkpt>
      <trkpt lat="38.077731" lon="-6.775279">
        <ele>396.8</ele>
        <time>2009-02-07T15:40:02Z</time>
      </trkpt>
      <trkpt lat="38.077458" lon="-6.775351">
        <ele>398.1</ele>
        <time>2009-02-07T15:40:21Z</time>
      </trkpt>
      <trkpt lat="38.077186" lon="-6.775422">
        <ele>397.2</ele>
        <time>2009-02-07T15:40:40Z</time>
      </trkpt>
      <trkpt lat="38.076804" lon="-6.775374">
        <ele>394.7</ele>
        <time>2009-02-07T15:41:08Z</time>
      </trkpt>
      <trkpt lat="38.076401" lon="-6.775296">
        <ele>390.8</ele>
        <time>2009-02-07T15:41:37Z</time>
      </trkpt>
      <trkpt lat="38.076022" lon="-6.775191">
        <ele>387.1</ele>
        <time>2009-02-07T15:42:05Z</time>
      </trkpt>
      <trkpt lat="38.075707" lon="-6.775175">
        <ele>384.4</ele>
        <time>2009-02-07T15:42:28Z</time>
      </trkpt>
      <trkpt lat="38.075502" lon="-6.775250">
        <ele>383.1</ele>
        <time>2009-02-07T15:42:47Z</time>
      </trkpt>
      <trkpt lat="38.075502" lon="-6.775250">
        <ele>382.2</ele>
        <time>2009-02-07T15:42:56Z</time>
      </trkpt>
      <trkpt lat="38.075432" lon="-6.775332">
        <ele>381.3</ele>
        <time>2009-02-07T15:43:01Z</time>
      </trkpt>
      <trkpt lat="38.075087" lon="-6.775542">
        <ele>381.3</ele>
        <time>2009-02-07T15:43:29Z</time>
      </trkpt>
      <trkpt lat="38.074765" lon="-6.775753">
        <ele>380.4</ele>
        <time>2009-02-07T15:43:55Z</time>
      </trkpt>
      <trkpt lat="38.074490" lon="-6.775910">
        <ele>378.6</ele>
        <time>2009-02-07T15:44:18Z</time>
      </trkpt>
      <trkpt lat="38.074235" lon="-6.776125">
        <ele>376.4</ele>
        <time>2009-02-07T15:44:39Z</time>
      </trkpt>
      <trkpt lat="38.074045" lon="-6.776457">
        <ele>374.3</ele>
        <time>2009-02-07T15:45:03Z</time>
      </trkpt>
      <trkpt lat="38.073854" lon="-6.776789">
        <ele>373.4</ele>
        <time>2009-02-07T15:45:24Z</time>
      </trkpt>
      <trkpt lat="38.073708" lon="-6.777123">
        <ele>372.8</ele>
        <time>2009-02-07T15:45:48Z</time>
      </trkpt>
      <trkpt lat="38.073566" lon="-6.777344">
        <ele>371.6</ele>
        <time>2009-02-07T15:46:04Z</time>
      </trkpt>
      <trkpt lat="38.073444" lon="-6.777622">
        <ele>369.7</ele>
        <time>2009-02-07T15:46:23Z</time>
      </trkpt>
      <trkpt lat="38.073278" lon="-6.777899">
        <ele>367.6</ele>
        <time>2009-02-07T15:46:46Z</time>
      </trkpt>
      <trkpt lat="38.073276" lon="-6.777956">
        <ele>367.6</ele>
        <time>2009-02-07T15:47:07Z</time>
      </trkpt>
      <trkpt lat="38.073132" lon="-6.778233">
        <ele>365.8</ele>
        <time>2009-02-07T15:47:26Z</time>
      </trkpt>
      <trkpt lat="38.072891" lon="-6.778705">
        <ele>363.9</ele>
        <time>2009-02-07T15:47:54Z</time>
      </trkpt>
      <trkpt lat="38.072698" lon="-6.779122">
        <ele>363.9</ele>
        <time>2009-02-07T15:48:22Z</time>
      </trkpt>
      <trkpt lat="38.072552" lon="-6.779457">
        <ele>363.0</ele>
        <time>2009-02-07T15:48:44Z</time>
      </trkpt>
      <trkpt lat="38.072360" lon="-6.779817">
        <ele>360.9</ele>
        <time>2009-02-07T15:49:07Z</time>
      </trkpt>
      <trkpt lat="38.072239" lon="-6.780096">
        <ele>359.7</ele>
        <time>2009-02-07T12:24:31Z</time>
      </trkpt>
      <trkpt lat="38.072142" lon="-6.780290">
        <ele>358.7</ele>
        <time>2009-02-07T12:24:31Z</time>
      </trkpt>
      <trkpt lat="38.072069" lon="-6.780457">
        <ele>357.8</ele>
        <time>2009-02-07T12:24:31Z</time>
      </trkpt>
      <trkpt lat="38.071997" lon="-6.780596">
        <ele>356.9</ele>
        <time>2009-02-07T15:50:20Z</time>
      </trkpt>
      <trkpt lat="38.071973" lon="-6.780652">
        <ele>356.3</ele>
        <time>2009-02-07T15:54:06Z</time>
      </trkpt>
      <trkpt lat="38.071973" lon="-6.780652">
        <ele>356.3</ele>
        <time>2009-02-07T15:54:08Z</time>
      </trkpt>
      <trkpt lat="38.071929" lon="-6.780621">
        <ele>354.2</ele>
        <time>2009-02-07T15:54:33Z</time>
      </trkpt>
      <trkpt lat="38.071929" lon="-6.780621">
        <ele>354.8</ele>
        <time>2009-02-07T15:54:50Z</time>
      </trkpt>
      <trkpt lat="38.071929" lon="-6.780621">
        <ele>356.3</ele>
        <time>2009-02-07T15:55:28Z</time>
      </trkpt>
      <trkpt lat="38.071888" lon="-6.780505">
        <ele>356.0</ele>
        <time>2009-02-07T15:55:37Z</time>
      </trkpt>
      <trkpt lat="38.071893" lon="-6.780334">
        <ele>356.0</ele>
        <time>2009-02-07T15:55:58Z</time>
      </trkpt>
      <trkpt lat="38.071893" lon="-6.780334">
        <ele>356.0</ele>
        <time>2009-02-07T15:56:17Z</time>
      </trkpt>
      <trkpt lat="38.071893" lon="-6.780334">
        <ele>356.0</ele>
        <time>2009-02-07T15:57:22Z</time>
      </trkpt>
      <trkpt lat="38.071894" lon="-6.780306">
        <ele>357.2</ele>
        <time>2009-02-07T15:57:34Z</time>
      </trkpt>
      <trkpt lat="38.071945" lon="-6.780109">
        <ele>358.1</ele>
        <time>2009-02-07T15:58:05Z</time>
      </trkpt>
      <trkpt lat="38.072024" lon="-6.779771">
        <ele>358.1</ele>
        <time>2009-02-07T15:58:26Z</time>
      </trkpt>
      <trkpt lat="38.072060" lon="-6.779346">
        <ele>359.1</ele>
        <time>2009-02-07T15:58:50Z</time>
      </trkpt>
      <trkpt lat="38.072117" lon="-6.778978">
        <ele>359.1</ele>
        <time>2009-02-07T15:59:13Z</time>
      </trkpt>
      <trkpt lat="38.072081" lon="-6.778692">
        <ele>360.0</ele>
        <time>2009-02-07T15:59:32Z</time>
      </trkpt>
      <trkpt lat="38.072113" lon="-6.778409">
        <ele>363.0</ele>
        <time>2009-02-07T15:59:53Z</time>
      </trkpt>
      <trkpt lat="38.072142" lon="-6.778182">
        <ele>364.8</ele>
        <time>2009-02-07T16:00:09Z</time>
      </trkpt>
      <trkpt lat="38.072153" lon="-6.777841">
        <ele>366.1</ele>
        <time>2009-02-07T16:00:33Z</time>
      </trkpt>
      <trkpt lat="38.072207" lon="-6.777587">
        <ele>368.8</ele>
        <time>2009-02-07T16:00:51Z</time>
      </trkpt>
      <trkpt lat="38.072214" lon="-6.777360">
        <ele>369.7</ele>
        <time>2009-02-07T16:01:08Z</time>
      </trkpt>
      <trkpt lat="38.072134" lon="-6.777042">
        <ele>371.6</ele>
        <time>2009-02-07T16:01:27Z</time>
      </trkpt>
      <trkpt lat="38.072102" lon="-6.776642">
        <ele>374.3</ele>
        <time>2009-02-07T16:01:55Z</time>
      </trkpt>
      <trkpt lat="38.072027" lon="-6.776182">
        <ele>379.2</ele>
        <time>2009-02-07T16:02:39Z</time>
      </trkpt>
      <trkpt lat="38.072030" lon="-6.776068">
        <ele>379.5</ele>
        <time>2009-02-07T16:03:00Z</time>
      </trkpt>
      <trkpt lat="38.071994" lon="-6.775810">
        <ele>382.2</ele>
        <time>2009-02-07T16:03:19Z</time>
      </trkpt>
      <trkpt lat="38.071983" lon="-6.775439">
        <ele>384.0</ele>
        <time>2009-02-07T16:03:43Z</time>
      </trkpt>
      <trkpt lat="38.071974" lon="-6.775011">
        <ele>386.2</ele>
        <time>2009-02-07T16:04:09Z</time>
      </trkpt>
      <trkpt lat="38.071964" lon="-6.774641">
        <ele>386.2</ele>
        <time>2009-02-07T16:04:30Z</time>
      </trkpt>
      <trkpt lat="38.071904" lon="-6.774410">
        <ele>388.9</ele>
        <time>2009-02-07T16:05:38Z</time>
      </trkpt>
      <trkpt lat="38.071905" lon="-6.774353">
        <ele>388.9</ele>
        <time>2009-02-07T16:05:45Z</time>
      </trkpt>
      <trkpt lat="38.071847" lon="-6.774065">
        <ele>389.2</ele>
        <time>2009-02-07T16:06:02Z</time>
      </trkpt>
      <trkpt lat="38.071837" lon="-6.773666">
        <ele>388.9</ele>
        <time>2009-02-07T16:06:27Z</time>
      </trkpt>
      <trkpt lat="38.071805" lon="-6.773265">
        <ele>390.1</ele>
        <time>2009-02-07T16:06:51Z</time>
      </trkpt>
      <trkpt lat="38.071863" lon="-6.772868">
        <ele>393.8</ele>
        <time>2009-02-07T16:07:17Z</time>
      </trkpt>
      <trkpt lat="38.072005" lon="-6.772648">
        <ele>394.1</ele>
        <time>2009-02-07T16:07:38Z</time>
      </trkpt>
      <trkpt lat="38.072012" lon="-6.772449">
        <ele>394.7</ele>
        <time>2009-02-07T16:07:50Z</time>
      </trkpt>
      <trkpt lat="38.072046" lon="-6.772080">
        <ele>397.2</ele>
        <time>2009-02-07T16:08:13Z</time>
      </trkpt>
      <trkpt lat="38.072075" lon="-6.771882">
        <ele>397.8</ele>
        <time>2009-02-07T16:08:30Z</time>
      </trkpt>
      <trkpt lat="38.072106" lon="-6.771627">
        <ele>398.1</ele>
        <time>2009-02-07T16:08:48Z</time>
      </trkpt>
      <trkpt lat="38.072186" lon="-6.771233">
        <ele>399.9</ele>
        <time>2009-02-07T16:09:14Z</time>
      </trkpt>
      <trkpt lat="38.072195" lon="-6.770948">
        <ele>402.0</ele>
        <time>2009-02-07T16:09:30Z</time>
      </trkpt>
      <trkpt lat="38.072205" lon="-6.770635">
        <ele>403.9</ele>
        <time>2009-02-07T16:09:51Z</time>
      </trkpt>
      <trkpt lat="38.072263" lon="-6.770239">
        <ele>406.3</ele>
        <time>2009-02-07T16:10:15Z</time>
      </trkpt>
      <trkpt lat="38.072295" lon="-6.769928">
        <ele>409.7</ele>
        <time>2009-02-07T16:10:36Z</time>
      </trkpt>
      <trkpt lat="38.072460" lon="-6.769708">
        <ele>411.5</ele>
        <time>2009-02-07T16:11:00Z</time>
      </trkpt>
      <trkpt lat="38.072782" lon="-6.769497">
        <ele>412.4</ele>
        <time>2009-02-07T16:11:26Z</time>
      </trkpt>
      <trkpt lat="38.072784" lon="-6.769440">
        <ele>412.7</ele>
        <time>2009-02-07T16:11:32Z</time>
      </trkpt>
      <trkpt lat="38.072699" lon="-6.769265">
        <ele>416.4</ele>
        <time>2009-02-07T16:11:51Z</time>
      </trkpt>
      <trkpt lat="38.072572" lon="-6.769030">
        <ele>420.3</ele>
        <time>2009-02-07T16:12:13Z</time>
      </trkpt>
      <trkpt lat="38.072530" lon="-6.768943">
        <ele>422.1</ele>
        <time>2009-02-07T16:12:24Z</time>
      </trkpt>
      <trkpt lat="38.072584" lon="-6.768661">
        <ele>425.8</ele>
        <time>2009-02-07T16:12:50Z</time>
      </trkpt>
      <trkpt lat="38.072815" lon="-6.768473">
        <ele>428.9</ele>
        <time>2009-02-07T16:13:16Z</time>
      </trkpt>
      <trkpt lat="38.073028" lon="-6.768142">
        <ele>434.6</ele>
        <time>2009-02-07T16:13:49Z</time>
      </trkpt>
      <trkpt lat="38.073148" lon="-6.767920">
        <ele>437.4</ele>
        <time>2009-02-07T16:14:10Z</time>
      </trkpt>
      <trkpt lat="38.073196" lon="-6.767809">
        <ele>438.6</ele>
        <time>2009-02-07T16:14:28Z</time>
      </trkpt>
      <trkpt lat="38.073314" lon="-6.767644">
        <ele>438.0</ele>
        <time>2009-02-07T16:15:11Z</time>
      </trkpt>
      <trkpt lat="38.073483" lon="-6.767311">
        <ele>439.5</ele>
        <time>2009-02-07T16:15:37Z</time>
      </trkpt>
      <trkpt lat="38.073582" lon="-6.767031">
        <ele>442.6</ele>
        <time>2009-02-07T16:16:00Z</time>
      </trkpt>
      <trkpt lat="38.073703" lon="-6.766753">
        <ele>446.5</ele>
        <time>2009-02-07T16:16:24Z</time>
      </trkpt>
      <trkpt lat="38.073777" lon="-6.766557">
        <ele>450.2</ele>
        <time>2009-02-07T16:16:40Z</time>
      </trkpt>
      <trkpt lat="38.073919" lon="-6.766336">
        <ele>452.9</ele>
        <time>2009-02-07T16:17:03Z</time>
      </trkpt>
      <trkpt lat="38.074014" lon="-6.766199">
        <ele>454.2</ele>
        <time>2009-02-07T16:17:36Z</time>
      </trkpt>
      <trkpt lat="38.074083" lon="-6.766145">
        <ele>455.4</ele>
        <time>2009-02-07T16:17:51Z</time>
      </trkpt>
      <trkpt lat="38.074248" lon="-6.765926">
        <ele>453.2</ele>
        <time>2009-02-07T16:19:10Z</time>
      </trkpt>
      <trkpt lat="38.074248" lon="-6.765926">
        <ele>454.2</ele>
        <time>2009-02-07T16:19:20Z</time>
      </trkpt>
      <trkpt lat="38.074388" lon="-6.765762">
        <ele>455.4</ele>
        <time>2009-02-07T16:19:38Z</time>
      </trkpt>
      <trkpt lat="38.074510" lon="-6.765483">
        <ele>457.2</ele>
        <time>2009-02-07T16:20:00Z</time>
      </trkpt>
      <trkpt lat="38.074535" lon="-6.765400">
        <ele>457.2</ele>
        <time>2009-02-07T16:20:21Z</time>
      </trkpt>
      <trkpt lat="38.074590" lon="-6.765089">
        <ele>461.8</ele>
        <time>2009-02-07T10:57:06Z</time>
      </trkpt>
      <trkpt lat="38.074734" lon="-6.764811">
        <ele>464.8</ele>
        <time>2009-02-07T16:21:33Z</time>
      </trkpt>
      <trkpt lat="38.074927" lon="-6.764422">
        <ele>472.4</ele>
        <time>2009-02-07T16:22:09Z</time>
      </trkpt>
      <trkpt lat="38.075048" lon="-6.764144">
        <ele>475.5</ele>
        <time>2009-02-07T16:22:32Z</time>
      </trkpt>
      <trkpt lat="38.075166" lon="-6.763979">
        <ele>478.5</ele>
        <time>2009-02-07T16:22:53Z</time>
      </trkpt>
      <trkpt lat="38.075355" lon="-6.763704">
        <ele>482.2</ele>
        <time>2009-02-07T16:23:19Z</time>
      </trkpt>
      <trkpt lat="38.075447" lon="-6.763651">
        <ele>483.1</ele>
        <time>2009-02-07T16:23:35Z</time>
      </trkpt>
      <trkpt lat="38.075563" lon="-6.763543">
        <ele>484.6</ele>
        <time>2009-02-07T16:23:50Z</time>
      </trkpt>
      <trkpt lat="38.075727" lon="-6.763324">
        <ele>484.3</ele>
        <time>2009-02-07T16:24:08Z</time>
      </trkpt>
      <trkpt lat="38.075798" lon="-6.763214">
        <ele>484.6</ele>
        <time>2009-02-07T16:24:15Z</time>
      </trkpt>
      <trkpt lat="38.076006" lon="-6.763053">
        <ele>484.6</ele>
        <time>2009-02-07T16:24:37Z</time>
      </trkpt>
      <trkpt lat="38.076283" lon="-6.762840">
        <ele>484.6</ele>
        <time>2009-02-07T16:25:00Z</time>
      </trkpt>
      <trkpt lat="38.076422" lon="-6.762733">
        <ele>486.5</ele>
        <time>2009-02-07T16:25:28Z</time>
      </trkpt>
      <trkpt lat="38.076721" lon="-6.762520">
        <ele>488.9</ele>
        <time>2009-02-07T16:25:52Z</time>
      </trkpt>
      <trkpt lat="38.076721" lon="-6.762520">
        <ele>489.2</ele>
        <time>2009-02-07T16:26:06Z</time>
      </trkpt>
      <trkpt lat="38.076813" lon="-6.762468">
        <ele>489.5</ele>
        <time>2009-02-07T16:26:57Z</time>
      </trkpt>
      <trkpt lat="38.076975" lon="-6.762334">
        <ele>489.5</ele>
        <time>2009-02-07T16:27:12Z</time>
      </trkpt>
      <trkpt lat="38.077115" lon="-6.762199">
        <ele>491.0</ele>
        <time>2009-02-07T16:27:28Z</time>
      </trkpt>
      <trkpt lat="38.077256" lon="-6.762006">
        <ele>492.3</ele>
        <time>2009-02-07T16:27:45Z</time>
      </trkpt>
      <trkpt lat="38.077466" lon="-6.761761">
        <ele>493.2</ele>
        <time>2009-02-07T16:28:08Z</time>
      </trkpt>
      <trkpt lat="38.077677" lon="-6.761515">
        <ele>495.3</ele>
        <time>2009-02-07T16:28:32Z</time>
      </trkpt>
      <trkpt lat="38.077867" lon="-6.761211">
        <ele>497.1</ele>
        <time>2009-02-07T16:29:09Z</time>
      </trkpt>
      <trkpt lat="38.077867" lon="-6.761211">
        <ele>498.0</ele>
        <time>2009-02-07T16:29:26Z</time>
      </trkpt>
      <trkpt lat="38.078101" lon="-6.760939">
        <ele>500.8</ele>
        <time>2009-02-07T16:29:51Z</time>
      </trkpt>
      <trkpt lat="38.078239" lon="-6.760832">
        <ele>502.9</ele>
        <time>2009-02-07T16:30:08Z</time>
      </trkpt>
      <trkpt lat="38.078382" lon="-6.760611">
        <ele>504.7</ele>
        <time>2009-02-07T16:30:26Z</time>
      </trkpt>
      <trkpt lat="38.078473" lon="-6.760559">
        <ele>505.7</ele>
        <time>2009-02-07T16:30:40Z</time>
      </trkpt>
      <trkpt lat="38.078567" lon="-6.760450">
        <ele>507.8</ele>
        <time>2009-02-07T16:30:54Z</time>
      </trkpt>
      <trkpt lat="38.078576" lon="-6.760165">
        <ele>507.5</ele>
        <time>2009-02-07T16:31:11Z</time>
      </trkpt>
      <trkpt lat="38.078450" lon="-6.759874">
        <ele>507.8</ele>
        <time>2009-02-07T16:31:34Z</time>
      </trkpt>
      <trkpt lat="38.078279" lon="-6.759580">
        <ele>508.7</ele>
        <time>2009-02-07T16:31:56Z</time>
      </trkpt>
      <trkpt lat="38.078193" lon="-6.759462">
        <ele>511.5</ele>
        <time>2009-02-07T16:32:14Z</time>
      </trkpt>
      <trkpt lat="38.078176" lon="-6.759290">
        <ele>512.1</ele>
        <time>2009-02-07T16:32:33Z</time>
      </trkpt>
      <trkpt lat="38.078118" lon="-6.759002">
        <ele>513.3</ele>
        <time>2009-02-07T16:32:52Z</time>
      </trkpt>
      <trkpt lat="38.078039" lon="-6.758656">
        <ele>514.5</ele>
        <time>2009-02-07T16:33:16Z</time>
      </trkpt>
      <trkpt lat="38.077998" lon="-6.758512">
        <ele>516.3</ele>
        <time>2009-02-07T16:33:34Z</time>
      </trkpt>
      <trkpt lat="38.077956" lon="-6.758424">
        <ele>517.6</ele>
        <time>2009-02-07T16:33:51Z</time>
      </trkpt>
      <trkpt lat="38.077896" lon="-6.758193">
        <ele>519.1</ele>
        <time>2009-02-07T16:34:10Z</time>
      </trkpt>
      <trkpt lat="38.077876" lon="-6.758107">
        <ele>519.7</ele>
        <time>2009-02-07T16:34:17Z</time>
      </trkpt>
      <trkpt lat="38.077795" lon="-6.757818">
        <ele>521.8</ele>
        <time>2009-02-07T16:34:36Z</time>
      </trkpt>
      <trkpt lat="38.077716" lon="-6.757500">
        <ele>523.3</ele>
        <time>2009-02-07T16:34:57Z</time>
      </trkpt>
      <trkpt lat="38.077545" lon="-6.757206">
        <ele>525.5</ele>
        <time>2009-02-07T16:35:20Z</time>
      </trkpt>
      <trkpt lat="38.077422" lon="-6.756830">
        <ele>527.3</ele>
        <time>2009-02-07T16:35:46Z</time>
      </trkpt>
      <trkpt lat="38.077276" lon="-6.756452">
        <ele>530.4</ele>
        <time>2009-02-07T16:36:12Z</time>
      </trkpt>
      <trkpt lat="38.077152" lon="-6.756104">
        <ele>532.2</ele>
        <time>2009-02-07T16:36:33Z</time>
      </trkpt>
      <trkpt lat="38.077096" lon="-6.755759">
        <ele>533.4</ele>
        <time>2009-02-07T16:36:54Z</time>
      </trkpt>
      <trkpt lat="38.077062" lon="-6.755415">
        <ele>533.7</ele>
        <time>2009-02-07T16:37:15Z</time>
      </trkpt>
      <trkpt lat="38.076984" lon="-6.755013">
        <ele>533.7</ele>
        <time>2009-02-07T16:37:36Z</time>
      </trkpt>
      <trkpt lat="38.076952" lon="-6.754612">
        <ele>533.1</ele>
        <time>2009-02-07T16:37:57Z</time>
      </trkpt>
      <trkpt lat="38.076954" lon="-6.754555">
        <ele>533.1</ele>
        <time>2009-02-07T16:38:00Z</time>
      </trkpt>
      <trkpt lat="38.076957" lon="-6.754470">
        <ele>532.2</ele>
        <time>2009-02-07T16:38:04Z</time>
      </trkpt>
      <trkpt lat="38.077013" lon="-6.754102">
        <ele>532.2</ele>
        <time>2009-02-07T16:38:26Z</time>
      </trkpt>
      <trkpt lat="38.077092" lon="-6.753765">
        <ele>531.6</ele>
        <time>2009-02-07T16:38:44Z</time>
      </trkpt>
      <trkpt lat="38.077168" lon="-6.753484">
        <ele>531.9</ele>
        <time>2009-02-07T16:39:01Z</time>
      </trkpt>
      <trkpt lat="38.077269" lon="-6.753147">
        <ele>531.3</ele>
        <time>2009-02-07T16:41:22Z</time>
      </trkpt>
      <trkpt lat="38.077322" lon="-6.752893">
        <ele>531.3</ele>
        <time>2009-02-07T16:41:40Z</time>
      </trkpt>
      <trkpt lat="38.077424" lon="-6.752528">
        <ele>531.6</ele>
        <time>2009-02-07T16:42:02Z</time>
      </trkpt>
      <trkpt lat="38.077479" lon="-6.752217">
        <ele>530.4</ele>
        <time>2009-02-07T16:42:20Z</time>
      </trkpt>
      <trkpt lat="38.077485" lon="-6.752018">
        <ele>529.7</ele>
        <time>2009-02-07T16:42:34Z</time>
      </trkpt>
      <trkpt lat="38.077468" lon="-6.751847">
        <ele>530.4</ele>
        <time>2009-02-07T16:42:48Z</time>
      </trkpt>
      <trkpt lat="38.077457" lon="-6.751504">
        <ele>529.7</ele>
        <time>2009-02-07T16:43:09Z</time>
      </trkpt>
      <trkpt lat="38.077471" lon="-6.751077">
        <ele>533.7</ele>
        <time>2009-02-07T16:43:35Z</time>
      </trkpt>
      <trkpt lat="38.077437" lon="-6.750705">
        <ele>534.9</ele>
        <time>2009-02-07T16:43:56Z</time>
      </trkpt>
      <trkpt lat="38.077472" lon="-6.750337">
        <ele>534.9</ele>
        <time>2009-02-07T16:44:18Z</time>
      </trkpt>
      <trkpt lat="38.077550" lon="-6.749999">
        <ele>535.5</ele>
        <time>2009-02-07T16:44:41Z</time>
      </trkpt>
      <trkpt lat="38.077550" lon="-6.749999">
        <ele>538.9</ele>
        <time>2009-02-07T16:44:55Z</time>
      </trkpt>
      <trkpt lat="38.077551" lon="-6.749971">
        <ele>539.2</ele>
        <time>2009-02-07T16:45:35Z</time>
      </trkpt>
      <trkpt lat="38.077650" lon="-6.749691">
        <ele>539.5</ele>
        <time>2009-02-07T16:45:56Z</time>
      </trkpt>
      <trkpt lat="38.077705" lon="-6.749380">
        <ele>540.7</ele>
        <time>2009-02-07T16:46:15Z</time>
      </trkpt>
      <trkpt lat="38.077623" lon="-6.749120">
        <ele>541.3</ele>
        <time>2009-02-07T16:46:34Z</time>
      </trkpt>
      <trkpt lat="38.077625" lon="-6.749063">
        <ele>541.3</ele>
        <time>2009-02-07T16:46:48Z</time>
      </trkpt>
      <trkpt lat="38.077655" lon="-6.748836">
        <ele>545.3</ele>
        <time>2009-02-07T16:47:07Z</time>
      </trkpt>
      <trkpt lat="38.077773" lon="-6.748671">
        <ele>548.9</ele>
        <time>2009-02-07T16:47:28Z</time>
      </trkpt>
      <trkpt lat="38.077862" lon="-6.748676">
        <ele>548.9</ele>
        <time>2009-02-07T16:47:35Z</time>
      </trkpt>
      <trkpt lat="38.077952" lon="-6.748681">
        <ele>550.5</ele>
        <time>2009-02-07T16:47:42Z</time>
      </trkpt>
      <trkpt lat="38.078183" lon="-6.748521">
        <ele>554.7</ele>
        <time>2009-02-07T16:48:08Z</time>
      </trkpt>
      <trkpt lat="38.078439" lon="-6.748250">
        <ele>559.0</ele>
        <time>2009-02-07T16:48:34Z</time>
      </trkpt>
      <trkpt lat="38.078512" lon="-6.748082">
        <ele>560.5</ele>
        <time>2009-02-07T16:48:54Z</time>
      </trkpt>
      <trkpt lat="38.078516" lon="-6.747969">
        <ele>560.5</ele>
        <time>2009-02-07T16:49:07Z</time>
      </trkpt>
      <trkpt lat="38.078519" lon="-6.747855">
        <ele>562.4</ele>
        <time>2009-02-07T16:49:28Z</time>
      </trkpt>
      <trkpt lat="38.076816" lon="-6.739107">
        <ele>597.7</ele>
        <time>2009-02-06T10:21:03Z</time>
      </trkpt>
      <trkpt lat="38.076816" lon="-6.739107">
        <ele>597.4</ele>
        <time>2009-02-06T10:21:12Z</time>
      </trkpt>
      <trkpt lat="38.076758" lon="-6.738819">
        <ele>600.2</ele>
        <time>2009-02-06T10:21:33Z</time>
      </trkpt>
      <trkpt lat="38.076652" lon="-6.738614">
        <ele>599.5</ele>
        <time>2009-02-06T10:21:50Z</time>
      </trkpt>
      <trkpt lat="38.076499" lon="-6.738464">
        <ele>600.2</ele>
        <time>2009-02-06T10:22:09Z</time>
      </trkpt>
      <trkpt lat="38.076499" lon="-6.738464">
        <ele>600.8</ele>
        <time>2009-02-06T10:22:25Z</time>
      </trkpt>
      <trkpt lat="38.076441" lon="-6.738176">
        <ele>600.2</ele>
        <time>2009-02-06T10:22:44Z</time>
      </trkpt>
      <trkpt lat="38.076360" lon="-6.737887">
        <ele>598.9</ele>
        <time>2009-02-06T10:23:05Z</time>
      </trkpt>
      <trkpt lat="38.076322" lon="-6.737657">
        <ele>597.1</ele>
        <time>2009-02-06T10:23:21Z</time>
      </trkpt>
      <trkpt lat="38.076202" lon="-6.737196">
        <ele>595.0</ele>
        <time>2009-02-06T10:23:48Z</time>
      </trkpt>
      <trkpt lat="38.076054" lon="-6.736875">
        <ele>593.8</ele>
        <time>2009-02-06T10:24:09Z</time>
      </trkpt>
      <trkpt lat="38.075909" lon="-6.736497">
        <ele>591.9</ele>
        <time>2009-02-06T10:24:32Z</time>
      </trkpt>
      <trkpt lat="38.075870" lon="-6.736295">
        <ele>591.6</ele>
        <time>2009-02-06T10:24:44Z</time>
      </trkpt>
      <trkpt lat="38.075872" lon="-6.736239">
        <ele>591.3</ele>
        <time>2009-02-06T10:24:48Z</time>
      </trkpt>
      <trkpt lat="38.075797" lon="-6.735750">
        <ele>589.2</ele>
        <time>2009-02-06T10:25:14Z</time>
      </trkpt>
      <trkpt lat="38.075767" lon="-6.735293">
        <ele>588.0</ele>
        <time>2009-02-06T10:25:38Z</time>
      </trkpt>
      <trkpt lat="38.075707" lon="-6.735062">
        <ele>588.0</ele>
        <time>2009-02-06T10:25:52Z</time>
      </trkpt>
      <trkpt lat="38.075608" lon="-6.734630">
        <ele>586.1</ele>
        <time>2009-02-06T10:26:15Z</time>
      </trkpt>
      <trkpt lat="38.075485" lon="-6.734253">
        <ele>586.1</ele>
        <time>2009-02-06T10:26:36Z</time>
      </trkpt>
      <trkpt lat="38.075402" lon="-6.734021">
        <ele>586.1</ele>
        <time>2009-02-06T10:26:50Z</time>
      </trkpt>
      <trkpt lat="38.075338" lon="-6.733904">
        <ele>585.5</ele>
        <time>2009-02-06T10:27:05Z</time>
      </trkpt>
      <trkpt lat="38.075338" lon="-6.733904">
        <ele>586.4</ele>
        <time>2009-02-06T10:27:56Z</time>
      </trkpt>
      <trkpt lat="38.075229" lon="-6.733784">
        <ele>585.5</ele>
        <time>2009-02-06T10:28:06Z</time>
      </trkpt>
      <trkpt lat="38.075076" lon="-6.733663">
        <ele>584.0</ele>
        <time>2009-02-06T10:28:22Z</time>
      </trkpt>
      <trkpt lat="38.074967" lon="-6.733543">
        <ele>584.0</ele>
        <time>2009-02-06T10:28:32Z</time>
      </trkpt>
      <trkpt lat="38.074835" lon="-6.733422">
        <ele>583.4</ele>
        <time>2009-02-06T10:28:46Z</time>
      </trkpt>
      <trkpt lat="38.074571" lon="-6.733238">
        <ele>584.0</ele>
        <time>2009-02-06T10:29:07Z</time>
      </trkpt>
      <trkpt lat="38.074398" lon="-6.733001">
        <ele>584.6</ele>
        <time>2009-02-06T10:29:25Z</time>
      </trkpt>
      <trkpt lat="38.074251" lon="-6.732680">
        <ele>582.8</ele>
        <time>2009-02-06T10:29:44Z</time>
      </trkpt>
      <trkpt lat="38.074150" lon="-6.732305">
        <ele>582.2</ele>
        <time>2009-02-06T10:30:05Z</time>
      </trkpt>
      <trkpt lat="38.074071" lon="-6.731959">
        <ele>580.0</ele>
        <time>2009-02-06T10:30:22Z</time>
      </trkpt>
      <trkpt lat="38.074030" lon="-6.731843">
        <ele>578.5</ele>
        <time>2009-02-06T10:30:29Z</time>
      </trkpt>
      <trkpt lat="38.073966" lon="-6.731726">
        <ele>582.2</ele>
        <time>2009-02-06T10:31:44Z</time>
      </trkpt>
      <trkpt lat="38.073905" lon="-6.731523">
        <ele>579.7</ele>
        <time>2009-02-06T10:32:00Z</time>
      </trkpt>
      <trkpt lat="38.073866" lon="-6.731322">
        <ele>577.9</ele>
        <time>2009-02-06T10:32:14Z</time>
      </trkpt>
      <trkpt lat="38.073868" lon="-6.731265">
        <ele>577.0</ele>
        <time>2009-02-06T10:32:17Z</time>
      </trkpt>
      <trkpt lat="38.073740" lon="-6.731031">
        <ele>574.2</ele>
        <time>2009-02-06T10:32:36Z</time>
      </trkpt>
      <trkpt lat="38.073613" lon="-6.730796">
        <ele>569.7</ele>
        <time>2009-02-06T10:32:57Z</time>
      </trkpt>
      <trkpt lat="38.073530" lon="-6.730564">
        <ele>565.7</ele>
        <time>2009-02-06T10:33:16Z</time>
      </trkpt>
      <trkpt lat="38.073449" lon="-6.730275">
        <ele>563.0</ele>
        <time>2009-02-06T10:33:36Z</time>
      </trkpt>
      <trkpt lat="38.073429" lon="-6.730189">
        <ele>561.4</ele>
        <time>2009-02-06T10:33:44Z</time>
      </trkpt>
      <trkpt lat="38.073393" lon="-6.729930">
        <ele>558.7</ele>
        <time>2009-02-06T10:34:02Z</time>
      </trkpt>
      <trkpt lat="38.073420" lon="-6.729761">
        <ele>556.6</ele>
        <time>2009-02-06T10:34:16Z</time>
      </trkpt>
      <trkpt lat="38.073449" lon="-6.729563">
        <ele>552.9</ele>
        <time>2009-02-06T10:39:12Z</time>
      </trkpt>
      <trkpt lat="38.073480" lon="-6.729308">
        <ele>552.3</ele>
        <time>2009-02-06T10:39:48Z</time>
      </trkpt>
      <trkpt lat="38.073482" lon="-6.729251">
        <ele>551.4</ele>
        <time>2009-02-06T10:39:54Z</time>
      </trkpt>
      <trkpt lat="38.073484" lon="-6.729194">
        <ele>551.4</ele>
        <time>2009-02-06T10:39:59Z</time>
      </trkpt>
      <trkpt lat="38.073468" lon="-6.728966">
        <ele>547.7</ele>
        <time>2009-02-06T10:40:11Z</time>
      </trkpt>
      <trkpt lat="38.073524" lon="-6.728627">
        <ele>543.2</ele>
        <time>2009-02-06T10:40:35Z</time>
      </trkpt>
      <trkpt lat="38.073490" lon="-6.728283">
        <ele>539.5</ele>
        <time>2009-02-06T10:40:54Z</time>
      </trkpt>
      <trkpt lat="38.073473" lon="-6.728111">
        <ele>536.8</ele>
        <time>2009-02-06T10:41:08Z</time>
      </trkpt>
      <trkpt lat="38.073435" lon="-6.727882">
        <ele>534.6</ele>
        <time>2009-02-06T10:41:24Z</time>
      </trkpt>
      <trkpt lat="38.073396" lon="-6.727680">
        <ele>533.7</ele>
        <time>2009-02-06T10:41:36Z</time>
      </trkpt>
      <trkpt lat="38.073405" lon="-6.727424">
        <ele>533.1</ele>
        <time>2009-02-06T10:41:54Z</time>
      </trkpt>
      <trkpt lat="38.073323" lon="-6.727164">
        <ele>531.9</ele>
        <time>2009-02-06T10:42:11Z</time>
      </trkpt>
      <trkpt lat="38.073331" lon="-6.726908">
        <ele>531.3</ele>
        <time>2009-02-06T10:42:27Z</time>
      </trkpt>
      <trkpt lat="38.073294" lon="-6.726649">
        <ele>528.8</ele>
        <time>2009-02-06T10:42:48Z</time>
      </trkpt>
      <trkpt lat="38.073280" lon="-6.726392">
        <ele>526.4</ele>
        <time>2009-02-06T10:43:03Z</time>
      </trkpt>
      <trkpt lat="38.073309" lon="-6.726166">
        <ele>524.0</ele>
        <time>2009-02-06T10:43:19Z</time>
      </trkpt>
      <trkpt lat="38.073309" lon="-6.726166">
        <ele>521.5</ele>
        <time>2009-02-06T10:43:36Z</time>
      </trkpt>
      <trkpt lat="38.073360" lon="-6.725997">
        <ele>518.2</ele>
        <time>2009-02-06T10:43:57Z</time>
      </trkpt>
      <trkpt lat="38.073371" lon="-6.725656">
        <ele>518.2</ele>
        <time>2009-02-06T10:44:20Z</time>
      </trkpt>
      <trkpt lat="38.073381" lon="-6.725315">
        <ele>519.7</ele>
        <time>2009-02-06T10:44:37Z</time>
      </trkpt>
      <trkpt lat="38.073415" lon="-6.724975">
        <ele>520.3</ele>
        <time>2009-02-06T10:44:57Z</time>
      </trkpt>
      <trkpt lat="38.073356" lon="-6.724687">
        <ele>519.7</ele>
        <time>2009-02-06T10:45:18Z</time>
      </trkpt>
      <trkpt lat="38.073317" lon="-6.724514">
        <ele>519.7</ele>
        <time>2009-02-06T10:45:28Z</time>
      </trkpt>
      <trkpt lat="38.073276" lon="-6.724369">
        <ele>519.7</ele>
        <time>2009-02-06T10:45:58Z</time>
      </trkpt>
      <trkpt lat="38.073280" lon="-6.724256">
        <ele>520.3</ele>
        <time>2009-02-06T10:46:10Z</time>
      </trkpt>
      <trkpt lat="38.073289" lon="-6.723971">
        <ele>520.6</ele>
        <time>2009-02-06T10:46:29Z</time>
      </trkpt>
      <trkpt lat="38.073315" lon="-6.723859">
        <ele>521.8</ele>
        <time>2009-02-06T10:46:41Z</time>
      </trkpt>
      <trkpt lat="38.073316" lon="-6.723830">
        <ele>521.8</ele>
        <time>2009-02-06T10:46:43Z</time>
      </trkpt>
      <trkpt lat="38.073339" lon="-6.723803">
        <ele>522.1</ele>
        <time>2009-02-06T10:46:59Z</time>
      </trkpt>
      <trkpt lat="38.073346" lon="-6.723604">
        <ele>521.8</ele>
        <time>2009-02-06T10:47:14Z</time>
      </trkpt>
      <trkpt lat="38.073400" lon="-6.723322">
        <ele>522.1</ele>
        <time>2009-02-06T10:47:30Z</time>
      </trkpt>
      <trkpt lat="38.073431" lon="-6.723038">
        <ele>521.5</ele>
        <time>2009-02-06T10:47:49Z</time>
      </trkpt>
      <trkpt lat="38.073420" lon="-6.722696">
        <ele>520.6</ele>
        <time>2009-02-06T10:48:08Z</time>
      </trkpt>
      <trkpt lat="38.073476" lon="-6.722328">
        <ele>522.1</ele>
        <time>2009-02-06T10:48:33Z</time>
      </trkpt>
      <trkpt lat="38.073531" lon="-6.722018">
        <ele>523.3</ele>
        <time>2009-02-06T10:48:52Z</time>
      </trkpt>
      <trkpt lat="38.073497" lon="-6.721674">
        <ele>525.5</ele>
        <time>2009-02-06T10:49:11Z</time>
      </trkpt>
      <trkpt lat="38.073430" lon="-6.721642">
        <ele>525.8</ele>
        <time>2009-02-06T10:49:25Z</time>
      </trkpt>
      <trkpt lat="38.073364" lon="-6.721611">
        <ele>526.4</ele>
        <time>2009-02-06T10:49:39Z</time>
      </trkpt>
      <trkpt lat="38.073281" lon="-6.721378">
        <ele>529.1</ele>
        <time>2009-02-06T10:49:56Z</time>
      </trkpt>
      <trkpt lat="38.073202" lon="-6.721033">
        <ele>529.7</ele>
        <time>2009-02-06T10:50:19Z</time>
      </trkpt>
      <trkpt lat="38.072988" lon="-6.720680">
        <ele>532.2</ele>
        <time>2009-02-06T10:50:43Z</time>
      </trkpt>
      <trkpt lat="38.072795" lon="-6.720385">
        <ele>533.7</ele>
        <time>2009-02-06T10:51:06Z</time>
      </trkpt>
      <trkpt lat="38.072674" lon="-6.720298">
        <ele>535.8</ele>
        <time>2009-02-06T10:51:20Z</time>
      </trkpt>
      <trkpt lat="38.072618" lon="-6.720262">
        <ele>536.8</ele>
        <time>2009-02-06T10:51:27Z</time>
      </trkpt>
      <trkpt lat="38.072465" lon="-6.720141">
        <ele>537.7</ele>
        <time>2009-02-06T10:51:44Z</time>
      </trkpt>
      <trkpt lat="38.072377" lon="-6.720051">
        <ele>538.9</ele>
        <time>2009-02-06T10:51:55Z</time>
      </trkpt>
      <trkpt lat="38.072269" lon="-6.719903">
        <ele>539.5</ele>
        <time>2009-02-06T10:52:12Z</time>
      </trkpt>
      <trkpt lat="38.072227" lon="-6.719815">
        <ele>540.4</ele>
        <time>2009-02-06T10:52:24Z</time>
      </trkpt>
      <trkpt lat="38.072099" lon="-6.719609">
        <ele>541.9</ele>
        <time>2009-02-06T10:52:45Z</time>
      </trkpt>
      <trkpt lat="38.072084" lon="-6.719352">
        <ele>543.2</ele>
        <time>2009-02-06T10:53:01Z</time>
      </trkpt>
      <trkpt lat="38.072115" lon="-6.719097">
        <ele>544.7</ele>
        <time>2009-02-06T10:53:20Z</time>
      </trkpt>
      <trkpt lat="38.072164" lon="-6.718957">
        <ele>551.1</ele>
        <time>2009-02-06T10:56:33Z</time>
      </trkpt>
      <trkpt lat="38.072164" lon="-6.718957">
        <ele>550.8</ele>
        <time>2009-02-06T10:56:35Z</time>
      </trkpt>
      <trkpt lat="38.072146" lon="-6.718814">
        <ele>548.9</ele>
        <time>2009-02-06T10:56:49Z</time>
      </trkpt>
      <trkpt lat="38.072125" lon="-6.718784">
        <ele>548.9</ele>
        <time>2009-02-06T10:56:53Z</time>
      </trkpt>
      <trkpt lat="38.072064" lon="-6.718582">
        <ele>550.5</ele>
        <time>2009-02-06T10:57:10Z</time>
      </trkpt>
      <trkpt lat="38.072067" lon="-6.718468">
        <ele>550.5</ele>
        <time>2009-02-06T10:57:24Z</time>
      </trkpt>
      <trkpt lat="38.072096" lon="-6.718270">
        <ele>548.9</ele>
        <time>2009-02-06T10:57:43Z</time>
      </trkpt>
      <trkpt lat="38.072128" lon="-6.717958">
        <ele>548.3</ele>
        <time>2009-02-06T10:58:02Z</time>
      </trkpt>
      <trkpt lat="38.072139" lon="-6.717617">
        <ele>548.9</ele>
        <time>2009-02-06T10:58:23Z</time>
      </trkpt>
      <trkpt lat="38.072133" lon="-6.717302">
        <ele>549.9</ele>
        <time>2009-02-06T10:32:54Z</time>
      </trkpt>
      <trkpt lat="38.072111" lon="-6.717074">
        <ele>550.8</ele>
        <time>2009-02-06T10:58:58Z</time>
      </trkpt>
      <trkpt lat="38.072116" lon="-6.716932">
        <ele>551.4</ele>
        <time>2009-02-06T10:59:08Z</time>
      </trkpt>
      <trkpt lat="38.072087" lon="-6.716734">
        <ele>552.6</ele>
        <time>2009-02-06T10:24:04Z</time>
      </trkpt>
      <trkpt lat="38.072039" lon="-6.716501">
        <ele>553.5</ele>
        <time>2009-02-06T10:59:47Z</time>
      </trkpt>
      <trkpt lat="38.072003" lon="-6.716243">
        <ele>554.7</ele>
        <time>2009-02-06T11:00:04Z</time>
      </trkpt>
      <trkpt lat="38.072003" lon="-6.716243">
        <ele>554.7</ele>
        <time>2009-02-06T11:00:09Z</time>
      </trkpt>
      <trkpt lat="38.072004" lon="-6.716186">
        <ele>554.7</ele>
        <time>2009-02-06T11:00:15Z</time>
      </trkpt>
      <trkpt lat="38.071925" lon="-6.715840">
        <ele>556.3</ele>
        <time>2009-02-06T11:00:34Z</time>
      </trkpt>
      <trkpt lat="38.071845" lon="-6.715523">
        <ele>557.2</ele>
        <time>2009-02-06T11:00:53Z</time>
      </trkpt>
      <trkpt lat="38.071806" lon="-6.715321">
        <ele>557.2</ele>
        <time>2009-02-06T11:01:14Z</time>
      </trkpt>
      <trkpt lat="38.071806" lon="-6.715321">
        <ele>558.1</ele>
        <time>2009-02-06T11:01:23Z</time>
      </trkpt>
      <trkpt lat="38.071679" lon="-6.715087">
        <ele>559.0</ele>
        <time>2009-02-06T11:01:40Z</time>
      </trkpt>
      <trkpt lat="38.071603" lon="-6.714627">
        <ele>561.1</ele>
        <time>2009-02-06T11:02:13Z</time>
      </trkpt>
      <trkpt lat="38.071591" lon="-6.714313">
        <ele>561.4</ele>
        <time>2009-02-06T11:02:32Z</time>
      </trkpt>
      <trkpt lat="38.071673" lon="-6.713862">
        <ele>562.4</ele>
        <time>2009-02-06T11:02:58Z</time>
      </trkpt>
      <trkpt lat="38.071771" lon="-6.713582">
        <ele>562.7</ele>
        <time>2009-02-06T11:03:16Z</time>
      </trkpt>
      <trkpt lat="38.071869" lon="-6.713330">
        <ele>562.7</ele>
        <time>2009-02-06T11:03:33Z</time>
      </trkpt>
      <trkpt lat="38.071871" lon="-6.713274">
        <ele>562.7</ele>
        <time>2009-02-06T11:03:38Z</time>
      </trkpt>
      <trkpt lat="38.071829" lon="-6.713186">
        <ele>562.7</ele>
        <time>2009-02-06T11:03:58Z</time>
      </trkpt>
      <trkpt lat="38.071785" lon="-6.713155">
        <ele>563.9</ele>
        <time>2009-02-06T11:04:15Z</time>
      </trkpt>
      <trkpt lat="38.071653" lon="-6.713063">
        <ele>564.5</ele>
        <time>2009-02-06T11:04:34Z</time>
      </trkpt>
      <trkpt lat="38.071476" lon="-6.712969">
        <ele>566.3</ele>
        <time>2009-02-06T11:04:53Z</time>
      </trkpt>
      <trkpt lat="38.071211" lon="-6.712784">
        <ele>567.2</ele>
        <time>2009-02-06T11:05:16Z</time>
      </trkpt>
      <trkpt lat="38.070991" lon="-6.712631">
        <ele>568.8</ele>
        <time>2009-02-06T11:05:35Z</time>
      </trkpt>
      <trkpt lat="38.070727" lon="-6.712417">
        <ele>572.1</ele>
        <time>2009-02-06T11:05:58Z</time>
      </trkpt>
      <trkpt lat="38.070484" lon="-6.712263">
        <ele>574.2</ele>
        <time>2009-02-06T11:06:20Z</time>
      </trkpt>
      <trkpt lat="38.070331" lon="-6.712142">
        <ele>576.1</ele>
        <time>2009-02-06T11:06:36Z</time>
      </trkpt>
      <trkpt lat="38.070287" lon="-6.712111">
        <ele>575.8</ele>
        <time>2009-02-06T11:06:38Z</time>
      </trkpt>
      <trkpt lat="38.070133" lon="-6.711989">
        <ele>577.9</ele>
        <time>2009-02-06T11:06:55Z</time>
      </trkpt>
      <trkpt lat="38.069979" lon="-6.711867">
        <ele>578.8</ele>
        <time>2009-02-06T11:07:11Z</time>
      </trkpt>
      <trkpt lat="38.069824" lon="-6.711774">
        <ele>581.3</ele>
        <time>2009-02-06T11:07:25Z</time>
      </trkpt>
      <trkpt lat="38.069716" lon="-6.711626">
        <ele>581.3</ele>
        <time>2009-02-06T11:07:39Z</time>
      </trkpt>
      <trkpt lat="38.069609" lon="-6.711450">
        <ele>584.0</ele>
        <time>2009-02-06T11:07:56Z</time>
      </trkpt>
      <trkpt lat="38.069438" lon="-6.711156">
        <ele>587.3</ele>
        <time>2009-02-06T11:08:19Z</time>
      </trkpt>
      <trkpt lat="38.069288" lon="-6.710921">
        <ele>589.8</ele>
        <time>2009-02-06T11:08:38Z</time>
      </trkpt>
      <trkpt lat="38.069117" lon="-6.710656">
        <ele>591.3</ele>
        <time>2009-02-06T11:09:02Z</time>
      </trkpt>
      <trkpt lat="38.068901" lon="-6.710360">
        <ele>589.8</ele>
        <time>2009-02-06T11:09:23Z</time>
      </trkpt>
      <trkpt lat="38.068731" lon="-6.710038">
        <ele>589.8</ele>
        <time>2009-02-06T11:09:46Z</time>
      </trkpt>
      <trkpt lat="38.068647" lon="-6.709834">
        <ele>593.1</ele>
        <time>2009-02-06T11:10:21Z</time>
      </trkpt>
      <trkpt lat="38.068605" lon="-6.709747">
        <ele>593.1</ele>
        <time>2009-02-06T11:10:28Z</time>
      </trkpt>
      <trkpt lat="38.068477" lon="-6.709512">
        <ele>593.8</ele>
        <time>2009-02-06T11:10:45Z</time>
      </trkpt>
      <trkpt lat="38.068284" lon="-6.709218">
        <ele>591.9</ele>
        <time>2009-02-06T11:11:04Z</time>
      </trkpt>
      <trkpt lat="38.068046" lon="-6.708893">
        <ele>591.3</ele>
        <time>2009-02-06T11:11:29Z</time>
      </trkpt>
      <trkpt lat="38.067852" lon="-6.708626">
        <ele>589.8</ele>
        <time>2009-02-06T11:11:51Z</time>
      </trkpt>
      <trkpt lat="38.067745" lon="-6.708450">
        <ele>589.8</ele>
        <time>2009-02-06T11:12:07Z</time>
      </trkpt>
      <trkpt lat="38.067550" lon="-6.708212">
        <ele>589.8</ele>
        <time>2009-02-06T11:12:26Z</time>
      </trkpt>
      <trkpt lat="38.067359" lon="-6.707832">
        <ele>589.8</ele>
        <time>2009-02-06T11:12:51Z</time>
      </trkpt>
      <trkpt lat="38.067319" lon="-6.707659">
        <ele>589.2</ele>
        <time>2009-02-06T11:13:38Z</time>
      </trkpt>
      <trkpt lat="38.067319" lon="-6.707659">
        <ele>589.2</ele>
        <time>2009-02-06T11:13:55Z</time>
      </trkpt>
      <trkpt lat="38.067266" lon="-6.707229">
        <ele>589.8</ele>
        <time>2009-02-06T11:14:18Z</time>
      </trkpt>
      <trkpt lat="38.067248" lon="-6.707058">
        <ele>589.8</ele>
        <time>2009-02-06T11:14:28Z</time>
      </trkpt>
      <trkpt lat="38.067248" lon="-6.707058">
        <ele>589.8</ele>
        <time>2009-02-06T11:14:32Z</time>
      </trkpt>
      <trkpt lat="38.067259" lon="-6.706716">
        <ele>591.3</ele>
        <time>2009-02-06T11:14:51Z</time>
      </trkpt>
      <trkpt lat="38.067248" lon="-6.706345">
        <ele>591.3</ele>
        <time>2009-02-06T11:15:12Z</time>
      </trkpt>
      <trkpt lat="38.067236" lon="-6.706031">
        <ele>591.3</ele>
        <time>2009-02-06T11:15:27Z</time>
      </trkpt>
      <trkpt lat="38.067203" lon="-6.705631">
        <ele>591.3</ele>
        <time>2009-02-06T11:15:50Z</time>
      </trkpt>
      <trkpt lat="38.067130" lon="-6.705115">
        <ele>591.9</ele>
        <time>2009-02-06T11:16:18Z</time>
      </trkpt>
      <trkpt lat="38.067094" lon="-6.704828">
        <ele>592.2</ele>
        <time>2009-02-06T11:16:39Z</time>
      </trkpt>
      <trkpt lat="38.067255" lon="-6.704722">
        <ele>591.3</ele>
        <time>2009-02-06T13:56:07Z</time>
      </trkpt>
      <trkpt lat="38.067528" lon="-6.704622">
        <ele>591.3</ele>
        <time>2009-02-06T13:56:21Z</time>
      </trkpt>
      <trkpt lat="38.067717" lon="-6.704347">
        <ele>589.2</ele>
        <time>2009-02-06T13:56:35Z</time>
      </trkpt>
      <trkpt lat="38.067925" lon="-6.704158">
        <ele>589.2</ele>
        <time>2009-02-06T13:56:54Z</time>
      </trkpt>
      <trkpt lat="38.068086" lon="-6.704080">
        <ele>589.8</ele>
        <time>2009-02-06T13:57:05Z</time>
      </trkpt>
      <trkpt lat="38.068202" lon="-6.703972">
        <ele>589.8</ele>
        <time>2009-02-06T13:57:19Z</time>
      </trkpt>
      <trkpt lat="38.068271" lon="-6.703919">
        <ele>589.8</ele>
        <time>2009-02-06T12:45:05Z</time>
      </trkpt>
      <trkpt lat="38.068387" lon="-6.703811">
        <ele>589.5</ele>
        <time>2009-02-06T12:45:05Z</time>
      </trkpt>
      <trkpt lat="38.068434" lon="-6.703756">
        <ele>589.2</ele>
        <time>2009-02-06T13:58:00Z</time>
      </trkpt>
      <trkpt lat="38.068525" lon="-6.703704">
        <ele>588.0</ele>
        <time>2009-02-06T13:58:32Z</time>
      </trkpt>
      <trkpt lat="38.068664" lon="-6.703596">
        <ele>588.0</ele>
        <time>2009-02-06T13:58:49Z</time>
      </trkpt>
      <trkpt lat="38.068664" lon="-6.703596">
        <ele>589.2</ele>
        <time>2009-02-06T13:59:07Z</time>
      </trkpt>
      <trkpt lat="38.068664" lon="-6.703596">
        <ele>590.4</ele>
        <time>2009-02-06T13:59:22Z</time>
      </trkpt>
      <trkpt lat="38.068626" lon="-6.703366">
        <ele>589.8</ele>
        <time>2009-02-06T13:59:36Z</time>
      </trkpt>
      <trkpt lat="38.068543" lon="-6.703134">
        <ele>589.8</ele>
        <time>2009-02-06T13:59:50Z</time>
      </trkpt>
      <trkpt lat="38.068457" lon="-6.703016">
        <ele>591.3</ele>
        <time>2009-02-06T13:59:59Z</time>
      </trkpt>
      <trkpt lat="38.068263" lon="-6.702721">
        <ele>593.8</ele>
        <time>2009-02-06T14:00:18Z</time>
      </trkpt>
      <trkpt lat="38.068067" lon="-6.702512">
        <ele>593.8</ele>
        <time>2009-02-06T14:00:34Z</time>
      </trkpt>
      <trkpt lat="38.067854" lon="-6.702131">
        <ele>593.8</ele>
        <time>2009-02-06T14:01:00Z</time>
      </trkpt>
      <trkpt lat="38.067683" lon="-6.701837">
        <ele>593.8</ele>
        <time>2009-02-06T14:01:21Z</time>
      </trkpt>
      <trkpt lat="38.067621" lon="-6.701663">
        <ele>595.0</ele>
        <time>2009-02-06T14:01:33Z</time>
      </trkpt>
      <trkpt lat="38.067724" lon="-6.701269">
        <ele>595.0</ele>
        <time>2009-02-06T14:01:57Z</time>
      </trkpt>
      <trkpt lat="38.067800" lon="-6.700988">
        <ele>595.0</ele>
        <time>2009-02-06T14:02:17Z</time>
      </trkpt>
      <trkpt lat="38.067852" lon="-6.700763">
        <ele>595.6</ele>
        <time>2009-02-06T14:02:36Z</time>
      </trkpt>
      <trkpt lat="38.067901" lon="-6.700652">
        <ele>597.7</ele>
        <time>2009-02-06T14:02:51Z</time>
      </trkpt>
      <trkpt lat="38.067953" lon="-6.700426">
        <ele>597.1</ele>
        <time>2009-02-06T14:03:37Z</time>
      </trkpt>
      <trkpt lat="38.068005" lon="-6.700201">
        <ele>601.4</ele>
        <time>2009-02-06T14:04:03Z</time>
      </trkpt>
      <trkpt lat="38.068102" lon="-6.699978">
        <ele>603.5</ele>
        <time>2009-02-06T14:04:20Z</time>
      </trkpt>
      <trkpt lat="38.068184" lon="-6.699527">
        <ele>602.9</ele>
        <time>2009-02-06T14:04:45Z</time>
      </trkpt>
      <trkpt lat="38.068354" lon="-6.699136">
        <ele>604.7</ele>
        <time>2009-02-06T14:05:09Z</time>
      </trkpt>
      <trkpt lat="38.068586" lon="-6.698920">
        <ele>607.8</ele>
        <time>2009-02-06T14:05:30Z</time>
      </trkpt>
      <trkpt lat="38.068797" lon="-6.698646">
        <ele>609.6</ele>
        <time>2009-02-06T14:05:56Z</time>
      </trkpt>
      <trkpt lat="38.069013" lon="-6.698230">
        <ele>611.1</ele>
        <time>2009-02-06T14:06:24Z</time>
      </trkpt>
      <trkpt lat="38.069206" lon="-6.697840">
        <ele>613.3</ele>
        <time>2009-02-06T14:06:48Z</time>
      </trkpt>
      <trkpt lat="38.069398" lon="-6.697451">
        <ele>615.1</ele>
        <time>2009-02-06T14:07:13Z</time>
      </trkpt>
      <trkpt lat="38.069564" lon="-6.697175">
        <ele>617.2</ele>
        <time>2009-02-06T14:07:32Z</time>
      </trkpt>
      <trkpt lat="38.069683" lon="-6.696981">
        <ele>618.7</ele>
        <time>2009-02-06T14:07:51Z</time>
      </trkpt>
      <trkpt lat="38.069683" lon="-6.696981">
        <ele>619.0</ele>
        <time>2009-02-06T14:08:05Z</time>
      </trkpt>
      <trkpt lat="38.069730" lon="-6.696927">
        <ele>618.7</ele>
        <time>2009-02-06T14:08:10Z</time>
      </trkpt>
      <trkpt lat="38.070024" lon="-6.696885">
        <ele>619.7</ele>
        <time>2009-02-06T14:08:31Z</time>
      </trkpt>
      <trkpt lat="38.070320" lon="-6.696786">
        <ele>620.6</ele>
        <time>2009-02-06T14:08:54Z</time>
      </trkpt>
      <trkpt lat="38.070528" lon="-6.696597">
        <ele>619.0</ele>
        <time>2009-02-06T14:09:13Z</time>
      </trkpt>
      <trkpt lat="38.070741" lon="-6.696294">
        <ele>616.9</ele>
        <time>2009-02-06T14:09:36Z</time>
      </trkpt>
      <trkpt lat="38.070929" lon="-6.696019">
        <ele>615.4</ele>
        <time>2009-02-06T14:09:55Z</time>
      </trkpt>
      <trkpt lat="38.071072" lon="-6.695769">
        <ele>615.1</ele>
        <time>2009-02-06T14:10:12Z</time>
      </trkpt>
      <trkpt lat="38.071260" lon="-6.695523">
        <ele>613.6</ele>
        <time>2009-02-06T14:10:31Z</time>
      </trkpt>
      <trkpt lat="38.071401" lon="-6.695359">
        <ele>612.3</ele>
        <time>2009-02-06T14:10:45Z</time>
      </trkpt>
      <trkpt lat="38.071629" lon="-6.695256">
        <ele>610.8</ele>
        <time>2009-02-06T14:11:03Z</time>
      </trkpt>
      <trkpt lat="38.071835" lon="-6.695153">
        <ele>608.1</ele>
        <time>2009-02-06T14:11:22Z</time>
      </trkpt>
      <trkpt lat="38.072042" lon="-6.695021">
        <ele>606.6</ele>
        <time>2009-02-06T14:11:37Z</time>
      </trkpt>
      <trkpt lat="38.072134" lon="-6.694940">
        <ele>605.3</ele>
        <time>2009-02-06T14:11:51Z</time>
      </trkpt>
      <trkpt lat="38.072134" lon="-6.694940">
        <ele>605.3</ele>
        <time>2009-02-06T14:12:16Z</time>
      </trkpt>
      <trkpt lat="38.072134" lon="-6.694940">
        <ele>605.6</ele>
        <time>2009-02-06T14:12:28Z</time>
      </trkpt>
      <trkpt lat="38.072228" lon="-6.694831">
        <ele>605.3</ele>
        <time>2009-02-06T14:14:16Z</time>
      </trkpt>
      <trkpt lat="38.072231" lon="-6.694717">
        <ele>604.7</ele>
        <time>2009-02-06T14:14:47Z</time>
      </trkpt>
      <trkpt lat="38.072235" lon="-6.694603">
        <ele>603.2</ele>
        <time>2009-02-06T14:15:12Z</time>
      </trkpt>
      <trkpt lat="38.072285" lon="-6.694435">
        <ele>601.4</ele>
        <time>2009-02-06T14:15:29Z</time>
      </trkpt>
      <trkpt lat="38.072293" lon="-6.694207">
        <ele>599.5</ele>
        <time>2009-02-06T14:16:04Z</time>
      </trkpt>
      <trkpt lat="38.072293" lon="-6.694207">
        <ele>599.2</ele>
        <time>2009-02-06T14:16:21Z</time>
      </trkpt>
      <trkpt lat="38.072299" lon="-6.694008">
        <ele>597.4</ele>
        <time>2009-02-06T14:16:44Z</time>
      </trkpt>
      <trkpt lat="38.072219" lon="-6.693691">
        <ele>595.0</ele>
        <time>2009-02-06T14:17:05Z</time>
      </trkpt>
      <trkpt lat="38.072159" lon="-6.693431">
        <ele>593.8</ele>
        <time>2009-02-06T14:17:24Z</time>
      </trkpt>
      <trkpt lat="38.072140" lon="-6.693316">
        <ele>593.8</ele>
        <time>2009-02-06T14:17:33Z</time>
      </trkpt>
      <trkpt lat="38.072102" lon="-6.693115">
        <ele>593.8</ele>
        <time>2009-02-06T14:17:54Z</time>
      </trkpt>
      <trkpt lat="38.072106" lon="-6.692973">
        <ele>593.1</ele>
        <time>2009-02-06T14:18:11Z</time>
      </trkpt>
      <trkpt lat="38.072227" lon="-6.692722">
        <ele>589.8</ele>
        <time>2009-02-06T14:19:38Z</time>
      </trkpt>
      <trkpt lat="38.072301" lon="-6.692498">
        <ele>589.2</ele>
        <time>2009-02-06T14:19:54Z</time>
      </trkpt>
      <trkpt lat="38.072353" lon="-6.692273">
        <ele>588.6</ele>
        <time>2009-02-06T14:20:24Z</time>
      </trkpt>
      <trkpt lat="38.072406" lon="-6.692019">
        <ele>588.6</ele>
        <time>2009-02-06T14:20:41Z</time>
      </trkpt>
      <trkpt lat="38.072461" lon="-6.691709">
        <ele>585.5</ele>
        <time>2009-02-06T14:21:02Z</time>
      </trkpt>
      <trkpt lat="38.072560" lon="-6.691429">
        <ele>584.0</ele>
        <time>2009-02-06T14:21:21Z</time>
      </trkpt>
      <trkpt lat="38.072608" lon="-6.691346">
        <ele>581.6</ele>
        <time>2009-02-06T14:50:54Z</time>
      </trkpt>
      <trkpt lat="38.072708" lon="-6.691037">
        <ele>582.2</ele>
        <time>2009-02-06T14:51:17Z</time>
      </trkpt>
      <trkpt lat="38.072708" lon="-6.691037">
        <ele>581.6</ele>
        <time>2009-02-06T14:51:20Z</time>
      </trkpt>
      <trkpt lat="38.072805" lon="-6.690786">
        <ele>584.0</ele>
        <time>2009-02-06T14:51:48Z</time>
      </trkpt>
      <trkpt lat="38.072900" lon="-6.690648">
        <ele>588.0</ele>
        <time>2009-02-06T14:52:48Z</time>
      </trkpt>
      <trkpt lat="38.073042" lon="-6.690427">
        <ele>594.4</ele>
        <time>2009-02-06T14:53:35Z</time>
      </trkpt>
      <trkpt lat="38.073274" lon="-6.690211">
        <ele>595.0</ele>
        <time>2009-02-06T14:53:57Z</time>
      </trkpt>
      <trkpt lat="38.073502" lon="-6.690109">
        <ele>595.6</ele>
        <time>2009-02-06T14:54:15Z</time>
      </trkpt>
      <trkpt lat="38.073775" lon="-6.690037">
        <ele>596.2</ele>
        <time>2009-02-06T14:54:34Z</time>
      </trkpt>
      <trkpt lat="38.074047" lon="-6.689965">
        <ele>597.1</ele>
        <time>2009-02-06T14:54:56Z</time>
      </trkpt>
      <trkpt lat="38.074366" lon="-6.689867">
        <ele>596.2</ele>
        <time>2009-02-06T14:55:19Z</time>
      </trkpt>
      <trkpt lat="38.074639" lon="-6.689767">
        <ele>597.4</ele>
        <time>2009-02-06T14:55:40Z</time>
      </trkpt>
      <trkpt lat="38.074960" lon="-6.689584">
        <ele>600.8</ele>
        <time>2009-02-06T14:56:04Z</time>
      </trkpt>
      <trkpt lat="38.075145" lon="-6.689451">
        <ele>600.8</ele>
        <time>2009-02-06T14:56:20Z</time>
      </trkpt>
      <trkpt lat="38.075376" lon="-6.689263">
        <ele>600.2</ele>
        <time>2009-02-06T14:56:39Z</time>
      </trkpt>
      <trkpt lat="38.075605" lon="-6.689132">
        <ele>599.2</ele>
        <time>2009-02-06T14:57:00Z</time>
      </trkpt>
      <trkpt lat="38.075652" lon="-6.689077">
        <ele>599.5</ele>
        <time>2009-02-06T14:57:07Z</time>
      </trkpt>
      <trkpt lat="38.075929" lon="-6.688863">
        <ele>600.2</ele>
        <time>2009-02-06T14:57:28Z</time>
      </trkpt>
      <trkpt lat="38.076273" lon="-6.688653">
        <ele>601.4</ele>
        <time>2009-02-06T14:57:56Z</time>
      </trkpt>
      <trkpt lat="38.076530" lon="-6.688352">
        <ele>602.0</ele>
        <time>2009-02-06T14:58:18Z</time>
      </trkpt>
      <trkpt lat="38.076741" lon="-6.688106">
        <ele>603.2</ele>
        <time>2009-02-06T14:58:39Z</time>
      </trkpt>
      <trkpt lat="38.076952" lon="-6.687832">
        <ele>601.4</ele>
        <time>2009-02-06T14:59:00Z</time>
      </trkpt>
      <trkpt lat="38.077161" lon="-6.687615">
        <ele>598.9</ele>
        <time>2009-02-06T14:59:19Z</time>
      </trkpt>
      <trkpt lat="38.077231" lon="-6.687561">
        <ele>598.0</ele>
        <time>2009-02-06T14:59:35Z</time>
      </trkpt>
      <trkpt lat="38.077418" lon="-6.687343">
        <ele>597.4</ele>
        <time>2009-02-06T14:59:54Z</time>
      </trkpt>
      <trkpt lat="38.077650" lon="-6.687127">
        <ele>594.4</ele>
        <time>2009-02-06T15:00:15Z</time>
      </trkpt>
      <trkpt lat="38.077880" lon="-6.686967">
        <ele>591.6</ele>
        <time>2009-02-06T15:00:36Z</time>
      </trkpt>
      <trkpt lat="38.078113" lon="-6.686722">
        <ele>587.3</ele>
        <time>2009-02-06T15:00:59Z</time>
      </trkpt>
      <trkpt lat="38.078342" lon="-6.686592">
        <ele>584.0</ele>
        <time>2009-02-06T15:01:18Z</time>
      </trkpt>
      <trkpt lat="38.078576" lon="-6.686318">
        <ele>578.8</ele>
        <time>2009-02-06T15:01:41Z</time>
      </trkpt>
      <trkpt lat="38.078720" lon="-6.686041">
        <ele>573.0</ele>
        <time>2009-02-06T15:02:03Z</time>
      </trkpt>
      <trkpt lat="38.078909" lon="-6.685765">
        <ele>570.0</ele>
        <time>2009-02-06T15:02:26Z</time>
      </trkpt>
      <trkpt lat="38.079122" lon="-6.685434">
        <ele>564.8</ele>
        <time>2009-02-06T15:02:50Z</time>
      </trkpt>
      <trkpt lat="38.079310" lon="-6.685159">
        <ele>562.4</ele>
        <time>2009-02-06T15:03:11Z</time>
      </trkpt>
      <trkpt lat="38.079544" lon="-6.684885">
        <ele>559.9</ele>
        <time>2009-02-06T15:03:32Z</time>
      </trkpt>
      <trkpt lat="38.079711" lon="-6.684581">
        <ele>558.4</ele>
        <time>2009-02-06T15:03:53Z</time>
      </trkpt>
      <trkpt lat="38.079768" lon="-6.684213">
        <ele>556.9</ele>
        <time>2009-02-06T15:04:14Z</time>
      </trkpt>
      <trkpt lat="38.079777" lon="-6.683929">
        <ele>554.7</ele>
        <time>2009-02-06T15:04:30Z</time>
      </trkpt>
      <trkpt lat="38.079924" lon="-6.683537">
        <ele>554.1</ele>
        <time>2009-02-06T15:04:54Z</time>
      </trkpt>
      <trkpt lat="38.080025" lon="-6.683200">
        <ele>556.3</ele>
        <time>2009-02-06T15:05:13Z</time>
      </trkpt>
      <trkpt lat="38.080101" lon="-6.682919">
        <ele>556.6</ele>
        <time>2009-02-06T15:05:32Z</time>
      </trkpt>
      <trkpt lat="38.080152" lon="-6.682751">
        <ele>558.1</ele>
        <time>2009-02-06T15:06:09Z</time>
      </trkpt>
      <trkpt lat="38.080224" lon="-6.682583">
        <ele>556.3</ele>
        <time>2009-02-06T15:06:26Z</time>
      </trkpt>
      <trkpt lat="38.080303" lon="-6.682245">
        <ele>554.1</ele>
        <time>2009-02-06T15:06:47Z</time>
      </trkpt>
      <trkpt lat="38.080379" lon="-6.681964">
        <ele>552.3</ele>
        <time>2009-02-06T15:07:43Z</time>
      </trkpt>
      <trkpt lat="38.080379" lon="-6.681964">
        <ele>551.1</ele>
        <time>2009-02-06T15:11:36Z</time>
      </trkpt>
      <trkpt lat="38.080433" lon="-6.681682">
        <ele>552.9</ele>
        <time>2009-02-06T15:11:59Z</time>
      </trkpt>
      <trkpt lat="38.080490" lon="-6.681286">
        <ele>552.9</ele>
        <time>2009-02-06T15:12:22Z</time>
      </trkpt>
      <trkpt lat="38.080593" lon="-6.680892">
        <ele>552.9</ele>
        <time>2009-02-06T15:12:44Z</time>
      </trkpt>
      <trkpt lat="38.080648" lon="-6.680582">
        <ele>551.4</ele>
        <time>2009-02-06T15:13:02Z</time>
      </trkpt>
      <trkpt lat="38.080727" lon="-6.680215">
        <ele>550.8</ele>
        <time>2009-02-06T15:13:21Z</time>
      </trkpt>
      <trkpt lat="38.080758" lon="-6.679932">
        <ele>550.5</ele>
        <time>2009-02-06T15:13:36Z</time>
      </trkpt>
      <trkpt lat="38.080772" lon="-6.679477">
        <ele>549.6</ele>
        <time>2009-02-06T15:13:59Z</time>
      </trkpt>
      <trkpt lat="38.080823" lon="-6.679308">
        <ele>548.9</ele>
        <time>2009-02-06T15:14:15Z</time>
      </trkpt>
      <trkpt lat="38.080882" lon="-6.678856">
        <ele>550.5</ele>
        <time>2009-02-06T15:14:39Z</time>
      </trkpt>
      <trkpt lat="38.080919" lon="-6.678402">
        <ele>552.9</ele>
        <time>2009-02-06T15:15:07Z</time>
      </trkpt>
      <trkpt lat="38.080954" lon="-6.677976">
        <ele>548.9</ele>
        <time>2009-02-06T15:15:30Z</time>
      </trkpt>
      <trkpt lat="38.080921" lon="-6.677604">
        <ele>545.6</ele>
        <time>2009-02-06T15:15:49Z</time>
      </trkpt>
      <trkpt lat="38.080928" lon="-6.677376">
        <ele>545.6</ele>
        <time>2009-02-06T15:16:06Z</time>
      </trkpt>
      <trkpt lat="38.080928" lon="-6.677376">
        <ele>545.6</ele>
        <time>2009-02-06T15:16:17Z</time>
      </trkpt>
      <trkpt lat="38.080915" lon="-6.677091">
        <ele>543.8</ele>
        <time>2009-02-06T15:16:36Z</time>
      </trkpt>
      <trkpt lat="38.080906" lon="-6.676635">
        <ele>540.4</ele>
        <time>2009-02-06T15:16:59Z</time>
      </trkpt>
      <trkpt lat="38.080919" lon="-6.676236">
        <ele>537.7</ele>
        <time>2009-02-06T15:17:18Z</time>
      </trkpt>
      <trkpt lat="38.080931" lon="-6.675838">
        <ele>534.6</ele>
        <time>2009-02-06T15:17:40Z</time>
      </trkpt>
      <trkpt lat="38.081013" lon="-6.675386">
        <ele>531.9</ele>
        <time>2009-02-06T15:18:03Z</time>
      </trkpt>
      <trkpt lat="38.081185" lon="-6.674939">
        <ele>529.1</ele>
        <time>2009-02-06T15:18:29Z</time>
      </trkpt>
      <trkpt lat="38.081190" lon="-6.674768">
        <ele>529.4</ele>
        <time>2009-02-06T15:18:41Z</time>
      </trkpt>
      <trkpt lat="38.081132" lon="-6.674452">
        <ele>529.4</ele>
        <time>2009-02-06T15:19:00Z</time>
      </trkpt>
      <trkpt lat="38.081118" lon="-6.674195">
        <ele>529.4</ele>
        <time>2009-02-06T15:19:14Z</time>
      </trkpt>
      <trkpt lat="38.081121" lon="-6.674110">
        <ele>529.7</ele>
        <time>2009-02-06T15:19:21Z</time>
      </trkpt>
      <trkpt lat="38.081078" lon="-6.674022">
        <ele>529.7</ele>
        <time>2009-02-06T15:19:35Z</time>
      </trkpt>
      <trkpt lat="38.081039" lon="-6.673849">
        <ele>531.9</ele>
        <time>2009-02-06T15:19:51Z</time>
      </trkpt>
      <trkpt lat="38.080979" lon="-6.673590">
        <ele>533.7</ele>
        <time>2009-02-06T15:20:08Z</time>
      </trkpt>
      <trkpt lat="38.080895" lon="-6.673386">
        <ele>539.5</ele>
        <time>2009-02-06T15:20:26Z</time>
      </trkpt>
      <trkpt lat="38.080837" lon="-6.673097">
        <ele>545.3</ele>
        <time>2009-02-06T15:20:45Z</time>
      </trkpt>
      <trkpt lat="38.080801" lon="-6.672810">
        <ele>548.9</ele>
        <time>2009-02-06T15:21:04Z</time>
      </trkpt>
      <trkpt lat="38.080722" lon="-6.672466">
        <ele>551.4</ele>
        <time>2009-02-06T15:21:25Z</time>
      </trkpt>
      <trkpt lat="38.080687" lon="-6.672122">
        <ele>551.4</ele>
        <time>2009-02-06T15:21:44Z</time>
      </trkpt>
      <trkpt lat="38.080561" lon="-6.671831">
        <ele>548.9</ele>
        <time>2009-02-06T15:22:03Z</time>
      </trkpt>
      <trkpt lat="38.080519" lon="-6.671743">
        <ele>548.3</ele>
        <time>2009-02-06T15:24:09Z</time>
      </trkpt>
      <trkpt lat="38.080477" lon="-6.671656">
        <ele>547.1</ele>
        <time>2009-02-06T15:24:26Z</time>
      </trkpt>
      <trkpt lat="38.080477" lon="-6.671656">
        <ele>550.8</ele>
        <time>2009-02-06T15:24:59Z</time>
      </trkpt>
      <trkpt lat="38.080351" lon="-6.671364">
        <ele>545.3</ele>
        <time>2009-02-06T15:25:20Z</time>
      </trkpt>
      <trkpt lat="38.080225" lon="-6.671073">
        <ele>541.3</ele>
        <time>2009-02-06T15:25:38Z</time>
      </trkpt>
      <trkpt lat="38.080142" lon="-6.670841">
        <ele>538.0</ele>
        <time>2009-02-06T15:25:55Z</time>
      </trkpt>
      <trkpt lat="38.080038" lon="-6.670551">
        <ele>537.4</ele>
        <time>2009-02-06T15:26:14Z</time>
      </trkpt>
      <trkpt lat="38.079935" lon="-6.670261">
        <ele>534.6</ele>
        <time>2009-02-06T15:26:33Z</time>
      </trkpt>
      <trkpt lat="38.079766" lon="-6.669910">
        <ele>531.9</ele>
        <time>2009-02-06T15:26:56Z</time>
      </trkpt>
      <trkpt lat="38.079702" lon="-6.669793">
        <ele>532.2</ele>
        <time>2009-02-06T15:27:03Z</time>
      </trkpt>
      <trkpt lat="38.079555" lon="-6.669444">
        <ele>533.1</ele>
        <time>2009-02-06T15:27:26Z</time>
      </trkpt>
      <trkpt lat="38.079513" lon="-6.669328">
        <ele>533.4</ele>
        <time>2009-02-06T15:27:38Z</time>
      </trkpt>
      <trkpt lat="38.079388" lon="-6.669008">
        <ele>532.2</ele>
        <time>2009-02-06T15:27:57Z</time>
      </trkpt>
      <trkpt lat="38.079305" lon="-6.668805">
        <ele>533.4</ele>
        <time>2009-02-06T15:28:18Z</time>
      </trkpt>
      <trkpt lat="38.079221" lon="-6.668601">
        <ele>533.1</ele>
        <time>2009-02-06T15:28:32Z</time>
      </trkpt>
      <trkpt lat="38.079054" lon="-6.668165">
        <ele>533.4</ele>
        <time>2009-02-06T15:28:58Z</time>
      </trkpt>
      <trkpt lat="38.078863" lon="-6.667814">
        <ele>531.9</ele>
        <time>2009-02-06T15:29:22Z</time>
      </trkpt>
      <trkpt lat="38.078758" lon="-6.667552">
        <ele>531.3</ele>
        <time>2009-02-06T15:29:38Z</time>
      </trkpt>
      <trkpt lat="38.078716" lon="-6.667465">
        <ele>531.3</ele>
        <time>2009-02-06T15:29:45Z</time>
      </trkpt>
      <trkpt lat="38.078593" lon="-6.667060">
        <ele>529.1</ele>
        <time>2009-02-06T15:30:09Z</time>
      </trkpt>
      <trkpt lat="38.078471" lon="-6.666655">
        <ele>527.6</ele>
        <time>2009-02-06T15:30:32Z</time>
      </trkpt>
      <trkpt lat="38.078433" lon="-6.666425">
        <ele>527.6</ele>
        <time>2009-02-06T15:30:46Z</time>
      </trkpt>
      <trkpt lat="38.078392" lon="-6.666309">
        <ele>527.6</ele>
        <time>2009-02-06T15:30:51Z</time>
      </trkpt>
      <trkpt lat="38.078345" lon="-6.666217">
        <ele>527.3</ele>
        <time>2009-02-06T13:35:18Z</time>
      </trkpt>
      <trkpt lat="38.078292" lon="-6.666002">
        <ele>526.7</ele>
        <time>2009-02-06T13:35:18Z</time>
      </trkpt>
      <trkpt lat="38.078266" lon="-6.665899">
        <ele>526.4</ele>
        <time>2009-02-06T13:35:18Z</time>
      </trkpt>
      <trkpt lat="38.078145" lon="-6.665556">
        <ele>525.8</ele>
        <time>2009-02-06T15:31:56Z</time>
      </trkpt>
      <trkpt lat="38.078041" lon="-6.665266">
        <ele>523.3</ele>
        <time>2009-02-06T15:32:15Z</time>
      </trkpt>
      <trkpt lat="38.077981" lon="-6.665035">
        <ele>527.9</ele>
        <time>2009-02-06T15:34:01Z</time>
      </trkpt>
      <trkpt lat="38.077907" lon="-6.664518">
        <ele>523.6</ele>
        <time>2009-02-06T15:34:22Z</time>
      </trkpt>
      <trkpt lat="38.077873" lon="-6.664175">
        <ele>523.6</ele>
        <time>2009-02-06T15:35:30Z</time>
      </trkpt>
      <trkpt lat="38.077927" lon="-6.663893">
        <ele>521.8</ele>
        <time>2009-02-06T15:36:31Z</time>
      </trkpt>
      <trkpt lat="38.078001" lon="-6.663668">
        <ele>523.3</ele>
        <time>2009-02-06T15:36:47Z</time>
      </trkpt>
      <trkpt lat="38.077982" lon="-6.663553">
        <ele>524.9</ele>
        <time>2009-02-06T15:36:59Z</time>
      </trkpt>
      <trkpt lat="38.077993" lon="-6.663212">
        <ele>520.3</ele>
        <time>2009-02-06T15:37:21Z</time>
      </trkpt>
      <trkpt lat="38.077999" lon="-6.663013">
        <ele>519.7</ele>
        <time>2009-02-06T15:37:37Z</time>
      </trkpt>
      <trkpt lat="38.078004" lon="-6.662871">
        <ele>517.6</ele>
        <time>2009-02-06T15:37:53Z</time>
      </trkpt>
      <trkpt lat="38.078007" lon="-6.662757">
        <ele>517.2</ele>
        <time>2009-02-06T15:38:03Z</time>
      </trkpt>
      <trkpt lat="38.078017" lon="-6.662444">
        <ele>517.6</ele>
        <time>2009-02-06T15:38:21Z</time>
      </trkpt>
      <trkpt lat="38.077982" lon="-6.662129">
        <ele>519.7</ele>
        <time>2009-02-06T15:38:40Z</time>
      </trkpt>
      <trkpt lat="38.077989" lon="-6.661901">
        <ele>521.8</ele>
        <time>2009-02-06T15:38:54Z</time>
      </trkpt>
      <trkpt lat="38.077887" lon="-6.661554">
        <ele>520.3</ele>
        <time>2009-02-06T15:39:15Z</time>
      </trkpt>
      <trkpt lat="38.077848" lon="-6.661353">
        <ele>519.7</ele>
        <time>2009-02-06T15:39:29Z</time>
      </trkpt>
      <trkpt lat="38.077848" lon="-6.661353">
        <ele>519.7</ele>
        <time>2009-02-06T15:39:30Z</time>
      </trkpt>
      <trkpt lat="38.077852" lon="-6.661239">
        <ele>520.3</ele>
        <time>2009-02-06T15:39:36Z</time>
      </trkpt>
      <trkpt lat="38.077880" lon="-6.661041">
        <ele>520.3</ele>
        <time>2009-02-06T15:39:51Z</time>
      </trkpt>
      <trkpt lat="38.077838" lon="-6.660954">
        <ele>520.3</ele>
        <time>2009-02-06T15:39:56Z</time>
      </trkpt>
      <trkpt lat="38.077825" lon="-6.660640">
        <ele>523.6</ele>
        <time>2009-02-06T15:40:14Z</time>
      </trkpt>
      <trkpt lat="38.077767" lon="-6.660352">
        <ele>522.1</ele>
        <time>2009-02-06T15:40:33Z</time>
      </trkpt>
      <trkpt lat="38.077594" lon="-6.660115">
        <ele>520.6</ele>
        <time>2009-02-06T15:40:52Z</time>
      </trkpt>
      <trkpt lat="38.077594" lon="-6.660115">
        <ele>520.6</ele>
        <time>2009-02-06T15:40:52Z</time>
      </trkpt>
      <trkpt lat="38.077596" lon="-6.660058">
        <ele>520.3</ele>
        <time>2009-02-06T15:40:54Z</time>
      </trkpt>
      <trkpt lat="38.077760" lon="-6.659839">
        <ele>516.0</ele>
        <time>2009-02-06T15:41:15Z</time>
      </trkpt>
      <trkpt lat="38.077807" lon="-6.659784">
        <ele>515.4</ele>
        <time>2009-02-06T15:41:20Z</time>
      </trkpt>
      <trkpt lat="38.077882" lon="-6.659560">
        <ele>511.5</ele>
        <time>2009-02-06T15:41:36Z</time>
      </trkpt>
      <trkpt lat="38.077932" lon="-6.659391">
        <ele>509.6</ele>
        <time>2009-02-06T15:41:51Z</time>
      </trkpt>
      <trkpt lat="38.077935" lon="-6.659306">
        <ele>509.6</ele>
        <time>2009-02-06T15:42:35Z</time>
      </trkpt>
      <trkpt lat="38.077906" lon="-6.659111">
        <ele>514.5</ele>
        <time>2009-02-06T12:32:44Z</time>
      </trkpt>
      <trkpt lat="38.077895" lon="-6.658951">
        <ele>518.5</ele>
        <time>2009-02-06T12:32:44Z</time>
      </trkpt>
      <trkpt lat="38.077898" lon="-6.658852">
        <ele>520.9</ele>
        <time>2009-02-06T12:32:44Z</time>
      </trkpt>
      <trkpt lat="38.077862" lon="-6.658733">
        <ele>523.6</ele>
        <time>2009-02-06T15:43:45Z</time>
      </trkpt>
      <trkpt lat="38.077778" lon="-6.658557">
        <ele>527.9</ele>
        <time>2009-02-06T15:44:02Z</time>
      </trkpt>
      <trkpt lat="38.077696" lon="-6.658297">
        <ele>531.6</ele>
        <time>2009-02-06T15:44:21Z</time>
      </trkpt>
      <trkpt lat="38.077616" lon="-6.657980">
        <ele>529.4</ele>
        <time>2009-02-06T15:44:40Z</time>
      </trkpt>
      <trkpt lat="38.077445" lon="-6.657658">
        <ele>527.3</ele>
        <time>2009-02-06T15:45:01Z</time>
      </trkpt>
      <trkpt lat="38.077342" lon="-6.657368">
        <ele>528.8</ele>
        <time>2009-02-06T15:45:22Z</time>
      </trkpt>
      <trkpt lat="38.077193" lon="-6.657075">
        <ele>531.9</ele>
        <time>2009-02-06T15:45:43Z</time>
      </trkpt>
      <trkpt lat="38.077111" lon="-6.656815">
        <ele>531.6</ele>
        <time>2009-02-06T15:46:02Z</time>
      </trkpt>
      <trkpt lat="38.076984" lon="-6.656581">
        <ele>534.9</ele>
        <time>2009-02-06T15:46:23Z</time>
      </trkpt>
      <trkpt lat="38.076897" lon="-6.656462">
        <ele>538.0</ele>
        <time>2009-02-06T15:46:41Z</time>
      </trkpt>
      <trkpt lat="38.076813" lon="-6.656287">
        <ele>541.3</ele>
        <time>2009-02-06T15:47:00Z</time>
      </trkpt>
      <trkpt lat="38.076662" lon="-6.656052">
        <ele>545.0</ele>
        <time>2009-02-06T15:47:24Z</time>
      </trkpt>
      <trkpt lat="38.076641" lon="-6.656022">
        <ele>545.6</ele>
        <time>2009-02-06T15:47:38Z</time>
      </trkpt>
      <trkpt lat="38.076576" lon="-6.655933">
        <ele>547.1</ele>
        <time>2009-02-06T15:47:47Z</time>
      </trkpt>
      <trkpt lat="38.076471" lon="-6.655672">
        <ele>548.9</ele>
        <time>2009-02-06T15:48:06Z</time>
      </trkpt>
      <trkpt lat="38.076297" lon="-6.655492">
        <ele>551.1</ele>
        <time>2009-02-06T15:48:25Z</time>
      </trkpt>
      <trkpt lat="38.076216" lon="-6.655203">
        <ele>551.4</ele>
        <time>2009-02-06T15:48:44Z</time>
      </trkpt>
      <trkpt lat="38.076180" lon="-6.654917">
        <ele>549.6</ele>
        <time>2009-02-06T15:49:02Z</time>
      </trkpt>
      <trkpt lat="38.076161" lon="-6.654802">
        <ele>549.6</ele>
        <time>2009-02-06T15:49:14Z</time>
      </trkpt>
      <trkpt lat="38.076161" lon="-6.654802">
        <ele>549.6</ele>
        <time>2009-02-06T15:50:03Z</time>
      </trkpt>
      <trkpt lat="38.076030" lon="-6.654653">
        <ele>550.5</ele>
        <time>2009-02-06T15:50:20Z</time>
      </trkpt>
      <trkpt lat="38.075901" lon="-6.654447">
        <ele>551.4</ele>
        <time>2009-02-06T15:50:36Z</time>
      </trkpt>
      <trkpt lat="38.075841" lon="-6.654216">
        <ele>552.3</ele>
        <time>2009-02-06T15:50:53Z</time>
      </trkpt>
      <trkpt lat="38.075716" lon="-6.653896">
        <ele>551.4</ele>
        <time>2009-02-06T15:51:14Z</time>
      </trkpt>
      <trkpt lat="38.075677" lon="-6.653695">
        <ele>550.8</ele>
        <time>2009-02-06T15:52:24Z</time>
      </trkpt>
      <trkpt lat="38.075677" lon="-6.653695">
        <ele>552.3</ele>
        <time>2009-02-06T15:53:26Z</time>
      </trkpt>
      <trkpt lat="38.075655" lon="-6.653694">
        <ele>551.1</ele>
        <time>2009-02-06T15:53:37Z</time>
      </trkpt>
      <trkpt lat="38.075540" lon="-6.653745">
        <ele>552.9</ele>
        <time>2009-02-06T15:53:54Z</time>
      </trkpt>
      <trkpt lat="38.075428" lon="-6.653740">
        <ele>554.7</ele>
        <time>2009-02-06T15:54:10Z</time>
      </trkpt>
      <trkpt lat="38.075181" lon="-6.653727">
        <ele>551.4</ele>
        <time>2009-02-06T15:54:27Z</time>
      </trkpt>
      <trkpt lat="38.074956" lon="-6.653716">
        <ele>552.3</ele>
        <time>2009-02-06T15:54:43Z</time>
      </trkpt>
      <trkpt lat="38.074729" lon="-6.653762">
        <ele>552.9</ele>
        <time>2009-02-06T15:55:00Z</time>
      </trkpt>
      <trkpt lat="38.074458" lon="-6.653777">
        <ele>553.5</ele>
        <time>2009-02-06T15:55:20Z</time>
      </trkpt>
      <trkpt lat="38.074235" lon="-6.653737">
        <ele>556.6</ele>
        <time>2009-02-06T15:55:39Z</time>
      </trkpt>
      <trkpt lat="38.074235" lon="-6.653737">
        <ele>556.9</ele>
        <time>2009-02-06T15:55:41Z</time>
      </trkpt>
      <trkpt lat="38.074145" lon="-6.653733">
        <ele>558.4</ele>
        <time>2009-02-06T15:55:49Z</time>
      </trkpt>
      <trkpt lat="38.073964" lon="-6.653752">
        <ele>561.4</ele>
        <time>2009-02-06T15:56:08Z</time>
      </trkpt>
      <trkpt lat="38.073832" lon="-6.653746">
        <ele>564.8</ele>
        <time>2009-02-06T13:42:37Z</time>
      </trkpt>
      <trkpt lat="38.073739" lon="-6.653741">
        <ele>566.9</ele>
        <time>2009-02-06T15:56:29Z</time>
      </trkpt>
      <trkpt lat="38.073534" lon="-6.653816">
        <ele>570.6</ele>
        <time>2009-02-06T15:56:48Z</time>
      </trkpt>
      <trkpt lat="38.073330" lon="-6.653863">
        <ele>573.0</ele>
        <time>2009-02-06T15:57:08Z</time>
      </trkpt>
      <trkpt lat="38.073127" lon="-6.653881">
        <ele>577.0</ele>
        <time>2009-02-06T15:57:29Z</time>
      </trkpt>
      <trkpt lat="38.073036" lon="-6.653905">
        <ele>578.5</ele>
        <time>2009-02-06T15:57:37Z</time>
      </trkpt>
      <trkpt lat="38.072923" lon="-6.653900">
        <ele>580.3</ele>
        <time>2009-02-06T15:57:53Z</time>
      </trkpt>
      <trkpt lat="38.072788" lon="-6.653893">
        <ele>582.2</ele>
        <time>2009-02-06T15:59:43Z</time>
      </trkpt>
      <trkpt lat="38.072788" lon="-6.653893">
        <ele>583.4</ele>
        <time>2009-02-06T16:00:23Z</time>
      </trkpt>
      <trkpt lat="38.072544" lon="-6.653795">
        <ele>586.1</ele>
        <time>2009-02-06T16:00:45Z</time>
      </trkpt>
      <trkpt lat="38.072389" lon="-6.653702">
        <ele>587.3</ele>
        <time>2009-02-06T16:01:03Z</time>
      </trkpt>
      <trkpt lat="38.072258" lon="-6.653582">
        <ele>589.8</ele>
        <time>2009-02-06T16:01:20Z</time>
      </trkpt>
      <trkpt lat="38.072126" lon="-6.653461">
        <ele>593.1</ele>
        <time>2009-02-06T16:01:38Z</time>
      </trkpt>
      <trkpt lat="38.071995" lon="-6.653341">
        <ele>595.6</ele>
        <time>2009-02-06T16:01:57Z</time>
      </trkpt>
      <trkpt lat="38.071908" lon="-6.653222">
        <ele>596.2</ele>
        <time>2009-02-06T16:02:11Z</time>
      </trkpt>
      <trkpt lat="38.071711" lon="-6.653042">
        <ele>605.0</ele>
        <time>2009-02-06T16:02:46Z</time>
      </trkpt>
      <trkpt lat="38.071604" lon="-6.652865">
        <ele>607.2</ele>
        <time>2009-02-06T16:03:05Z</time>
      </trkpt>
      <trkpt lat="38.071533" lon="-6.652976">
        <ele>609.3</ele>
        <time>2009-02-06T16:03:17Z</time>
      </trkpt>
      <trkpt lat="38.071460" lon="-6.653143">
        <ele>611.4</ele>
        <time>2009-02-06T16:03:36Z</time>
      </trkpt>
      <trkpt lat="38.071411" lon="-6.653283">
        <ele>614.8</ele>
        <time>2009-02-06T16:03:52Z</time>
      </trkpt>
      <trkpt lat="38.071362" lon="-6.653423">
        <ele>617.2</ele>
        <time>2009-02-06T16:04:49Z</time>
      </trkpt>
      <trkpt lat="38.071362" lon="-6.653423">
        <ele>616.9</ele>
        <time>2009-02-06T16:05:07Z</time>
      </trkpt>
      <trkpt lat="38.071317" lon="-6.653421">
        <ele>619.4</ele>
        <time>2009-02-06T16:05:36Z</time>
      </trkpt>
      <trkpt lat="38.071163" lon="-6.653299">
        <ele>622.4</ele>
        <time>2009-02-06T16:05:55Z</time>
      </trkpt>
      <trkpt lat="38.071097" lon="-6.653141">
        <ele>624.5</ele>
        <time>2009-02-06T13:20:53Z</time>
      </trkpt>
      <trkpt lat="38.071059" lon="-6.653009">
        <ele>626.7</ele>
        <time>2009-02-06T16:06:25Z</time>
      </trkpt>
      <trkpt lat="38.070975" lon="-6.652827">
        <ele>628.2</ele>
        <time>2009-02-06T13:40:01Z</time>
      </trkpt>
      <trkpt lat="38.070892" lon="-6.652602">
        <ele>630.0</ele>
        <time>2009-02-06T16:07:02Z</time>
      </trkpt>
      <trkpt lat="38.070830" lon="-6.652428">
        <ele>632.5</ele>
        <time>2009-02-06T16:07:17Z</time>
      </trkpt>
      <trkpt lat="38.070747" lon="-6.652196">
        <ele>634.6</ele>
        <time>2009-02-06T16:07:36Z</time>
      </trkpt>
      <trkpt lat="38.070686" lon="-6.651965">
        <ele>636.4</ele>
        <time>2009-02-06T16:07:54Z</time>
      </trkpt>
      <trkpt lat="38.070602" lon="-6.651790">
        <ele>638.3</ele>
        <time>2009-02-06T16:08:11Z</time>
      </trkpt>
      <trkpt lat="38.070564" lon="-6.651560">
        <ele>639.8</ele>
        <time>2009-02-06T16:08:29Z</time>
      </trkpt>
      <trkpt lat="38.070526" lon="-6.651330">
        <ele>641.6</ele>
        <time>2009-02-06T16:08:44Z</time>
      </trkpt>
      <trkpt lat="38.070469" lon="-6.650986">
        <ele>644.0</ele>
        <time>2009-02-06T16:09:07Z</time>
      </trkpt>
      <trkpt lat="38.070451" lon="-6.650842">
        <ele>644.3</ele>
        <time>2009-02-06T16:09:16Z</time>
      </trkpt>
      <trkpt lat="38.070413" lon="-6.650613">
        <ele>645.6</ele>
        <time>2009-02-06T16:09:31Z</time>
      </trkpt>
      <trkpt lat="38.070414" lon="-6.650584">
        <ele>646.5</ele>
        <time>2009-02-06T16:09:44Z</time>
      </trkpt>
      <trkpt lat="38.070353" lon="-6.650382">
        <ele>649.8</ele>
        <time>2009-02-06T16:10:01Z</time>
      </trkpt>
      <trkpt lat="38.070333" lon="-6.650295">
        <ele>650.1</ele>
        <time>2009-02-06T16:10:08Z</time>
      </trkpt>
      <trkpt lat="38.070251" lon="-6.650035">
        <ele>650.1</ele>
        <time>2009-02-06T16:10:24Z</time>
      </trkpt>
      <trkpt lat="38.070122" lon="-6.649829">
        <ele>651.4</ele>
        <time>2009-02-06T16:10:39Z</time>
      </trkpt>
      <trkpt lat="38.069991" lon="-6.649709">
        <ele>652.0</ele>
        <time>2009-02-06T16:10:55Z</time>
      </trkpt>
      <trkpt lat="38.069796" lon="-6.649442">
        <ele>653.8</ele>
        <time>2009-02-06T16:11:14Z</time>
      </trkpt>
      <trkpt lat="38.069467" lon="-6.649170">
        <ele>653.2</ele>
        <time>2009-02-06T16:11:42Z</time>
      </trkpt>
      <trkpt lat="38.069222" lon="-6.649101">
        <ele>654.1</ele>
        <time>2009-02-06T16:12:00Z</time>
      </trkpt>
      <trkpt lat="38.068979" lon="-6.648946">
        <ele>654.1</ele>
        <time>2009-02-06T16:12:20Z</time>
      </trkpt>
      <trkpt lat="38.068716" lon="-6.648705">
        <ele>654.1</ele>
        <time>2009-02-06T16:12:41Z</time>
      </trkpt>
      <trkpt lat="38.068522" lon="-6.648411">
        <ele>653.8</ele>
        <time>2009-02-06T16:13:02Z</time>
      </trkpt>
      <trkpt lat="38.068418" lon="-6.648149">
        <ele>653.8</ele>
        <time>2009-02-06T16:13:21Z</time>
      </trkpt>
      <trkpt lat="38.068418" lon="-6.648149">
        <ele>653.8</ele>
        <time>2009-02-06T16:13:23Z</time>
      </trkpt>
      <trkpt lat="38.068333" lon="-6.647974">
        <ele>653.2</ele>
        <time>2009-02-06T16:13:37Z</time>
      </trkpt>
      <trkpt lat="38.068293" lon="-6.647828">
        <ele>653.2</ele>
        <time>2009-02-06T16:13:49Z</time>
      </trkpt>
      <trkpt lat="38.068166" lon="-6.647566">
        <ele>654.7</ele>
        <time>2009-02-06T16:14:10Z</time>
      </trkpt>
      <trkpt lat="38.068128" lon="-6.647336">
        <ele>657.1</ele>
        <time>2009-02-06T16:14:29Z</time>
      </trkpt>
      <trkpt lat="38.068135" lon="-6.647108">
        <ele>659.9</ele>
        <time>2009-02-06T16:15:30Z</time>
      </trkpt>
      <trkpt lat="38.068100" lon="-6.646793">
        <ele>660.2</ele>
        <time>2009-02-06T16:15:51Z</time>
      </trkpt>
      <trkpt lat="38.068100" lon="-6.646765">
        <ele>660.2</ele>
        <time>2009-02-06T16:15:53Z</time>
      </trkpt>
      <trkpt lat="38.068100" lon="-6.646765">
        <ele>660.5</ele>
        <time>2009-02-06T16:15:58Z</time>
      </trkpt>
      <trkpt lat="38.068103" lon="-6.646680">
        <ele>660.5</ele>
        <time>2009-02-06T16:16:12Z</time>
      </trkpt>
      <trkpt lat="38.068084" lon="-6.646565">
        <ele>661.4</ele>
        <time>2009-02-06T16:16:28Z</time>
      </trkpt>
      <trkpt lat="38.068063" lon="-6.646535">
        <ele>663.2</ele>
        <time>2009-02-06T16:17:08Z</time>
      </trkpt>
      <trkpt lat="38.068040" lon="-6.646534">
        <ele>662.9</ele>
        <time>2009-02-06T16:17:48Z</time>
      </trkpt>
      <trkpt lat="38.067926" lon="-6.646585">
        <ele>662.9</ele>
        <time>2009-02-06T16:18:00Z</time>
      </trkpt>
      <trkpt lat="38.067926" lon="-6.646585">
        <ele>663.5</ele>
        <time>2009-02-06T16:18:04Z</time>
      </trkpt>
      <trkpt lat="38.067834" lon="-6.646638">
        <ele>663.2</ele>
        <time>2009-02-06T16:18:11Z</time>
      </trkpt>
      <trkpt lat="38.067696" lon="-6.646745">
        <ele>663.9</ele>
        <time>2009-02-06T16:18:28Z</time>
      </trkpt>
      <trkpt lat="38.067559" lon="-6.646795">
        <ele>665.4</ele>
        <time>2009-02-06T16:18:44Z</time>
      </trkpt>
      <trkpt lat="38.067512" lon="-6.646850">
        <ele>665.7</ele>
        <time>2009-02-06T16:19:01Z</time>
      </trkpt>
      <trkpt lat="38.067422" lon="-6.646845">
        <ele>665.4</ele>
        <time>2009-02-06T16:19:08Z</time>
      </trkpt>
      <trkpt lat="38.067376" lon="-6.646900">
        <ele>663.9</ele>
        <time>2009-02-06T16:19:13Z</time>
      </trkpt>
      <trkpt lat="38.067192" lon="-6.647005">
        <ele>663.2</ele>
        <time>2009-02-06T16:19:32Z</time>
      </trkpt>
      <trkpt lat="38.067101" lon="-6.647057">
        <ele>663.5</ele>
        <time>2009-02-06T16:19:43Z</time>
      </trkpt>
      <trkpt lat="38.067056" lon="-6.647055">
        <ele>665.7</ele>
        <time>2009-02-06T16:19:59Z</time>
      </trkpt>
      <trkpt lat="38.066986" lon="-6.647108">
        <ele>667.2</ele>
        <time>2009-02-06T16:20:16Z</time>
      </trkpt>
      <trkpt lat="38.066874" lon="-6.647103">
        <ele>667.8</ele>
        <time>2009-02-06T16:20:30Z</time>
      </trkpt>
      <trkpt lat="38.066694" lon="-6.647094">
        <ele>671.5</ele>
        <time>2009-02-06T16:20:44Z</time>
      </trkpt>
      <trkpt lat="38.066536" lon="-6.647087">
        <ele>675.1</ele>
        <time>2009-02-05T18:25:58Z</time>
      </trkpt>
      <trkpt lat="38.066422" lon="-6.647137">
        <ele>677.9</ele>
        <time>2009-02-06T16:24:36Z</time>
      </trkpt>
      <trkpt lat="38.066195" lon="-6.647211">
        <ele>679.7</ele>
        <time>2009-02-06T16:24:55Z</time>
      </trkpt>
      <trkpt lat="38.066057" lon="-6.647290">
        <ele>682.4</ele>
        <time>2009-02-06T16:25:45Z</time>
      </trkpt>
      <trkpt lat="38.065966" lon="-6.647342">
        <ele>683.1</ele>
        <time>2009-02-06T16:26:22Z</time>
      </trkpt>
      <trkpt lat="38.065782" lon="-6.647447">
        <ele>683.1</ele>
        <time>2009-02-06T16:26:41Z</time>
      </trkpt>
      <trkpt lat="38.065691" lon="-6.647500">
        <ele>683.7</ele>
        <time>2009-02-06T16:26:48Z</time>
      </trkpt>
      <trkpt lat="38.065370" lon="-6.647655">
        <ele>685.2</ele>
        <time>2009-02-06T16:27:12Z</time>
      </trkpt>
      <trkpt lat="38.065279" lon="-6.647707">
        <ele>686.4</ele>
        <time>2009-02-06T16:27:31Z</time>
      </trkpt>
      <trkpt lat="38.065235" lon="-6.647648">
        <ele>688.2</ele>
        <time>2009-02-06T16:28:06Z</time>
      </trkpt>
      <trkpt lat="38.065192" lon="-6.647588">
        <ele>688.2</ele>
        <time>2009-02-06T16:28:10Z</time>
      </trkpt>
      <trkpt lat="38.065128" lon="-6.647471">
        <ele>688.8</ele>
        <time>2009-02-06T16:28:31Z</time>
      </trkpt>
      <trkpt lat="38.065106" lon="-6.647471">
        <ele>688.8</ele>
        <time>2009-02-06T16:32:52Z</time>
      </trkpt>
      <trkpt lat="38.065026" lon="-6.647515">
        <ele>689.8</ele>
        <time>2009-02-06T11:32:18Z</time>
      </trkpt>
      <trkpt lat="38.064831" lon="-6.647628">
        <ele>692.2</ele>
        <time>2009-02-06T16:33:49Z</time>
      </trkpt>
      <trkpt lat="38.064512" lon="-6.647726">
        <ele>694.0</ele>
        <time>2009-02-06T16:34:14Z</time>
      </trkpt>
      <trkpt lat="38.064237" lon="-6.647883">
        <ele>694.6</ele>
        <time>2009-02-06T16:34:38Z</time>
      </trkpt>
      <trkpt lat="38.064103" lon="-6.647847">
        <ele>696.5</ele>
        <time>2009-02-06T16:35:20Z</time>
      </trkpt>
      <trkpt lat="38.063859" lon="-6.647750">
        <ele>698.6</ele>
        <time>2009-02-06T16:35:41Z</time>
      </trkpt>
      <trkpt lat="38.063570" lon="-6.647622">
        <ele>700.4</ele>
        <time>2009-02-06T16:36:05Z</time>
      </trkpt>
      <trkpt lat="38.063526" lon="-6.647592">
        <ele>698.9</ele>
        <time>2009-02-06T16:36:18Z</time>
      </trkpt>
      <trkpt lat="38.063528" lon="-6.647506">
        <ele>703.8</ele>
        <time>2009-02-06T16:36:35Z</time>
      </trkpt>
      <trkpt lat="38.063553" lon="-6.647422">
        <ele>704.7</ele>
        <time>2009-02-06T16:36:54Z</time>
      </trkpt>
      <trkpt lat="38.063564" lon="-6.647360">
        <ele>704.4</ele>
        <time>2009-02-06T03:23:15Z</time>
      </trkpt>
      <trkpt lat="38.063572" lon="-6.647321">
        <ele>704.1</ele>
        <time>2009-02-06T03:23:15Z</time>
      </trkpt>
      <trkpt lat="38.063580" lon="-6.647281">
        <ele>703.8</ele>
        <time>2009-02-06T16:37:50Z</time>
      </trkpt>
      <trkpt lat="38.063580" lon="-6.647281">
        <ele>703.8</ele>
        <time>2009-02-06T16:37:53Z</time>
      </trkpt>
      <trkpt lat="38.060233" lon="-6.647522">
        <ele>671.5</ele>
        <time>2009-02-11T12:39:55Z</time>
      </trkpt>
      <trkpt lat="38.060253" lon="-6.647580">
        <ele>671.5</ele>
        <time>2009-02-11T12:40:09Z</time>
      </trkpt>
      <trkpt lat="38.060251" lon="-6.647666">
        <ele>671.8</ele>
        <time>2009-02-11T12:40:47Z</time>
      </trkpt>
      <trkpt lat="38.060204" lon="-6.647692">
        <ele>673.0</ele>
        <time>2009-02-11T12:42:16Z</time>
      </trkpt>
      <trkpt lat="38.059936" lon="-6.647650">
        <ele>671.8</ele>
        <time>2009-02-11T12:42:49Z</time>
      </trkpt>
      <trkpt lat="38.059778" lon="-6.647614">
        <ele>666.0</ele>
        <time>2009-02-11T12:44:56Z</time>
      </trkpt>
      <trkpt lat="38.059668" lon="-6.647580">
        <ele>665.7</ele>
        <time>2009-02-11T12:45:17Z</time>
      </trkpt>
      <trkpt lat="38.059511" lon="-6.647572">
        <ele>663.5</ele>
        <time>2009-02-11T12:45:34Z</time>
      </trkpt>
      <trkpt lat="38.059443" lon="-6.647569">
        <ele>661.7</ele>
        <time>2009-02-11T12:45:47Z</time>
      </trkpt>
      <trkpt lat="38.059352" lon="-6.647593">
        <ele>659.9</ele>
        <time>2009-02-11T12:45:55Z</time>
      </trkpt>
      <trkpt lat="38.059124" lon="-6.647695">
        <ele>657.1</ele>
        <time>2009-02-11T12:46:16Z</time>
      </trkpt>
      <trkpt lat="38.058854" lon="-6.647682">
        <ele>653.8</ele>
        <time>2009-02-11T12:46:42Z</time>
      </trkpt>
      <trkpt lat="38.058764" lon="-6.647677">
        <ele>652.0</ele>
        <time>2009-02-11T12:46:54Z</time>
      </trkpt>
      <trkpt lat="38.058720" lon="-6.647647">
        <ele>651.7</ele>
        <time>2009-02-11T12:47:43Z</time>
      </trkpt>
      <trkpt lat="38.058563" lon="-6.647639">
        <ele>650.1</ele>
        <time>2009-02-11T12:48:04Z</time>
      </trkpt>
      <trkpt lat="38.058473" lon="-6.647634">
        <ele>650.1</ele>
        <time>2009-02-11T12:48:20Z</time>
      </trkpt>
      <trkpt lat="38.058404" lon="-6.647631">
        <ele>650.1</ele>
        <time>2009-02-11T12:48:27Z</time>
      </trkpt>
      <trkpt lat="38.058335" lon="-6.647685">
        <ele>650.1</ele>
        <time>2009-02-11T12:48:37Z</time>
      </trkpt>
      <trkpt lat="38.058198" lon="-6.647735">
        <ele>652.0</ele>
        <time>2009-02-11T12:50:53Z</time>
      </trkpt>
      <trkpt lat="38.058152" lon="-6.647761">
        <ele>650.1</ele>
        <time>2009-02-11T12:51:19Z</time>
      </trkpt>
      <trkpt lat="38.058040" lon="-6.647784">
        <ele>648.3</ele>
        <time>2009-02-11T12:51:33Z</time>
      </trkpt>
      <trkpt lat="38.057966" lon="-6.647951">
        <ele>643.7</ele>
        <time>2009-02-11T12:53:06Z</time>
      </trkpt>
      <trkpt lat="38.057763" lon="-6.647969">
        <ele>642.2</ele>
        <time>2009-02-11T12:53:26Z</time>
      </trkpt>
      <trkpt lat="38.057717" lon="-6.647996">
        <ele>642.2</ele>
        <time>2009-02-11T12:53:39Z</time>
      </trkpt>
      <trkpt lat="38.057717" lon="-6.647996">
        <ele>642.2</ele>
        <time>2009-02-11T12:53:40Z</time>
      </trkpt>
      <trkpt lat="38.057564" lon="-6.647846">
        <ele>639.8</ele>
        <time>2009-02-11T12:53:56Z</time>
      </trkpt>
      <trkpt lat="38.057474" lon="-6.647841">
        <ele>637.9</ele>
        <time>2009-02-11T12:54:05Z</time>
      </trkpt>
      <trkpt lat="38.057560" lon="-6.647988">
        <ele>632.5</ele>
        <time>2009-02-11T12:54:20Z</time>
      </trkpt>
      <trkpt lat="38.057560" lon="-6.647988">
        <ele>632.5</ele>
        <time>2009-02-11T12:54:22Z</time>
      </trkpt>
      <trkpt lat="38.057556" lon="-6.648102">
        <ele>630.9</ele>
        <time>2009-02-11T12:54:31Z</time>
      </trkpt>
      <trkpt lat="38.057575" lon="-6.648273">
        <ele>628.2</ele>
        <time>2009-02-11T12:54:50Z</time>
      </trkpt>
      <trkpt lat="38.057529" lon="-6.648271">
        <ele>626.4</ele>
        <time>2009-02-11T12:55:58Z</time>
      </trkpt>
      <trkpt lat="38.057440" lon="-6.648238">
        <ele>629.1</ele>
        <time>2009-02-11T12:56:33Z</time>
      </trkpt>
      <trkpt lat="38.057395" lon="-6.648236">
        <ele>628.8</ele>
        <time>2009-02-11T12:56:38Z</time>
      </trkpt>
      <trkpt lat="38.057196" lon="-6.648141">
        <ele>624.2</ele>
        <time>2009-02-11T12:56:57Z</time>
      </trkpt>
      <trkpt lat="38.057018" lon="-6.648018">
        <ele>619.0</ele>
        <time>2009-02-11T12:57:16Z</time>
      </trkpt>
      <trkpt lat="38.056822" lon="-6.647809">
        <ele>616.9</ele>
        <time>2009-02-11T12:57:39Z</time>
      </trkpt>
      <trkpt lat="38.056602" lon="-6.647655">
        <ele>611.1</ele>
        <time>2009-02-11T12:58:02Z</time>
      </trkpt>
      <trkpt lat="38.056428" lon="-6.647476">
        <ele>607.2</ele>
        <time>2009-02-11T12:58:23Z</time>
      </trkpt>
      <trkpt lat="38.056274" lon="-6.647326">
        <ele>603.2</ele>
        <time>2009-02-11T12:58:40Z</time>
      </trkpt>
      <trkpt lat="38.056120" lon="-6.647204">
        <ele>601.4</ele>
        <time>2009-02-11T12:58:57Z</time>
      </trkpt>
      <trkpt lat="38.055922" lon="-6.647052">
        <ele>595.0</ele>
        <time>2009-02-11T12:59:20Z</time>
      </trkpt>
      <trkpt lat="38.055768" lon="-6.646987">
        <ele>589.8</ele>
        <time>2009-02-11T12:59:36Z</time>
      </trkpt>
      <trkpt lat="38.055565" lon="-6.647006">
        <ele>586.1</ele>
        <time>2009-02-11T13:00:00Z</time>
      </trkpt>
      <trkpt lat="38.055496" lon="-6.647002">
        <ele>593.8</ele>
        <time>2009-02-11T13:03:12Z</time>
      </trkpt>
      <trkpt lat="38.055405" lon="-6.647026">
        <ele>591.9</ele>
        <time>2009-02-11T13:03:43Z</time>
      </trkpt>
      <trkpt lat="38.055225" lon="-6.647074">
        <ele>588.3</ele>
        <time>2009-02-11T13:03:59Z</time>
      </trkpt>
      <trkpt lat="38.055020" lon="-6.647093">
        <ele>585.8</ele>
        <time>2009-02-11T13:04:16Z</time>
      </trkpt>
      <trkpt lat="38.054815" lon="-6.647168">
        <ele>582.2</ele>
        <time>2009-02-11T13:04:34Z</time>
      </trkpt>
      <trkpt lat="38.054746" lon="-6.647221">
        <ele>581.6</ele>
        <time>2009-02-11T13:04:39Z</time>
      </trkpt>
      <trkpt lat="38.054540" lon="-6.647325">
        <ele>577.9</ele>
        <time>2009-02-11T13:04:58Z</time>
      </trkpt>
      <trkpt lat="38.054494" lon="-6.647351">
        <ele>575.5</ele>
        <time>2009-02-11T13:05:47Z</time>
      </trkpt>
      <trkpt lat="38.054470" lon="-6.647436">
        <ele>575.8</ele>
        <time>2009-02-11T13:06:25Z</time>
      </trkpt>
      <trkpt lat="38.054461" lon="-6.647691">
        <ele>574.2</ele>
        <time>2009-02-11T13:06:41Z</time>
      </trkpt>
      <trkpt lat="38.054347" lon="-6.647743">
        <ele>570.3</ele>
        <time>2009-02-11T13:08:24Z</time>
      </trkpt>
      <trkpt lat="38.054303" lon="-6.647712">
        <ele>572.1</ele>
        <time>2009-02-11T13:08:39Z</time>
      </trkpt>
      <trkpt lat="38.054284" lon="-6.647597">
        <ele>572.7</ele>
        <time>2009-02-11T13:09:00Z</time>
      </trkpt>
      <trkpt lat="38.054195" lon="-6.647564">
        <ele>575.5</ele>
        <time>2009-02-11T13:09:30Z</time>
      </trkpt>
      <trkpt lat="38.054147" lon="-6.647647">
        <ele>574.2</ele>
        <time>2009-02-11T13:09:45Z</time>
      </trkpt>
      <trkpt lat="38.054079" lon="-6.647673">
        <ele>570.3</ele>
        <time>2009-02-11T13:10:01Z</time>
      </trkpt>
      <trkpt lat="38.054012" lon="-6.647698">
        <ele>575.8</ele>
        <time>2009-02-11T13:10:22Z</time>
      </trkpt>
      <trkpt lat="38.053827" lon="-6.647802">
        <ele>570.3</ele>
        <time>2009-02-11T13:10:38Z</time>
      </trkpt>
      <trkpt lat="38.053690" lon="-6.647909">
        <ele>566.9</ele>
        <time>2009-02-11T13:10:53Z</time>
      </trkpt>
      <trkpt lat="38.053438" lon="-6.648011">
        <ele>563.9</ele>
        <time>2009-02-11T13:11:14Z</time>
      </trkpt>
      <trkpt lat="38.053367" lon="-6.648121">
        <ele>561.1</ele>
        <time>2009-02-11T13:11:23Z</time>
      </trkpt>
      <trkpt lat="38.053210" lon="-6.648142">
        <ele>558.7</ele>
        <time>2009-02-11T13:11:39Z</time>
      </trkpt>
      <trkpt lat="38.053003" lon="-6.648246">
        <ele>556.9</ele>
        <time>2009-02-11T13:11:58Z</time>
      </trkpt>
      <trkpt lat="38.052753" lon="-6.648319">
        <ele>552.3</ele>
        <time>2009-02-11T13:12:19Z</time>
      </trkpt>
      <trkpt lat="38.052524" lon="-6.648421">
        <ele>547.4</ele>
        <time>2009-02-11T13:12:41Z</time>
      </trkpt>
      <trkpt lat="38.052502" lon="-6.648420">
        <ele>549.2</ele>
        <time>2009-02-11T13:12:55Z</time>
      </trkpt>
      <trkpt lat="38.052457" lon="-6.648475">
        <ele>554.1</ele>
        <time>2009-02-11T13:13:14Z</time>
      </trkpt>
      <trkpt lat="38.052433" lon="-6.648502">
        <ele>553.2</ele>
        <time>2009-02-11T13:13:20Z</time>
      </trkpt>
      <trkpt lat="38.052409" lon="-6.648529">
        <ele>552.9</ele>
        <time>2009-02-11T13:13:32Z</time>
      </trkpt>
      <trkpt lat="38.052364" lon="-6.648584">
        <ele>552.3</ele>
        <time>2009-02-11T13:13:44Z</time>
      </trkpt>
      <trkpt lat="38.052293" lon="-6.648666">
        <ele>551.1</ele>
        <time>2009-02-11T13:13:58Z</time>
      </trkpt>
      <trkpt lat="38.052293" lon="-6.648694">
        <ele>551.1</ele>
        <time>2009-02-11T13:14:10Z</time>
      </trkpt>
      <trkpt lat="38.052246" lon="-6.648721">
        <ele>552.9</ele>
        <time>2009-02-11T13:14:19Z</time>
      </trkpt>
      <trkpt lat="38.052129" lon="-6.648857">
        <ele>552.3</ele>
        <time>2009-02-11T13:14:50Z</time>
      </trkpt>
      <trkpt lat="38.052081" lon="-6.648940">
        <ele>552.3</ele>
        <time>2009-02-11T13:15:09Z</time>
      </trkpt>
      <trkpt lat="38.052036" lon="-6.648966">
        <ele>549.2</ele>
        <time>2009-02-11T13:15:41Z</time>
      </trkpt>
      <trkpt lat="38.051990" lon="-6.649021">
        <ele>552.9</ele>
        <time>2009-02-11T13:18:28Z</time>
      </trkpt>
      <trkpt lat="38.051922" lon="-6.648989">
        <ele>552.3</ele>
        <time>2009-02-11T13:19:27Z</time>
      </trkpt>
      <trkpt lat="38.051702" lon="-6.648864">
        <ele>551.1</ele>
        <time>2009-02-11T13:19:45Z</time>
      </trkpt>
      <trkpt lat="38.051546" lon="-6.648771">
        <ele>551.1</ele>
        <time>2009-02-11T13:20:00Z</time>
      </trkpt>
      <trkpt lat="38.051524" lon="-6.648770">
        <ele>550.5</ele>
        <time>2009-02-11T13:20:16Z</time>
      </trkpt>
      <trkpt lat="38.051391" lon="-6.648735">
        <ele>554.7</ele>
        <time>2009-02-11T13:20:47Z</time>
      </trkpt>
      <trkpt lat="38.051191" lon="-6.648611">
        <ele>554.1</ele>
        <time>2009-02-11T13:21:03Z</time>
      </trkpt>
      <trkpt lat="38.051103" lon="-6.648550">
        <ele>553.2</ele>
        <time>2009-02-11T13:21:12Z</time>
      </trkpt>
      <trkpt lat="38.051038" lon="-6.648461">
        <ele>553.2</ele>
        <time>2009-02-11T13:21:19Z</time>
      </trkpt>
      <trkpt lat="38.050839" lon="-6.648337">
        <ele>554.7</ele>
        <time>2009-02-11T13:21:36Z</time>
      </trkpt>
      <trkpt lat="38.050709" lon="-6.648217">
        <ele>555.0</ele>
        <time>2009-02-11T13:21:48Z</time>
      </trkpt>
      <trkpt lat="38.050514" lon="-6.647923">
        <ele>556.9</ele>
        <time>2009-02-11T13:22:11Z</time>
      </trkpt>
      <trkpt lat="38.050474" lon="-6.647778">
        <ele>556.9</ele>
        <time>2009-02-11T13:30:12Z</time>
      </trkpt>
      <trkpt lat="38.050323" lon="-6.647543">
        <ele>556.3</ele>
        <time>2009-02-11T13:47:04Z</time>
      </trkpt>
      <trkpt lat="38.050194" lon="-6.647366">
        <ele>555.0</ele>
        <time>2009-02-11T14:00:32Z</time>
      </trkpt>
      <trkpt lat="38.049971" lon="-6.647269">
        <ele>554.1</ele>
        <time>2009-02-11T14:00:51Z</time>
      </trkpt>
      <trkpt lat="38.049660" lon="-6.647168">
        <ele>556.9</ele>
        <time>2009-02-11T14:01:16Z</time>
      </trkpt>
      <trkpt lat="38.049370" lon="-6.647068">
        <ele>558.1</ele>
        <time>2009-02-11T14:01:40Z</time>
      </trkpt>
      <trkpt lat="38.049107" lon="-6.646827">
        <ele>558.1</ele>
        <time>2009-02-11T14:02:03Z</time>
      </trkpt>
      <trkpt lat="38.048955" lon="-6.646677">
        <ele>558.1</ele>
        <time>2009-02-11T14:02:18Z</time>
      </trkpt>
      <trkpt lat="38.048783" lon="-6.646384">
        <ele>556.6</ele>
        <time>2009-02-11T14:02:39Z</time>
      </trkpt>
      <trkpt lat="38.048726" lon="-6.646040">
        <ele>556.3</ele>
        <time>2009-02-11T14:03:00Z</time>
      </trkpt>
      <trkpt lat="38.048694" lon="-6.645611">
        <ele>558.7</ele>
        <time>2009-02-11T14:03:26Z</time>
      </trkpt>
      <trkpt lat="38.048593" lon="-6.645236">
        <ele>562.7</ele>
        <time>2009-02-11T14:03:51Z</time>
      </trkpt>
      <trkpt lat="38.048422" lon="-6.644942">
        <ele>562.7</ele>
        <time>2009-02-11T14:04:15Z</time>
      </trkpt>
      <trkpt lat="38.048250" lon="-6.644677">
        <ele>564.5</ele>
        <time>2009-02-11T14:04:36Z</time>
      </trkpt>
      <trkpt lat="38.048146" lon="-6.644416">
        <ele>564.2</ele>
        <time>2009-02-11T14:04:55Z</time>
      </trkpt>
      <trkpt lat="38.047888" lon="-6.644004">
        <ele>564.2</ele>
        <time>2009-02-11T14:05:23Z</time>
      </trkpt>
      <trkpt lat="38.047720" lon="-6.643626">
        <ele>566.6</ele>
        <time>2009-02-11T14:05:51Z</time>
      </trkpt>
      <trkpt lat="38.047614" lon="-6.643421">
        <ele>566.9</ele>
        <time>2009-02-11T14:06:05Z</time>
      </trkpt>
      <trkpt lat="38.047463" lon="-6.643186">
        <ele>568.5</ele>
        <time>2009-02-11T14:07:06Z</time>
      </trkpt>
      <trkpt lat="38.047312" lon="-6.642979">
        <ele>570.3</ele>
        <time>2009-02-11T14:07:39Z</time>
      </trkpt>
      <trkpt lat="38.047291" lon="-6.642921">
        <ele>566.6</ele>
        <time>2009-02-11T14:08:00Z</time>
      </trkpt>
      <trkpt lat="38.047185" lon="-6.642717">
        <ele>565.7</ele>
        <time>2009-02-11T14:08:24Z</time>
      </trkpt>
      <trkpt lat="38.046992" lon="-6.642394">
        <ele>566.9</ele>
        <time>2009-02-11T14:08:47Z</time>
      </trkpt>
      <trkpt lat="38.046819" lon="-6.642186">
        <ele>570.3</ele>
        <time>2009-02-11T14:09:08Z</time>
      </trkpt>
      <trkpt lat="38.046693" lon="-6.641866">
        <ele>572.1</ele>
        <time>2009-02-11T14:09:29Z</time>
      </trkpt>
      <trkpt lat="38.046528" lon="-6.641374">
        <ele>574.2</ele>
        <time>2009-02-11T14:10:00Z</time>
      </trkpt>
      <trkpt lat="38.046496" lon="-6.640974">
        <ele>575.5</ele>
        <time>2009-02-11T14:10:24Z</time>
      </trkpt>
      <trkpt lat="38.046486" lon="-6.640575">
        <ele>575.8</ele>
        <time>2009-02-11T14:10:47Z</time>
      </trkpt>
      <trkpt lat="38.046587" lon="-6.640181">
        <ele>576.1</ele>
        <time>2009-02-11T14:11:11Z</time>
      </trkpt>
      <trkpt lat="38.046640" lon="-6.639927">
        <ele>576.1</ele>
        <time>2009-02-11T14:11:27Z</time>
      </trkpt>
      <trkpt lat="38.046672" lon="-6.639616">
        <ele>574.2</ele>
        <time>2009-02-11T14:11:50Z</time>
      </trkpt>
      <trkpt lat="38.046747" lon="-6.639391">
        <ele>572.1</ele>
        <time>2009-02-11T14:12:21Z</time>
      </trkpt>
      <trkpt lat="38.046844" lon="-6.639140">
        <ele>575.8</ele>
        <time>2009-02-11T14:12:38Z</time>
      </trkpt>
      <trkpt lat="38.046890" lon="-6.639114">
        <ele>576.1</ele>
        <time>2009-02-11T14:12:42Z</time>
      </trkpt>
      <trkpt lat="38.046902" lon="-6.638744">
        <ele>576.7</ele>
        <time>2009-02-11T14:13:03Z</time>
      </trkpt>
      <trkpt lat="38.046800" lon="-6.638397">
        <ele>578.2</ele>
        <time>2009-02-11T14:13:27Z</time>
      </trkpt>
      <trkpt lat="38.046653" lon="-6.638048">
        <ele>579.7</ele>
        <time>2009-02-11T14:13:48Z</time>
      </trkpt>
      <trkpt lat="38.046644" lon="-6.637621">
        <ele>580.0</ele>
        <time>2009-02-11T14:14:14Z</time>
      </trkpt>
      <trkpt lat="38.046670" lon="-6.637508">
        <ele>582.2</ele>
        <time>2009-02-11T14:14:33Z</time>
      </trkpt>
      <trkpt lat="38.046699" lon="-6.637282">
        <ele>582.2</ele>
        <time>2009-02-11T14:14:49Z</time>
      </trkpt>
      <trkpt lat="38.046776" lon="-6.636972">
        <ele>582.2</ele>
        <time>2009-02-11T14:15:08Z</time>
      </trkpt>
      <trkpt lat="38.046854" lon="-6.636663">
        <ele>583.4</ele>
        <time>2009-02-11T14:15:29Z</time>
      </trkpt>
      <trkpt lat="38.046855" lon="-6.636634">
        <ele>583.4</ele>
        <time>2009-02-11T14:15:29Z</time>
      </trkpt>
      <trkpt lat="38.046980" lon="-6.636213">
        <ele>584.3</ele>
        <time>2009-02-11T14:15:55Z</time>
      </trkpt>
      <trkpt lat="38.047108" lon="-6.635736">
        <ele>584.3</ele>
        <time>2009-02-11T14:16:23Z</time>
      </trkpt>
      <trkpt lat="38.047143" lon="-6.635310">
        <ele>587.3</ele>
        <time>2009-02-11T14:16:48Z</time>
      </trkpt>
      <trkpt lat="38.047109" lon="-6.634968">
        <ele>589.2</ele>
        <time>2009-02-11T14:17:08Z</time>
      </trkpt>
      <trkpt lat="38.047078" lon="-6.634511">
        <ele>589.8</ele>
        <time>2009-02-11T14:17:35Z</time>
      </trkpt>
      <trkpt lat="38.047041" lon="-6.634252">
        <ele>591.3</ele>
        <time>2009-02-11T14:17:50Z</time>
      </trkpt>
      <trkpt lat="38.047077" lon="-6.633827">
        <ele>591.9</ele>
        <time>2009-02-11T14:18:15Z</time>
      </trkpt>
      <trkpt lat="38.047021" lon="-6.633454">
        <ele>591.9</ele>
        <time>2009-02-11T14:18:37Z</time>
      </trkpt>
      <trkpt lat="38.046989" lon="-6.633025">
        <ele>593.1</ele>
        <time>2009-02-11T14:19:02Z</time>
      </trkpt>
      <trkpt lat="38.047003" lon="-6.632570">
        <ele>593.1</ele>
        <time>2009-02-11T14:19:26Z</time>
      </trkpt>
      <trkpt lat="38.047083" lon="-6.632176">
        <ele>593.8</ele>
        <time>2009-02-11T14:20:11Z</time>
      </trkpt>
      <trkpt lat="38.047065" lon="-6.632004">
        <ele>593.8</ele>
        <time>2009-02-11T14:20:27Z</time>
      </trkpt>
      <trkpt lat="38.046965" lon="-6.631600">
        <ele>595.6</ele>
        <time>2009-02-11T14:20:53Z</time>
      </trkpt>
      <trkpt lat="38.046976" lon="-6.631259">
        <ele>599.2</ele>
        <time>2009-02-11T14:21:14Z</time>
      </trkpt>
      <trkpt lat="38.046984" lon="-6.631003">
        <ele>600.8</ele>
        <time>2009-02-11T14:21:35Z</time>
      </trkpt>
      <trkpt lat="38.046994" lon="-6.630662">
        <ele>602.9</ele>
        <time>2009-02-11T14:21:58Z</time>
      </trkpt>
      <trkpt lat="38.047076" lon="-6.630210">
        <ele>605.3</ele>
        <time>2009-02-11T14:22:29Z</time>
      </trkpt>
      <trkpt lat="38.047085" lon="-6.629926">
        <ele>609.3</ele>
        <time>2009-02-11T14:22:52Z</time>
      </trkpt>
      <trkpt lat="38.047116" lon="-6.629643">
        <ele>607.5</ele>
        <time>2009-02-11T14:24:57Z</time>
      </trkpt>
      <trkpt lat="38.047119" lon="-6.629529">
        <ele>609.3</ele>
        <time>2009-02-11T14:25:13Z</time>
      </trkpt>
      <trkpt lat="38.047167" lon="-6.629446">
        <ele>611.1</ele>
        <time>2009-02-11T14:25:42Z</time>
      </trkpt>
      <trkpt lat="38.047212" lon="-6.629448">
        <ele>609.0</ele>
        <time>2009-02-11T14:26:10Z</time>
      </trkpt>
      <trkpt lat="38.047439" lon="-6.629402">
        <ele>613.0</ele>
        <time>2009-02-11T14:31:50Z</time>
      </trkpt>
      <trkpt lat="38.047397" lon="-6.629286">
        <ele>612.3</ele>
        <time>2009-02-11T14:32:00Z</time>
      </trkpt>
      <trkpt lat="38.047353" lon="-6.629256">
        <ele>611.1</ele>
        <time>2009-02-11T14:32:04Z</time>
      </trkpt>
      <trkpt lat="38.047177" lon="-6.629133">
        <ele>611.1</ele>
        <time>2009-02-11T14:32:26Z</time>
      </trkpt>
      <trkpt lat="38.047111" lon="-6.629073">
        <ele>612.3</ele>
        <time>2009-02-11T14:32:39Z</time>
      </trkpt>
      <trkpt lat="38.047066" lon="-6.629071">
        <ele>611.1</ele>
        <time>2009-02-11T14:32:54Z</time>
      </trkpt>
      <trkpt lat="38.047022" lon="-6.629040">
        <ele>613.3</ele>
        <time>2009-02-11T14:33:19Z</time>
      </trkpt>
      <trkpt lat="38.047022" lon="-6.629040">
        <ele>613.0</ele>
        <time>2009-02-11T14:33:41Z</time>
      </trkpt>
      <trkpt lat="38.046867" lon="-6.628947">
        <ele>613.6</ele>
        <time>2009-02-11T14:34:02Z</time>
      </trkpt>
      <trkpt lat="38.046626" lon="-6.628736">
        <ele>613.3</ele>
        <time>2009-02-11T14:34:27Z</time>
      </trkpt>
      <trkpt lat="38.046559" lon="-6.628704">
        <ele>615.1</ele>
        <time>2009-02-11T14:34:42Z</time>
      </trkpt>
      <trkpt lat="38.046493" lon="-6.628672">
        <ele>614.8</ele>
        <time>2009-02-11T14:34:53Z</time>
      </trkpt>
      <trkpt lat="38.046493" lon="-6.628672">
        <ele>615.1</ele>
        <time>2009-02-11T14:34:56Z</time>
      </trkpt>
      <trkpt lat="38.046251" lon="-6.628489">
        <ele>616.6</ele>
        <time>2009-02-11T14:35:48Z</time>
      </trkpt>
      <trkpt lat="38.046207" lon="-6.628459">
        <ele>615.1</ele>
        <time>2009-02-11T14:35:54Z</time>
      </trkpt>
      <trkpt lat="38.046074" lon="-6.628367">
        <ele>616.6</ele>
        <time>2009-02-11T14:36:09Z</time>
      </trkpt>
      <trkpt lat="38.045831" lon="-6.628212">
        <ele>617.5</ele>
        <time>2009-02-11T14:36:36Z</time>
      </trkpt>
      <trkpt lat="38.045678" lon="-6.628062">
        <ele>619.0</ele>
        <time>2009-02-11T14:36:56Z</time>
      </trkpt>
      <trkpt lat="38.045435" lon="-6.627908">
        <ele>623.0</ele>
        <time>2009-02-11T14:37:21Z</time>
      </trkpt>
      <trkpt lat="38.045259" lon="-6.627785">
        <ele>623.0</ele>
        <time>2009-02-11T14:37:43Z</time>
      </trkpt>
      <trkpt lat="38.045193" lon="-6.627725">
        <ele>622.1</ele>
        <time>2009-02-11T14:37:59Z</time>
      </trkpt>
      <trkpt lat="38.045127" lon="-6.627693">
        <ele>619.0</ele>
        <time>2009-02-11T14:38:46Z</time>
      </trkpt>
      <trkpt lat="38.045040" lon="-6.627575">
        <ele>624.8</ele>
        <time>2009-02-11T14:39:14Z</time>
      </trkpt>
      <trkpt lat="38.044862" lon="-6.627509">
        <ele>624.8</ele>
        <time>2009-02-11T14:41:44Z</time>
      </trkpt>
      <trkpt lat="38.044775" lon="-6.627420">
        <ele>626.4</ele>
        <time>2009-02-11T14:41:58Z</time>
      </trkpt>
      <trkpt lat="38.044683" lon="-6.627472">
        <ele>626.7</ele>
        <time>2009-02-11T14:42:20Z</time>
      </trkpt>
      <trkpt lat="38.044614" lon="-6.627526">
        <ele>626.7</ele>
        <time>2009-02-11T11:10:54Z</time>
      </trkpt>
      <trkpt lat="38.044457" lon="-6.627489">
        <ele>626.4</ele>
        <time>2009-02-11T14:43:51Z</time>
      </trkpt>
      <trkpt lat="38.044367" lon="-6.627485">
        <ele>624.8</ele>
        <time>2009-02-11T14:44:03Z</time>
      </trkpt>
      <trkpt lat="38.044099" lon="-6.627415">
        <ele>628.2</ele>
        <time>2009-02-11T14:44:29Z</time>
      </trkpt>
      <trkpt lat="38.043833" lon="-6.627288">
        <ele>630.0</ele>
        <time>2009-02-11T14:44:54Z</time>
      </trkpt>
      <trkpt lat="38.043613" lon="-6.627106">
        <ele>632.2</ele>
        <time>2009-02-11T14:45:16Z</time>
      </trkpt>
      <trkpt lat="38.043461" lon="-6.626928">
        <ele>634.6</ele>
        <time>2009-02-11T14:45:34Z</time>
      </trkpt>
      <trkpt lat="38.043242" lon="-6.626746">
        <ele>634.9</ele>
        <time>2009-02-11T14:45:58Z</time>
      </trkpt>
      <trkpt lat="38.042954" lon="-6.626589">
        <ele>638.3</ele>
        <time>2009-02-11T14:46:24Z</time>
      </trkpt>
      <trkpt lat="38.042865" lon="-6.626557">
        <ele>638.6</ele>
        <time>2009-02-11T14:46:38Z</time>
      </trkpt>
      <trkpt lat="38.042865" lon="-6.626557">
        <ele>638.6</ele>
        <time>2009-02-11T14:46:52Z</time>
      </trkpt>
      <trkpt lat="38.042754" lon="-6.626494">
        <ele>643.7</ele>
        <time>2009-02-11T14:47:10Z</time>
      </trkpt>
      <trkpt lat="38.042597" lon="-6.626486">
        <ele>646.2</ele>
        <time>2009-02-11T14:47:27Z</time>
      </trkpt>
      <trkpt lat="38.042552" lon="-6.626484">
        <ele>647.4</ele>
        <time>2009-02-11T14:47:41Z</time>
      </trkpt>
      <trkpt lat="38.042528" lon="-6.626511">
        <ele>648.0</ele>
        <time>2009-02-11T14:47:46Z</time>
      </trkpt>
      <trkpt lat="38.042369" lon="-6.626561">
        <ele>650.1</ele>
        <time>2009-02-11T14:48:05Z</time>
      </trkpt>
      <trkpt lat="38.042120" lon="-6.626605">
        <ele>654.4</ele>
        <time>2009-02-11T14:48:28Z</time>
      </trkpt>
      <trkpt lat="38.041989" lon="-6.626485">
        <ele>659.0</ele>
        <time>2009-02-11T14:48:49Z</time>
      </trkpt>
      <trkpt lat="38.041945" lon="-6.626454">
        <ele>659.9</ele>
        <time>2009-02-11T14:48:54Z</time>
      </trkpt>
      <trkpt lat="38.041817" lon="-6.626220">
        <ele>663.5</ele>
        <time>2009-02-11T14:49:17Z</time>
      </trkpt>
      <trkpt lat="38.041644" lon="-6.625984">
        <ele>667.5</ele>
        <time>2009-02-11T14:49:43Z</time>
      </trkpt>
      <trkpt lat="38.041471" lon="-6.625747">
        <ele>671.5</ele>
        <time>2009-02-11T14:50:06Z</time>
      </trkpt>
      <trkpt lat="38.041340" lon="-6.625599">
        <ele>671.8</ele>
        <time>2009-02-11T14:52:16Z</time>
      </trkpt>
      <trkpt lat="38.041254" lon="-6.625480">
        <ele>673.3</ele>
        <time>2009-02-11T14:52:30Z</time>
      </trkpt>
      <trkpt lat="38.041081" lon="-6.625244">
        <ele>677.6</ele>
        <time>2009-02-11T14:52:53Z</time>
      </trkpt>
      <trkpt lat="38.040930" lon="-6.625037">
        <ele>683.4</ele>
        <time>2009-02-11T14:53:14Z</time>
      </trkpt>
      <trkpt lat="38.040801" lon="-6.624832">
        <ele>687.0</ele>
        <time>2009-02-11T14:53:36Z</time>
      </trkpt>
      <trkpt lat="38.040673" lon="-6.624597">
        <ele>692.2</ele>
        <time>2009-02-11T14:53:57Z</time>
      </trkpt>
      <trkpt lat="38.040545" lon="-6.624363">
        <ele>695.2</ele>
        <time>2009-02-11T14:54:20Z</time>
      </trkpt>
      <trkpt lat="38.040394" lon="-6.624156">
        <ele>699.8</ele>
        <time>2009-02-11T14:54:46Z</time>
      </trkpt>
      <trkpt lat="38.040306" lon="-6.624095">
        <ele>701.0</ele>
        <time>2009-02-11T14:55:00Z</time>
      </trkpt>
      <trkpt lat="38.040240" lon="-6.624035">
        <ele>702.6</ele>
        <time>2009-02-11T14:55:07Z</time>
      </trkpt>
      <trkpt lat="38.040085" lon="-6.623942">
        <ele>704.4</ele>
        <time>2009-02-11T14:55:28Z</time>
      </trkpt>
      <trkpt lat="38.039883" lon="-6.623932">
        <ele>704.4</ele>
        <time>2009-02-11T14:55:47Z</time>
      </trkpt>
      <trkpt lat="38.039703" lon="-6.623923">
        <ele>706.5</ele>
        <time>2009-02-11T14:56:32Z</time>
      </trkpt>
      <trkpt lat="38.039479" lon="-6.623884">
        <ele>708.4</ele>
        <time>2009-02-11T14:57:18Z</time>
      </trkpt>
      <trkpt lat="38.039319" lon="-6.623961">
        <ele>710.2</ele>
        <time>2009-02-11T14:57:35Z</time>
      </trkpt>
      <trkpt lat="38.039158" lon="-6.624067">
        <ele>712.6</ele>
        <time>2009-02-11T14:57:56Z</time>
      </trkpt>
      <trkpt lat="38.038954" lon="-6.624114">
        <ele>715.4</ele>
        <time>2009-02-11T14:58:15Z</time>
      </trkpt>
      <trkpt lat="38.038732" lon="-6.624018">
        <ele>718.1</ele>
        <time>2009-02-11T14:58:38Z</time>
      </trkpt>
      <trkpt lat="38.038489" lon="-6.623863">
        <ele>721.5</ele>
        <time>2009-02-11T14:59:04Z</time>
      </trkpt>
      <trkpt lat="38.038334" lon="-6.623770">
        <ele>722.1</ele>
        <time>2009-02-11T14:59:23Z</time>
      </trkpt>
      <trkpt lat="38.038291" lon="-6.623711">
        <ele>723.3</ele>
        <time>2009-02-11T14:59:28Z</time>
      </trkpt>
      <trkpt lat="38.038091" lon="-6.623616">
        <ele>726.0</ele>
        <time>2009-02-11T14:59:51Z</time>
      </trkpt>
      <trkpt lat="38.037845" lon="-6.623575">
        <ele>729.1</ele>
        <time>2009-02-11T15:00:15Z</time>
      </trkpt>
      <trkpt lat="38.037663" lon="-6.623623">
        <ele>733.0</ele>
        <time>2009-02-11T15:00:36Z</time>
      </trkpt>
      <trkpt lat="38.037530" lon="-6.623560">
        <ele>735.8</ele>
        <time>2009-02-11T15:00:57Z</time>
      </trkpt>
      <trkpt lat="38.037442" lon="-6.623498">
        <ele>737.6</ele>
        <time>2009-02-11T15:01:11Z</time>
      </trkpt>
      <trkpt lat="38.037355" lon="-6.623380">
        <ele>741.9</ele>
        <time>2009-02-11T15:01:32Z</time>
      </trkpt>
      <trkpt lat="38.037291" lon="-6.623263">
        <ele>745.2</ele>
        <time>2009-02-11T15:01:49Z</time>
      </trkpt>
      <trkpt lat="38.037203" lon="-6.623202">
        <ele>751.0</ele>
        <time>2009-02-11T15:04:03Z</time>
      </trkpt>
      <trkpt lat="38.037203" lon="-6.623202">
        <ele>753.2</ele>
        <time>2009-02-11T15:04:47Z</time>
      </trkpt>
      <trkpt lat="38.037203" lon="-6.623202">
        <ele>751.6</ele>
        <time>2009-02-11T15:05:06Z</time>
      </trkpt>
      <trkpt lat="38.037136" lon="-6.623170">
        <ele>753.2</ele>
        <time>2009-02-11T15:05:25Z</time>
      </trkpt>
      <trkpt lat="38.037028" lon="-6.623051">
        <ele>753.5</ele>
        <time>2009-02-11T15:06:21Z</time>
      </trkpt>
      <trkpt lat="38.037028" lon="-6.623051">
        <ele>753.2</ele>
        <time>2009-02-11T15:06:40Z</time>
      </trkpt>
      <trkpt lat="38.037028" lon="-6.623051">
        <ele>751.6</ele>
        <time>2009-02-11T15:06:56Z</time>
      </trkpt>
      <trkpt lat="38.037195" lon="-6.622746">
        <ele>754.7</ele>
        <time>2009-02-11T15:08:02Z</time>
      </trkpt>
      <trkpt lat="38.037429" lon="-6.622444">
        <ele>757.1</ele>
        <time>2009-02-11T15:08:28Z</time>
      </trkpt>
      <trkpt lat="38.037594" lon="-6.622224">
        <ele>759.0</ele>
        <time>2009-02-11T15:08:47Z</time>
      </trkpt>
      <trkpt lat="38.037757" lon="-6.622033">
        <ele>760.5</ele>
        <time>2009-02-11T15:09:08Z</time>
      </trkpt>
      <trkpt lat="38.037830" lon="-6.621866">
        <ele>760.8</ele>
        <time>2009-02-11T15:09:24Z</time>
      </trkpt>
      <trkpt lat="38.037973" lon="-6.621588">
        <ele>761.1</ele>
        <time>2009-02-11T15:09:45Z</time>
      </trkpt>
      <trkpt lat="38.038051" lon="-6.621279">
        <ele>762.9</ele>
        <time>2009-02-11T15:10:04Z</time>
      </trkpt>
      <trkpt lat="38.038103" lon="-6.621025">
        <ele>762.9</ele>
        <time>2009-02-11T15:10:21Z</time>
      </trkpt>
      <trkpt lat="38.038136" lon="-6.620714">
        <ele>764.1</ele>
        <time>2009-02-11T15:10:41Z</time>
      </trkpt>
      <trkpt lat="38.038167" lon="-6.620430">
        <ele>764.7</ele>
        <time>2009-02-11T15:10:58Z</time>
      </trkpt>
      <trkpt lat="38.038133" lon="-6.620058">
        <ele>766.9</ele>
        <time>2009-02-11T15:11:21Z</time>
      </trkpt>
      <trkpt lat="38.038127" lon="-6.619517">
        <ele>770.5</ele>
        <time>2009-02-11T15:11:55Z</time>
      </trkpt>
      <trkpt lat="38.038025" lon="-6.619199">
        <ele>772.4</ele>
        <time>2009-02-11T15:12:16Z</time>
      </trkpt>
      <trkpt lat="38.037920" lon="-6.618937">
        <ele>774.2</ele>
        <time>2009-02-11T15:12:42Z</time>
      </trkpt>
      <trkpt lat="38.037859" lon="-6.618735">
        <ele>776.3</ele>
        <time>2009-02-11T15:12:56Z</time>
      </trkpt>
      <trkpt lat="38.037822" lon="-6.618477">
        <ele>778.2</ele>
        <time>2009-02-11T15:13:14Z</time>
      </trkpt>
      <trkpt lat="38.037853" lon="-6.618194">
        <ele>778.5</ele>
        <time>2009-02-11T15:13:33Z</time>
      </trkpt>
      <trkpt lat="38.037997" lon="-6.617916">
        <ele>779.7</ele>
        <time>2009-02-11T15:13:56Z</time>
      </trkpt>
      <trkpt lat="38.038120" lon="-6.617552">
        <ele>782.1</ele>
        <time>2009-02-11T15:14:18Z</time>
      </trkpt>
      <trkpt lat="38.038145" lon="-6.617468">
        <ele>782.4</ele>
        <time>2009-02-11T15:14:34Z</time>
      </trkpt>
      <trkpt lat="38.038171" lon="-6.617355">
        <ele>782.1</ele>
        <time>2009-02-11T15:14:46Z</time>
      </trkpt>
      <trkpt lat="38.038247" lon="-6.617103">
        <ele>784.3</ele>
        <time>2009-02-11T15:15:02Z</time>
      </trkpt>
      <trkpt lat="38.038275" lon="-6.616905">
        <ele>785.5</ele>
        <time>2009-02-11T15:15:18Z</time>
      </trkpt>
      <trkpt lat="38.038306" lon="-6.616650">
        <ele>786.1</ele>
        <time>2009-02-11T15:15:35Z</time>
      </trkpt>
      <trkpt lat="38.038336" lon="-6.616395">
        <ele>788.2</ele>
        <time>2009-02-11T15:15:51Z</time>
      </trkpt>
      <trkpt lat="38.038339" lon="-6.616310">
        <ele>788.5</ele>
        <time>2009-02-11T15:15:58Z</time>
      </trkpt>
      <trkpt lat="38.038260" lon="-6.615936">
        <ele>790.0</ele>
        <time>2009-02-11T15:16:24Z</time>
      </trkpt>
      <trkpt lat="38.038134" lon="-6.615645">
        <ele>791.9</ele>
        <time>2009-02-11T15:16:45Z</time>
      </trkpt>
      <trkpt lat="38.038090" lon="-6.615614">
        <ele>791.9</ele>
        <time>2009-02-11T15:17:00Z</time>
      </trkpt>
      <trkpt lat="38.038090" lon="-6.615614">
        <ele>791.6</ele>
        <time>2009-02-11T15:17:32Z</time>
      </trkpt>
      <trkpt lat="38.038090" lon="-6.615614">
        <ele>795.8</ele>
        <time>2009-02-11T15:18:52Z</time>
      </trkpt>
      <trkpt lat="38.037959" lon="-6.615465">
        <ele>795.8</ele>
        <time>2009-02-11T15:19:09Z</time>
      </trkpt>
      <trkpt lat="38.037650" lon="-6.615279">
        <ele>795.5</ele>
        <time>2009-02-11T15:19:32Z</time>
      </trkpt>
      <trkpt lat="38.037342" lon="-6.615036">
        <ele>795.5</ele>
        <time>2009-02-11T15:19:58Z</time>
      </trkpt>
      <trkpt lat="38.037123" lon="-6.614826">
        <ele>797.1</ele>
        <time>2009-02-11T15:20:21Z</time>
      </trkpt>
      <trkpt lat="38.037146" lon="-6.614826">
        <ele>795.8</ele>
        <time>2009-02-11T15:20:36Z</time>
      </trkpt>
      <trkpt lat="38.037080" lon="-6.614767">
        <ele>797.4</ele>
        <time>2009-02-11T15:20:50Z</time>
      </trkpt>
      <trkpt lat="38.036927" lon="-6.614616">
        <ele>797.7</ele>
        <time>2009-02-11T15:21:06Z</time>
      </trkpt>
      <trkpt lat="38.036928" lon="-6.614589">
        <ele>797.7</ele>
        <time>2009-02-11T15:21:15Z</time>
      </trkpt>
      <trkpt lat="38.036840" lon="-6.614528">
        <ele>799.8</ele>
        <time>2009-02-11T15:23:08Z</time>
      </trkpt>
      <trkpt lat="38.036643" lon="-6.614318">
        <ele>798.3</ele>
        <time>2009-02-11T15:23:27Z</time>
      </trkpt>
      <trkpt lat="38.036513" lon="-6.614169">
        <ele>797.7</ele>
        <time>2009-02-11T15:23:46Z</time>
      </trkpt>
      <trkpt lat="38.036449" lon="-6.614052">
        <ele>797.7</ele>
        <time>2009-02-11T15:24:00Z</time>
      </trkpt>
      <trkpt lat="38.036451" lon="-6.613995">
        <ele>797.4</ele>
        <time>2009-02-11T15:24:18Z</time>
      </trkpt>
      <trkpt lat="38.036475" lon="-6.613939">
        <ele>799.2</ele>
        <time>2009-02-11T15:26:02Z</time>
      </trkpt>
      <trkpt lat="38.036476" lon="-6.613912">
        <ele>799.2</ele>
        <time>2009-02-11T15:26:07Z</time>
      </trkpt>
      <trkpt lat="38.036502" lon="-6.613799">
        <ele>797.7</ele>
        <time>2009-02-11T15:26:25Z</time>
      </trkpt>
      <trkpt lat="38.036481" lon="-6.613741">
        <ele>798.3</ele>
        <time>2009-02-11T15:27:03Z</time>
      </trkpt>
      <trkpt lat="38.036440" lon="-6.613624">
        <ele>797.7</ele>
        <time>2009-02-11T15:27:19Z</time>
      </trkpt>
      <trkpt lat="38.036406" lon="-6.613252">
        <ele>795.5</ele>
        <time>2009-02-11T15:27:41Z</time>
      </trkpt>
      <trkpt lat="38.036372" lon="-6.612882">
        <ele>795.5</ele>
        <time>2009-02-11T15:28:04Z</time>
      </trkpt>
      <trkpt lat="38.036405" lon="-6.612542">
        <ele>794.3</ele>
        <time>2009-02-11T15:28:23Z</time>
      </trkpt>
      <trkpt lat="38.036410" lon="-6.612398">
        <ele>794.0</ele>
        <time>2009-02-11T15:28:39Z</time>
      </trkpt>
      <trkpt lat="38.036437" lon="-6.612258">
        <ele>794.0</ele>
        <time>2009-02-11T15:28:56Z</time>
      </trkpt>
      <trkpt lat="38.036561" lon="-6.611865">
        <ele>792.5</ele>
        <time>2009-02-11T15:29:21Z</time>
      </trkpt>
      <trkpt lat="38.036731" lon="-6.611476">
        <ele>791.9</ele>
        <time>2009-02-11T15:29:45Z</time>
      </trkpt>
      <trkpt lat="38.036807" lon="-6.611195">
        <ele>791.6</ele>
        <time>2009-02-11T15:29:59Z</time>
      </trkpt>
      <trkpt lat="38.036784" lon="-6.611222">
        <ele>791.9</ele>
        <time>2009-02-11T15:30:02Z</time>
      </trkpt>
      <trkpt lat="38.036861" lon="-6.610911">
        <ele>791.3</ele>
        <time>2009-02-11T15:30:20Z</time>
      </trkpt>
      <trkpt lat="38.036870" lon="-6.610599">
        <ele>790.0</ele>
        <time>2009-02-11T15:30:39Z</time>
      </trkpt>
      <trkpt lat="38.036871" lon="-6.610570">
        <ele>789.7</ele>
        <time>2009-02-11T15:30:55Z</time>
      </trkpt>
      <trkpt lat="38.036902" lon="-6.610317">
        <ele>791.3</ele>
        <time>2009-02-11T15:32:03Z</time>
      </trkpt>
      <trkpt lat="38.036929" lon="-6.610146">
        <ele>790.0</ele>
        <time>2009-02-11T15:32:18Z</time>
      </trkpt>
      <trkpt lat="38.036957" lon="-6.609977">
        <ele>789.7</ele>
        <time>2009-02-11T15:32:39Z</time>
      </trkpt>
      <trkpt lat="38.036961" lon="-6.609863">
        <ele>788.5</ele>
        <time>2009-02-11T15:32:55Z</time>
      </trkpt>
      <trkpt lat="38.037012" lon="-6.609667">
        <ele>789.7</ele>
        <time>2009-02-11T15:33:14Z</time>
      </trkpt>
      <trkpt lat="38.037059" lon="-6.609583">
        <ele>790.0</ele>
        <time>2009-02-11T15:33:30Z</time>
      </trkpt>
      <trkpt lat="38.037064" lon="-6.609442">
        <ele>791.6</ele>
        <time>2009-02-11T15:33:44Z</time>
      </trkpt>
      <trkpt lat="38.037116" lon="-6.609217">
        <ele>794.0</ele>
        <time>2009-02-11T15:34:05Z</time>
      </trkpt>
      <trkpt lat="38.037118" lon="-6.609131">
        <ele>795.5</ele>
        <time>2009-02-11T15:34:13Z</time>
      </trkpt>
      <trkpt lat="38.037147" lon="-6.608933">
        <ele>797.7</ele>
        <time>2009-02-11T15:34:32Z</time>
      </trkpt>
      <trkpt lat="38.037218" lon="-6.608823">
        <ele>799.2</ele>
        <time>2009-02-11T15:34:41Z</time>
      </trkpt>
      <trkpt lat="38.037357" lon="-6.608686">
        <ele>802.8</ele>
        <time>2009-02-11T15:35:00Z</time>
      </trkpt>
      <trkpt lat="38.037659" lon="-6.608388">
        <ele>803.8</ele>
        <time>2009-02-11T15:35:28Z</time>
      </trkpt>
      <trkpt lat="38.037823" lon="-6.608168">
        <ele>803.8</ele>
        <time>2009-02-11T15:35:46Z</time>
      </trkpt>
      <trkpt lat="38.038078" lon="-6.607953">
        <ele>803.8</ele>
        <time>2009-02-11T15:36:08Z</time>
      </trkpt>
      <trkpt lat="38.038241" lon="-6.607762">
        <ele>803.8</ele>
        <time>2009-02-11T15:36:24Z</time>
      </trkpt>
      <trkpt lat="38.038322" lon="-6.607339">
        <ele>799.8</ele>
        <time>2009-02-11T15:36:50Z</time>
      </trkpt>
      <trkpt lat="38.038332" lon="-6.606998">
        <ele>797.7</ele>
        <time>2009-02-11T15:37:14Z</time>
      </trkpt>
      <trkpt lat="38.038479" lon="-6.606635">
        <ele>797.4</ele>
        <time>2009-02-11T15:37:37Z</time>
      </trkpt>
      <trkpt lat="38.038687" lon="-6.606446">
        <ele>794.3</ele>
        <time>2009-02-11T15:37:56Z</time>
      </trkpt>
      <trkpt lat="38.038920" lon="-6.606200">
        <ele>791.3</ele>
        <time>2009-02-11T15:38:21Z</time>
      </trkpt>
      <trkpt lat="38.039129" lon="-6.605983">
        <ele>788.2</ele>
        <time>2009-02-11T15:38:43Z</time>
      </trkpt>
      <trkpt lat="38.039335" lon="-6.605879">
        <ele>785.8</ele>
        <time>2009-02-11T15:39:04Z</time>
      </trkpt>
      <trkpt lat="38.039427" lon="-6.605827">
        <ele>784.3</ele>
        <time>2009-02-11T15:39:20Z</time>
      </trkpt>
      <trkpt lat="38.039336" lon="-6.605851">
        <ele>790.0</ele>
        <time>2009-02-16T11:59:00Z</time>
      </trkpt>
      <trkpt lat="38.039358" lon="-6.605852">
        <ele>791.6</ele>
        <time>2009-02-16T12:00:00Z</time>
      </trkpt>
      <trkpt lat="38.039362" lon="-6.605738">
        <ele>790.0</ele>
        <time>2009-02-16T12:00:05Z</time>
      </trkpt>
      <trkpt lat="38.039143" lon="-6.605528">
        <ele>788.2</ele>
        <time>2009-02-16T12:00:22Z</time>
      </trkpt>
      <trkpt lat="38.038929" lon="-6.605176">
        <ele>790.0</ele>
        <time>2009-02-16T12:00:38Z</time>
      </trkpt>
      <trkpt lat="38.038822" lon="-6.604999">
        <ele>791.6</ele>
        <time>2009-02-16T12:00:48Z</time>
      </trkpt>
      <trkpt lat="38.038822" lon="-6.604970">
        <ele>792.5</ele>
        <time>2009-02-16T12:01:04Z</time>
      </trkpt>
      <trkpt lat="38.038778" lon="-6.604940">
        <ele>792.5</ele>
        <time>2009-02-16T12:01:13Z</time>
      </trkpt>
      <trkpt lat="38.038605" lon="-6.604733">
        <ele>794.3</ele>
        <time>2009-02-16T12:01:32Z</time>
      </trkpt>
      <trkpt lat="38.038408" lon="-6.604524">
        <ele>794.3</ele>
        <time>2009-02-16T12:01:48Z</time>
      </trkpt>
      <trkpt lat="38.038240" lon="-6.604145">
        <ele>798.3</ele>
        <time>2009-02-16T12:02:10Z</time>
      </trkpt>
      <trkpt lat="38.038091" lon="-6.603853">
        <ele>799.8</ele>
        <time>2009-02-16T12:02:31Z</time>
      </trkpt>
      <trkpt lat="38.038004" lon="-6.603763">
        <ele>799.2</ele>
        <time>2009-02-16T12:02:43Z</time>
      </trkpt>
      <trkpt lat="38.037878" lon="-6.603472">
        <ele>797.7</ele>
        <time>2009-02-16T12:03:02Z</time>
      </trkpt>
      <trkpt lat="38.037667" lon="-6.602977">
        <ele>797.1</ele>
        <time>2009-02-16T12:03:30Z</time>
      </trkpt>
      <trkpt lat="38.037567" lon="-6.602574">
        <ele>795.8</ele>
        <time>2009-02-16T12:03:53Z</time>
      </trkpt>
      <trkpt lat="38.037567" lon="-6.602574">
        <ele>795.5</ele>
        <time>2009-02-16T12:04:05Z</time>
      </trkpt>
      <trkpt lat="38.037568" lon="-6.602545">
        <ele>795.5</ele>
        <time>2009-02-16T12:04:09Z</time>
      </trkpt>
      <trkpt lat="38.037595" lon="-6.602404">
        <ele>795.8</ele>
        <time>2009-02-16T12:04:24Z</time>
      </trkpt>
      <trkpt lat="38.037720" lon="-6.602013">
        <ele>795.5</ele>
        <time>2009-02-16T12:04:49Z</time>
      </trkpt>
      <trkpt lat="38.037890" lon="-6.601593">
        <ele>794.3</ele>
        <time>2009-02-16T12:05:11Z</time>
      </trkpt>
      <trkpt lat="38.037993" lon="-6.601171">
        <ele>795.8</ele>
        <time>2009-02-16T12:05:34Z</time>
      </trkpt>
      <trkpt lat="38.038097" lon="-6.600721">
        <ele>799.2</ele>
        <time>2009-02-16T12:05:58Z</time>
      </trkpt>
      <trkpt lat="38.038150" lon="-6.600467">
        <ele>799.8</ele>
        <time>2009-02-16T12:06:12Z</time>
      </trkpt>
      <trkpt lat="38.038176" lon="-6.600354">
        <ele>800.1</ele>
        <time>2009-02-16T12:06:19Z</time>
      </trkpt>
      <trkpt lat="38.038254" lon="-6.600016">
        <ele>802.8</ele>
        <time>2009-02-16T12:06:38Z</time>
      </trkpt>
      <trkpt lat="38.038333" lon="-6.599621">
        <ele>803.8</ele>
        <time>2009-02-16T12:06:59Z</time>
      </trkpt>
      <trkpt lat="38.038456" lon="-6.599286">
        <ele>805.6</ele>
        <time>2009-02-16T12:07:18Z</time>
      </trkpt>
      <trkpt lat="38.038504" lon="-6.599203">
        <ele>805.6</ele>
        <time>2009-02-16T12:07:24Z</time>
      </trkpt>
      <trkpt lat="38.038651" lon="-6.598811">
        <ele>802.8</ele>
        <time>2009-02-16T12:07:43Z</time>
      </trkpt>
      <trkpt lat="38.038751" lon="-6.598475">
        <ele>799.2</ele>
        <time>2009-02-16T12:08:00Z</time>
      </trkpt>
      <trkpt lat="38.038693" lon="-6.598158">
        <ele>796.1</ele>
        <time>2009-02-16T12:08:33Z</time>
      </trkpt>
      <trkpt lat="38.038630" lon="-6.598041">
        <ele>795.5</ele>
        <time>2009-02-16T12:08:48Z</time>
      </trkpt>
      <trkpt lat="38.038564" lon="-6.597981">
        <ele>794.3</ele>
        <time>2009-02-16T12:08:58Z</time>
      </trkpt>
      <trkpt lat="38.038474" lon="-6.597977">
        <ele>794.0</ele>
        <time>2009-02-16T12:09:08Z</time>
      </trkpt>
      <trkpt lat="38.038162" lon="-6.597876">
        <ele>791.3</ele>
        <time>2009-02-16T12:09:27Z</time>
      </trkpt>
      <trkpt lat="38.037783" lon="-6.597744">
        <ele>785.8</ele>
        <time>2009-02-16T12:02:47Z</time>
      </trkpt>
      <trkpt lat="38.037751" lon="-6.597315">
        <ele>781.5</ele>
        <time>2009-02-16T12:09:59Z</time>
      </trkpt>
      <trkpt lat="38.037679" lon="-6.596713">
        <ele>780.0</ele>
        <time>2009-02-16T12:10:21Z</time>
      </trkpt>
      <trkpt lat="38.037666" lon="-6.596399">
        <ele>782.1</ele>
        <time>2009-02-16T12:10:37Z</time>
      </trkpt>
      <trkpt lat="38.037703" lon="-6.595946">
        <ele>784.3</ele>
        <time>2009-02-16T12:11:01Z</time>
      </trkpt>
      <trkpt lat="38.037853" lon="-6.595440">
        <ele>786.1</ele>
        <time>2009-02-16T12:11:26Z</time>
      </trkpt>
      <trkpt lat="38.038042" lon="-6.595165">
        <ele>786.1</ele>
        <time>2009-02-16T12:11:43Z</time>
      </trkpt>
      <trkpt lat="38.038302" lon="-6.594751">
        <ele>787.9</ele>
        <time>2009-02-16T12:12:09Z</time>
      </trkpt>
      <trkpt lat="38.038386" lon="-6.594242">
        <ele>788.2</ele>
        <time>2009-02-16T12:12:37Z</time>
      </trkpt>
      <trkpt lat="38.038355" lon="-6.593757">
        <ele>786.1</ele>
        <time>2009-02-16T12:12:58Z</time>
      </trkpt>
      <trkpt lat="38.038300" lon="-6.593355">
        <ele>786.1</ele>
        <time>2009-02-16T12:13:19Z</time>
      </trkpt>
      <trkpt lat="38.038244" lon="-6.592982">
        <ele>787.9</ele>
        <time>2009-02-16T12:13:35Z</time>
      </trkpt>
      <trkpt lat="38.038228" lon="-6.592754">
        <ele>788.5</ele>
        <time>2009-02-16T12:13:52Z</time>
      </trkpt>
      <trkpt lat="38.038170" lon="-6.592438">
        <ele>788.2</ele>
        <time>2009-02-16T12:15:40Z</time>
      </trkpt>
      <trkpt lat="38.038160" lon="-6.592039">
        <ele>787.9</ele>
        <time>2009-02-16T12:16:01Z</time>
      </trkpt>
      <trkpt lat="38.038171" lon="-6.591697">
        <ele>787.9</ele>
        <time>2009-02-16T12:16:18Z</time>
      </trkpt>
      <trkpt lat="38.038184" lon="-6.591271">
        <ele>786.1</ele>
        <time>2009-02-16T12:16:39Z</time>
      </trkpt>
      <trkpt lat="38.038175" lon="-6.590815">
        <ele>784.3</ele>
        <time>2009-02-16T12:17:04Z</time>
      </trkpt>
      <trkpt lat="38.038006" lon="-6.590436">
        <ele>782.1</ele>
        <time>2009-02-16T12:17:26Z</time>
      </trkpt>
      <trkpt lat="38.037811" lon="-6.590199">
        <ele>780.3</ele>
        <time>2009-02-16T12:17:44Z</time>
      </trkpt>
      <trkpt lat="38.037436" lon="-6.589953">
        <ele>777.8</ele>
        <time>2009-02-16T12:18:10Z</time>
      </trkpt>
      <trkpt lat="38.037099" lon="-6.589908">
        <ele>774.5</ele>
        <time>2009-02-16T12:18:33Z</time>
      </trkpt>
      <trkpt lat="38.036808" lon="-6.589865">
        <ele>772.7</ele>
        <time>2009-02-16T12:18:50Z</time>
      </trkpt>
      <trkpt lat="38.036521" lon="-6.589680">
        <ele>769.9</ele>
        <time>2009-02-16T12:19:11Z</time>
      </trkpt>
      <trkpt lat="38.036617" lon="-6.589486">
        <ele>766.9</ele>
        <time>2009-02-16T12:19:27Z</time>
      </trkpt>
      <trkpt lat="38.036819" lon="-6.589496">
        <ele>762.9</ele>
        <time>2009-02-16T12:19:44Z</time>
      </trkpt>
      <trkpt lat="38.037115" lon="-6.589396">
        <ele>759.0</ele>
        <time>2009-02-16T12:20:07Z</time>
      </trkpt>
      <trkpt lat="38.037137" lon="-6.589397">
        <ele>759.0</ele>
        <time>2009-02-16T12:20:19Z</time>
      </trkpt>
      <trkpt lat="38.037160" lon="-6.589398">
        <ele>760.8</ele>
        <time>2009-02-16T12:20:33Z</time>
      </trkpt>
      <trkpt lat="38.037388" lon="-6.589296">
        <ele>760.8</ele>
        <time>2009-02-16T12:20:52Z</time>
      </trkpt>
      <trkpt lat="38.037731" lon="-6.589142">
        <ele>757.4</ele>
        <time>2009-02-16T12:21:18Z</time>
      </trkpt>
      <trkpt lat="38.038048" lon="-6.589072">
        <ele>756.2</ele>
        <time>2009-02-16T12:21:39Z</time>
      </trkpt>
      <trkpt lat="38.038298" lon="-6.588998">
        <ele>755.0</ele>
        <time>2009-02-16T12:21:56Z</time>
      </trkpt>
      <trkpt lat="38.038390" lon="-6.588946">
        <ele>755.0</ele>
        <time>2009-02-16T12:22:09Z</time>
      </trkpt>
      <trkpt lat="38.038481" lon="-6.588893">
        <ele>756.2</ele>
        <time>2009-02-16T12:22:21Z</time>
      </trkpt>
      <trkpt lat="38.038689" lon="-6.588733">
        <ele>756.2</ele>
        <time>2009-02-16T12:22:42Z</time>
      </trkpt>
      <trkpt lat="38.038921" lon="-6.588516">
        <ele>757.4</ele>
        <time>2009-02-16T12:23:01Z</time>
      </trkpt>
      <trkpt lat="38.039067" lon="-6.588153">
        <ele>760.8</ele>
        <time>2009-02-16T12:23:24Z</time>
      </trkpt>
      <trkpt lat="38.039166" lon="-6.587873">
        <ele>762.3</ele>
        <time>2009-02-16T12:24:45Z</time>
      </trkpt>
      <trkpt lat="38.039107" lon="-6.587586">
        <ele>760.8</ele>
        <time>2009-02-16T12:25:03Z</time>
      </trkpt>
      <trkpt lat="38.039026" lon="-6.587297">
        <ele>759.0</ele>
        <time>2009-02-16T12:25:22Z</time>
      </trkpt>
      <trkpt lat="38.038881" lon="-6.586863">
        <ele>755.0</ele>
        <time>2009-02-16T12:25:48Z</time>
      </trkpt>
      <trkpt lat="38.038841" lon="-6.586718">
        <ele>753.2</ele>
        <time>2009-02-16T12:26:00Z</time>
      </trkpt>
      <trkpt lat="38.038802" lon="-6.586517">
        <ele>751.6</ele>
        <time>2009-02-16T07:38:34Z</time>
      </trkpt>
      <trkpt lat="38.038762" lon="-6.586344">
        <ele>751.0</ele>
        <time>2009-02-16T07:38:34Z</time>
      </trkpt>
      <trkpt lat="38.038704" lon="-6.586028">
        <ele>748.6</ele>
        <time>2009-02-16T07:38:34Z</time>
      </trkpt>
      <trkpt lat="38.038644" lon="-6.585798">
        <ele>747.1</ele>
        <time>2009-02-16T12:36:55Z</time>
      </trkpt>
      <trkpt lat="38.038502" lon="-6.585278">
        <ele>739.4</ele>
        <time>2009-02-16T12:16:33Z</time>
      </trkpt>
      <trkpt lat="38.038356" lon="-6.584901">
        <ele>735.5</ele>
        <time>2009-02-16T12:16:33Z</time>
      </trkpt>
      <trkpt lat="38.038107" lon="-6.584917">
        <ele>731.8</ele>
        <time>2009-02-16T12:37:49Z</time>
      </trkpt>
      <trkpt lat="38.037791" lon="-6.584959">
        <ele>729.7</ele>
        <time>2009-02-16T12:15:27Z</time>
      </trkpt>
      <trkpt lat="38.037543" lon="-6.584975">
        <ele>727.9</ele>
        <time>2009-02-16T12:15:27Z</time>
      </trkpt>
      <trkpt lat="38.037159" lon="-6.585013">
        <ele>725.4</ele>
        <time>2009-02-16T12:38:48Z</time>
      </trkpt>
      <trkpt lat="38.036824" lon="-6.584911">
        <ele>724.2</ele>
        <time>2009-02-16T12:39:11Z</time>
      </trkpt>
      <trkpt lat="38.036488" lon="-6.584867">
        <ele>724.2</ele>
        <time>2009-02-16T12:39:34Z</time>
      </trkpt>
      <trkpt lat="38.036193" lon="-6.584909">
        <ele>723.3</ele>
        <time>2009-02-16T12:39:55Z</time>
      </trkpt>
      <trkpt lat="38.035898" lon="-6.585009">
        <ele>719.6</ele>
        <time>2009-02-16T12:40:14Z</time>
      </trkpt>
      <trkpt lat="38.035645" lon="-6.585167">
        <ele>715.4</ele>
        <time>2009-02-16T12:40:35Z</time>
      </trkpt>
      <trkpt lat="38.035459" lon="-6.585357">
        <ele>712.3</ele>
        <time>2009-02-16T12:40:52Z</time>
      </trkpt>
      <trkpt lat="38.035258" lon="-6.585319">
        <ele>710.2</ele>
        <time>2009-02-16T12:41:04Z</time>
      </trkpt>
      <trkpt lat="38.034970" lon="-6.585134">
        <ele>709.6</ele>
        <time>2009-02-16T12:41:27Z</time>
      </trkpt>
      <trkpt lat="38.034701" lon="-6.585121">
        <ele>708.4</ele>
        <time>2009-02-16T12:41:44Z</time>
      </trkpt>
      <trkpt lat="38.034610" lon="-6.585145">
        <ele>706.8</ele>
        <time>2009-02-16T12:41:53Z</time>
      </trkpt>
      <trkpt lat="38.034471" lon="-6.585281">
        <ele>705.9</ele>
        <time>2009-02-16T11:24:20Z</time>
      </trkpt>
      <trkpt lat="38.034357" lon="-6.585304">
        <ele>704.4</ele>
        <time>2009-02-16T11:24:20Z</time>
      </trkpt>
      <trkpt lat="38.034271" lon="-6.585186">
        <ele>703.8</ele>
        <time>2009-02-16T12:42:52Z</time>
      </trkpt>
      <trkpt lat="38.034253" lon="-6.585042">
        <ele>702.3</ele>
        <time>2009-02-16T12:07:52Z</time>
      </trkpt>
      <trkpt lat="38.034189" lon="-6.584897">
        <ele>700.7</ele>
        <time>2009-02-16T12:07:52Z</time>
      </trkpt>
      <trkpt lat="38.033987" lon="-6.584887">
        <ele>698.0</ele>
        <time>2009-02-16T12:07:52Z</time>
      </trkpt>
      <trkpt lat="38.033785" lon="-6.584877">
        <ele>694.9</ele>
        <time>2009-02-16T12:43:38Z</time>
      </trkpt>
      <trkpt lat="38.033733" lon="-6.584885">
        <ele>691.0</ele>
        <time>2009-06-06T10:52:42Z</time>
      </trkpt>
      <trkpt lat="38.033583" lon="-6.585121">
        <ele>688.8</ele>
        <time>2009-06-06T10:53:08Z</time>
      </trkpt>
      <trkpt lat="38.033369" lon="-6.585164">
        <ele>690.7</ele>
        <time>2009-06-06T10:53:32Z</time>
      </trkpt>
      <trkpt lat="38.033132" lon="-6.585228">
        <ele>696.8</ele>
        <time>2009-06-06T10:54:02Z</time>
      </trkpt>
      <trkpt lat="38.032939" lon="-6.585335">
        <ele>695.2</ele>
        <time>2009-06-06T10:54:45Z</time>
      </trkpt>
      <trkpt lat="38.032725" lon="-6.585443">
        <ele>695.2</ele>
        <time>2009-06-06T10:55:03Z</time>
      </trkpt>
      <trkpt lat="38.032510" lon="-6.585636">
        <ele>698.6</ele>
        <time>2009-06-06T10:55:24Z</time>
      </trkpt>
      <trkpt lat="38.032253" lon="-6.585722">
        <ele>700.7</ele>
        <time>2009-06-06T10:55:45Z</time>
      </trkpt>
      <trkpt lat="38.031952" lon="-6.585850">
        <ele>698.6</ele>
        <time>2009-06-06T10:56:09Z</time>
      </trkpt>
      <trkpt lat="38.031609" lon="-6.586129">
        <ele>700.7</ele>
        <time>2009-06-06T10:56:37Z</time>
      </trkpt>
      <trkpt lat="38.031330" lon="-6.586215">
        <ele>700.7</ele>
        <time>2009-06-06T10:57:00Z</time>
      </trkpt>
      <trkpt lat="38.030879" lon="-6.586365">
        <ele>706.5</ele>
        <time>2009-06-06T10:58:23Z</time>
      </trkpt>
      <trkpt lat="38.030708" lon="-6.586387">
        <ele>708.4</ele>
        <time>2009-06-06T10:58:41Z</time>
      </trkpt>
      <trkpt lat="38.030643" lon="-6.586409">
        <ele>708.4</ele>
        <time>2009-06-06T10:59:00Z</time>
      </trkpt>
      <trkpt lat="38.030643" lon="-6.586409">
        <ele>708.4</ele>
        <time>2009-06-06T10:59:01Z</time>
      </trkpt>
      <trkpt lat="38.030386" lon="-6.586474">
        <ele>712.3</ele>
        <time>2009-06-06T10:59:21Z</time>
      </trkpt>
      <trkpt lat="38.030257" lon="-6.586517">
        <ele>712.3</ele>
        <time>2009-06-06T10:59:36Z</time>
      </trkpt>
      <trkpt lat="38.029978" lon="-6.586645">
        <ele>710.8</ele>
        <time>2009-06-06T10:59:59Z</time>
      </trkpt>
      <trkpt lat="38.029613" lon="-6.586710">
        <ele>709.9</ele>
        <time>2009-06-06T11:00:23Z</time>
      </trkpt>
      <trkpt lat="38.029227" lon="-6.586753">
        <ele>710.2</ele>
        <time>2009-06-06T11:00:51Z</time>
      </trkpt>
      <trkpt lat="38.028970" lon="-6.586774">
        <ele>712.3</ele>
        <time>2009-06-06T11:01:14Z</time>
      </trkpt>
      <trkpt lat="38.028648" lon="-6.586795">
        <ele>713.8</ele>
        <time>2009-06-06T11:01:38Z</time>
      </trkpt>
      <trkpt lat="38.028326" lon="-6.586860">
        <ele>716.3</ele>
        <time>2009-06-06T11:02:01Z</time>
      </trkpt>
      <trkpt lat="38.028111" lon="-6.586903">
        <ele>718.4</ele>
        <time>2009-06-06T11:02:20Z</time>
      </trkpt>
      <trkpt lat="38.027983" lon="-6.586924">
        <ele>722.1</ele>
        <time>2009-06-06T11:02:37Z</time>
      </trkpt>
      <trkpt lat="38.027704" lon="-6.586989">
        <ele>723.9</ele>
        <time>2009-06-06T11:02:58Z</time>
      </trkpt>
      <trkpt lat="38.027425" lon="-6.587117">
        <ele>723.9</ele>
        <time>2009-06-06T11:03:18Z</time>
      </trkpt>
      <trkpt lat="38.027167" lon="-6.587268">
        <ele>723.9</ele>
        <time>2009-06-06T11:03:37Z</time>
      </trkpt>
      <trkpt lat="38.026931" lon="-6.587439">
        <ele>723.3</ele>
        <time>2009-06-06T11:03:58Z</time>
      </trkpt>
      <trkpt lat="38.026631" lon="-6.587675">
        <ele>722.1</ele>
        <time>2009-06-06T11:04:24Z</time>
      </trkpt>
      <trkpt lat="38.026524" lon="-6.587740">
        <ele>722.4</ele>
        <time>2009-06-06T11:04:43Z</time>
      </trkpt>
      <trkpt lat="38.026266" lon="-6.587933">
        <ele>721.5</ele>
        <time>2009-06-06T11:05:07Z</time>
      </trkpt>
      <trkpt lat="38.026159" lon="-6.588019">
        <ele>720.2</ele>
        <time>2009-06-06T11:05:16Z</time>
      </trkpt>
      <trkpt lat="38.025944" lon="-6.588190">
        <ele>718.4</ele>
        <time>2009-06-06T11:05:35Z</time>
      </trkpt>
      <trkpt lat="38.025880" lon="-6.588190">
        <ele>718.1</ele>
        <time>2009-06-06T11:05:54Z</time>
      </trkpt>
      <trkpt lat="38.025837" lon="-6.588233">
        <ele>714.5</ele>
        <time>2009-06-06T11:06:10Z</time>
      </trkpt>
      <trkpt lat="38.025751" lon="-6.588298">
        <ele>713.8</ele>
        <time>2009-06-06T11:06:27Z</time>
      </trkpt>
      <trkpt lat="38.025687" lon="-6.588319">
        <ele>716.3</ele>
        <time>2009-06-06T11:07:37Z</time>
      </trkpt>
      <trkpt lat="38.025579" lon="-6.588298">
        <ele>716.6</ele>
        <time>2009-06-06T11:07:49Z</time>
      </trkpt>
      <trkpt lat="38.025451" lon="-6.588405">
        <ele>716.3</ele>
        <time>2009-06-06T11:08:08Z</time>
      </trkpt>
      <trkpt lat="38.025365" lon="-6.588491">
        <ele>715.7</ele>
        <time>2009-06-06T11:08:31Z</time>
      </trkpt>
      <trkpt lat="38.025258" lon="-6.588555">
        <ele>715.7</ele>
        <time>2009-06-06T11:08:48Z</time>
      </trkpt>
      <trkpt lat="38.024979" lon="-6.588727">
        <ele>712.3</ele>
        <time>2009-06-06T11:09:13Z</time>
      </trkpt>
      <trkpt lat="38.024957" lon="-6.588748">
        <ele>711.7</ele>
        <time>2009-06-06T11:09:20Z</time>
      </trkpt>
      <trkpt lat="38.024957" lon="-6.588748">
        <ele>709.9</ele>
        <time>2009-06-06T11:09:56Z</time>
      </trkpt>
      <trkpt lat="38.024807" lon="-6.588855">
        <ele>708.1</ele>
        <time>2009-06-06T11:10:17Z</time>
      </trkpt>
      <trkpt lat="38.024721" lon="-6.588898">
        <ele>708.4</ele>
        <time>2009-06-06T11:12:35Z</time>
      </trkpt>
      <trkpt lat="38.024614" lon="-6.588941">
        <ele>709.9</ele>
        <time>2009-06-06T11:12:49Z</time>
      </trkpt>
      <trkpt lat="38.024421" lon="-6.589091">
        <ele>705.0</ele>
        <time>2009-06-06T11:13:08Z</time>
      </trkpt>
      <trkpt lat="38.024292" lon="-6.589177">
        <ele>700.4</ele>
        <time>2009-06-06T11:13:24Z</time>
      </trkpt>
      <trkpt lat="38.024056" lon="-6.589349">
        <ele>689.5</ele>
        <time>2009-06-06T11:13:45Z</time>
      </trkpt>
      <trkpt lat="38.023841" lon="-6.589499">
        <ele>686.7</ele>
        <time>2009-06-06T11:14:06Z</time>
      </trkpt>
      <trkpt lat="38.023691" lon="-6.589585">
        <ele>686.4</ele>
        <time>2009-06-06T11:14:18Z</time>
      </trkpt>
      <trkpt lat="38.023455" lon="-6.589671">
        <ele>683.4</ele>
        <time>2009-06-06T11:14:37Z</time>
      </trkpt>
      <trkpt lat="38.023219" lon="-6.589692">
        <ele>683.1</ele>
        <time>2009-06-06T11:14:54Z</time>
      </trkpt>
      <trkpt lat="38.023004" lon="-6.589671">
        <ele>681.2</ele>
        <time>2009-06-06T11:15:12Z</time>
      </trkpt>
      <trkpt lat="38.022811" lon="-6.589671">
        <ele>681.2</ele>
        <time>2009-06-06T11:15:27Z</time>
      </trkpt>
      <trkpt lat="38.022768" lon="-6.589671">
        <ele>679.1</ele>
        <time>2009-06-06T11:15:34Z</time>
      </trkpt>
      <trkpt lat="38.022704" lon="-6.589649">
        <ele>677.6</ele>
        <time>2009-06-06T11:15:38Z</time>
      </trkpt>
      <trkpt lat="38.022597" lon="-6.589628">
        <ele>673.0</ele>
        <time>2009-06-06T11:15:59Z</time>
      </trkpt>
      <trkpt lat="38.022554" lon="-6.589671">
        <ele>671.8</ele>
        <time>2009-06-06T11:17:54Z</time>
      </trkpt>
      <trkpt lat="38.022575" lon="-6.589714">
        <ele>673.3</ele>
        <time>2009-06-06T11:18:11Z</time>
      </trkpt>
      <trkpt lat="38.022597" lon="-6.589757">
        <ele>673.0</ele>
        <time>2009-06-06T11:18:15Z</time>
      </trkpt>
      <trkpt lat="38.022575" lon="-6.589821">
        <ele>670.9</ele>
        <time>2009-06-06T11:18:20Z</time>
      </trkpt>
      <trkpt lat="38.022554" lon="-6.589864">
        <ele>670.9</ele>
        <time>2009-06-06T11:18:23Z</time>
      </trkpt>
      <trkpt lat="38.022361" lon="-6.590057">
        <ele>670.9</ele>
        <time>2009-06-06T11:18:44Z</time>
      </trkpt>
      <trkpt lat="38.022296" lon="-6.590100">
        <ele>671.5</ele>
        <time>2009-06-06T11:18:53Z</time>
      </trkpt>
      <trkpt lat="38.022253" lon="-6.590186">
        <ele>673.3</ele>
        <time>2009-06-06T11:19:07Z</time>
      </trkpt>
      <trkpt lat="38.022146" lon="-6.590207">
        <ele>675.4</ele>
        <time>2009-06-06T11:19:19Z</time>
      </trkpt>
      <trkpt lat="38.022103" lon="-6.590229">
        <ele>675.4</ele>
        <time>2009-06-06T11:19:23Z</time>
      </trkpt>
      <trkpt lat="38.021974" lon="-6.590250">
        <ele>677.3</ele>
        <time>2009-06-06T11:19:40Z</time>
      </trkpt>
      <trkpt lat="38.021996" lon="-6.590336">
        <ele>680.6</ele>
        <time>2009-06-06T11:20:03Z</time>
      </trkpt>
      <trkpt lat="38.022017" lon="-6.590379">
        <ele>681.2</ele>
        <time>2009-06-06T11:20:18Z</time>
      </trkpt>
      <trkpt lat="38.022017" lon="-6.590465">
        <ele>681.2</ele>
        <time>2009-06-06T11:20:53Z</time>
      </trkpt>
      <trkpt lat="38.021932" lon="-6.590551">
        <ele>684.6</ele>
        <time>2009-06-06T11:21:12Z</time>
      </trkpt>
      <trkpt lat="38.021846" lon="-6.590658">
        <ele>684.6</ele>
        <time>2009-06-06T11:21:45Z</time>
      </trkpt>
      <trkpt lat="38.021674" lon="-6.590830">
        <ele>684.9</ele>
        <time>2009-06-06T11:22:01Z</time>
      </trkpt>
      <trkpt lat="38.021545" lon="-6.591023">
        <ele>684.9</ele>
        <time>2009-06-06T11:22:55Z</time>
      </trkpt>
      <trkpt lat="38.021545" lon="-6.591023">
        <ele>685.2</ele>
        <time>2009-06-06T11:23:53Z</time>
      </trkpt>
      <trkpt lat="38.021438" lon="-6.591001">
        <ele>681.2</ele>
        <time>2009-06-06T11:24:24Z</time>
      </trkpt>
      <trkpt lat="38.021309" lon="-6.590915">
        <ele>679.1</ele>
        <time>2009-06-06T11:24:43Z</time>
      </trkpt>
      <trkpt lat="38.021202" lon="-6.590851">
        <ele>677.6</ele>
        <time>2009-06-06T11:24:57Z</time>
      </trkpt>
      <trkpt lat="38.021116" lon="-6.590851">
        <ele>677.3</ele>
        <time>2009-06-06T11:25:04Z</time>
      </trkpt>
      <trkpt lat="38.021009" lon="-6.590872">
        <ele>677.3</ele>
        <time>2009-06-06T11:25:09Z</time>
      </trkpt>
      <trkpt lat="38.020751" lon="-6.590787">
        <ele>675.7</ele>
        <time>2009-06-06T11:25:27Z</time>
      </trkpt>
      <trkpt lat="38.020558" lon="-6.590744">
        <ele>673.6</ele>
        <time>2009-06-06T11:25:46Z</time>
      </trkpt>
      <trkpt lat="38.020494" lon="-6.590744">
        <ele>669.6</ele>
        <time>2009-06-06T11:26:47Z</time>
      </trkpt>
      <trkpt lat="38.020193" lon="-6.590744">
        <ele>667.5</ele>
        <time>2009-06-06T11:27:09Z</time>
      </trkpt>
      <trkpt lat="38.019872" lon="-6.590851">
        <ele>665.1</ele>
        <time>2009-06-06T11:27:37Z</time>
      </trkpt>
      <trkpt lat="38.019593" lon="-6.590830">
        <ele>663.5</ele>
        <time>2009-06-06T11:27:55Z</time>
      </trkpt>
      <trkpt lat="38.019271" lon="-6.590765">
        <ele>665.1</ele>
        <time>2009-06-06T11:28:21Z</time>
      </trkpt>
      <trkpt lat="38.018927" lon="-6.590894">
        <ele>665.7</ele>
        <time>2009-06-06T11:28:45Z</time>
      </trkpt>
      <trkpt lat="38.018713" lon="-6.590915">
        <ele>665.7</ele>
        <time>2009-06-06T11:29:04Z</time>
      </trkpt>
      <trkpt lat="38.018649" lon="-6.590937">
        <ele>665.7</ele>
        <time>2009-06-06T11:29:13Z</time>
      </trkpt>
      <trkpt lat="38.018541" lon="-6.590958">
        <ele>665.7</ele>
        <time>2009-06-06T11:30:11Z</time>
      </trkpt>
      <trkpt lat="38.018477" lon="-6.590980">
        <ele>668.7</ele>
        <time>2009-06-06T11:31:57Z</time>
      </trkpt>
      <trkpt lat="38.018348" lon="-6.590937">
        <ele>669.0</ele>
        <time>2009-06-06T11:32:51Z</time>
      </trkpt>
      <trkpt lat="38.018198" lon="-6.590894">
        <ele>667.5</ele>
        <time>2009-06-06T11:33:05Z</time>
      </trkpt>
      <trkpt lat="38.017898" lon="-6.590851">
        <ele>666.0</ele>
        <time>2009-06-06T11:33:27Z</time>
      </trkpt>
      <trkpt lat="38.017533" lon="-6.590851">
        <ele>665.1</ele>
        <time>2009-06-06T11:33:55Z</time>
      </trkpt>
      <trkpt lat="38.017533" lon="-6.590851">
        <ele>664.2</ele>
        <time>2009-06-06T11:33:57Z</time>
      </trkpt>
      <trkpt lat="38.017318" lon="-6.590894">
        <ele>663.5</ele>
        <time>2009-06-06T11:34:14Z</time>
      </trkpt>
      <trkpt lat="38.017168" lon="-6.590894">
        <ele>663.5</ele>
        <time>2009-06-06T11:34:30Z</time>
      </trkpt>
      <trkpt lat="38.016868" lon="-6.590937">
        <ele>662.9</ele>
        <time>2009-06-06T11:34:53Z</time>
      </trkpt>
      <trkpt lat="38.016632" lon="-6.590958">
        <ele>663.5</ele>
        <time>2009-06-06T11:35:57Z</time>
      </trkpt>
      <trkpt lat="38.016374" lon="-6.591001">
        <ele>663.2</ele>
        <time>2009-06-06T11:36:53Z</time>
      </trkpt>
      <trkpt lat="38.016245" lon="-6.591001">
        <ele>665.1</ele>
        <time>2009-06-06T11:37:57Z</time>
      </trkpt>
      <trkpt lat="38.016159" lon="-6.590958">
        <ele>661.7</ele>
        <time>2009-06-06T11:46:07Z</time>
      </trkpt>
      <trkpt lat="38.016138" lon="-6.590830">
        <ele>659.9</ele>
        <time>2009-06-06T11:46:24Z</time>
      </trkpt>
      <trkpt lat="38.016138" lon="-6.590508">
        <ele>657.5</ele>
        <time>2009-06-06T11:46:45Z</time>
      </trkpt>
      <trkpt lat="38.016117" lon="-6.590079">
        <ele>657.8</ele>
        <time>2009-06-06T11:47:11Z</time>
      </trkpt>
      <trkpt lat="38.016052" lon="-6.589993">
        <ele>659.6</ele>
        <time>2009-06-06T11:47:36Z</time>
      </trkpt>
      <trkpt lat="38.016009" lon="-6.589971">
        <ele>657.8</ele>
        <time>2009-06-06T11:48:30Z</time>
      </trkpt>
      <trkpt lat="38.015816" lon="-6.589842">
        <ele>660.2</ele>
        <time>2009-06-06T11:48:52Z</time>
      </trkpt>
      <trkpt lat="38.015666" lon="-6.589714">
        <ele>661.7</ele>
        <time>2009-06-06T11:49:13Z</time>
      </trkpt>
      <trkpt lat="38.015516" lon="-6.589521">
        <ele>660.2</ele>
        <time>2009-06-06T11:49:31Z</time>
      </trkpt>
      <trkpt lat="38.015408" lon="-6.589413">
        <ele>661.7</ele>
        <time>2009-06-06T11:49:43Z</time>
      </trkpt>
      <trkpt lat="38.015151" lon="-6.589156">
        <ele>659.0</ele>
        <time>2009-06-06T11:50:14Z</time>
      </trkpt>
      <trkpt lat="38.015022" lon="-6.589027">
        <ele>657.5</ele>
        <time>2009-06-06T11:50:39Z</time>
      </trkpt>
      <trkpt lat="38.014893" lon="-6.588791">
        <ele>655.9</ele>
        <time>2009-06-06T11:51:05Z</time>
      </trkpt>
      <trkpt lat="38.014700" lon="-6.588512">
        <ele>657.1</ele>
        <time>2009-06-06T11:51:33Z</time>
      </trkpt>
      <trkpt lat="38.014464" lon="-6.588147">
        <ele>654.1</ele>
        <time>2009-06-06T11:51:59Z</time>
      </trkpt>
      <trkpt lat="38.014400" lon="-6.588040">
        <ele>652.0</ele>
        <time>2009-06-06T11:52:16Z</time>
      </trkpt>
      <trkpt lat="38.014228" lon="-6.587761">
        <ele>651.7</ele>
        <time>2009-06-06T11:54:46Z</time>
      </trkpt>
      <trkpt lat="38.014207" lon="-6.587718">
        <ele>652.0</ele>
        <time>2009-06-06T11:55:07Z</time>
      </trkpt>
      <trkpt lat="38.014121" lon="-6.587504">
        <ele>650.1</ele>
        <time>2009-06-06T11:55:24Z</time>
      </trkpt>
      <trkpt lat="38.014057" lon="-6.587353">
        <ele>648.3</ele>
        <time>2009-06-06T11:56:20Z</time>
      </trkpt>
      <trkpt lat="38.013949" lon="-6.587225">
        <ele>648.0</ele>
        <time>2009-06-06T11:57:07Z</time>
      </trkpt>
      <trkpt lat="38.013799" lon="-6.587053">
        <ele>644.3</ele>
        <time>2009-06-06T11:57:24Z</time>
      </trkpt>
      <trkpt lat="38.013627" lon="-6.586860">
        <ele>642.5</ele>
        <time>2009-06-06T11:57:44Z</time>
      </trkpt>
      <trkpt lat="38.013349" lon="-6.586753">
        <ele>644.0</ele>
        <time>2009-06-06T11:58:06Z</time>
      </trkpt>
      <trkpt lat="38.013091" lon="-6.586838">
        <ele>638.6</ele>
        <time>2009-06-06T11:58:31Z</time>
      </trkpt>
      <trkpt lat="38.012941" lon="-6.586946">
        <ele>638.3</ele>
        <time>2009-06-06T12:00:50Z</time>
      </trkpt>
      <trkpt lat="38.012999" lon="-6.587053">
        <ele>644.3</ele>
        <time>2009-02-16T13:38:40Z</time>
      </trkpt>
      <trkpt lat="38.012792" lon="-6.587185">
        <ele>641.6</ele>
        <time>2009-02-16T13:38:58Z</time>
      </trkpt>
      <trkpt lat="38.012567" lon="-6.587202">
        <ele>636.7</ele>
        <time>2009-02-16T13:39:15Z</time>
      </trkpt>
      <trkpt lat="38.012499" lon="-6.587199">
        <ele>636.4</ele>
        <time>2009-02-16T13:39:27Z</time>
      </trkpt>
      <trkpt lat="38.012340" lon="-6.587220">
        <ele>634.9</ele>
        <time>2009-02-16T13:39:43Z</time>
      </trkpt>
      <trkpt lat="38.012022" lon="-6.587318">
        <ele>630.9</ele>
        <time>2009-02-16T13:40:00Z</time>
      </trkpt>
      <trkpt lat="38.011686" lon="-6.587273">
        <ele>628.8</ele>
        <time>2009-02-16T13:40:23Z</time>
      </trkpt>
      <trkpt lat="38.011370" lon="-6.587315">
        <ele>623.3</ele>
        <time>2009-02-16T13:40:42Z</time>
      </trkpt>
      <trkpt lat="38.011370" lon="-6.587315">
        <ele>623.3</ele>
        <time>2009-02-16T13:40:44Z</time>
      </trkpt>
      <trkpt lat="38.011300" lon="-6.587340">
        <ele>623.0</ele>
        <time>2009-02-16T13:40:48Z</time>
      </trkpt>
      <trkpt lat="38.011031" lon="-6.587355">
        <ele>625.1</ele>
        <time>2009-02-16T13:42:01Z</time>
      </trkpt>
      <trkpt lat="38.010964" lon="-6.587324">
        <ele>624.2</ele>
        <time>2009-02-16T13:42:04Z</time>
      </trkpt>
      <trkpt lat="38.010785" lon="-6.587258">
        <ele>618.7</ele>
        <time>2009-02-16T13:42:27Z</time>
      </trkpt>
      <trkpt lat="38.010629" lon="-6.587250">
        <ele>612.3</ele>
        <time>2009-02-16T13:44:11Z</time>
      </trkpt>
      <trkpt lat="38.010584" lon="-6.587191">
        <ele>607.8</ele>
        <time>2009-02-16T13:44:41Z</time>
      </trkpt>
      <trkpt lat="38.010518" lon="-6.587188">
        <ele>607.2</ele>
        <time>2009-02-16T13:45:14Z</time>
      </trkpt>
      <trkpt lat="38.010380" lon="-6.587238">
        <ele>607.8</ele>
        <time>2009-02-16T13:46:10Z</time>
      </trkpt>
      <trkpt lat="38.010221" lon="-6.587316">
        <ele>607.2</ele>
        <time>2009-02-16T13:46:25Z</time>
      </trkpt>
      <trkpt lat="38.009950" lon="-6.587303">
        <ele>607.2</ele>
        <time>2009-02-16T13:46:46Z</time>
      </trkpt>
      <trkpt lat="38.009659" lon="-6.587260">
        <ele>606.6</ele>
        <time>2009-02-16T13:47:06Z</time>
      </trkpt>
      <trkpt lat="38.009368" lon="-6.587189">
        <ele>607.5</ele>
        <time>2009-02-16T13:47:26Z</time>
      </trkpt>
      <trkpt lat="38.009168" lon="-6.587122">
        <ele>613.0</ele>
        <time>2009-02-16T13:47:49Z</time>
      </trkpt>
      <trkpt lat="38.009168" lon="-6.587122">
        <ele>611.1</ele>
        <time>2009-02-16T13:48:05Z</time>
      </trkpt>
      <trkpt lat="38.009145" lon="-6.587121">
        <ele>609.3</ele>
        <time>2009-02-16T13:48:38Z</time>
      </trkpt>
      <trkpt lat="38.009099" lon="-6.587204">
        <ele>611.1</ele>
        <time>2009-02-16T13:50:26Z</time>
      </trkpt>
      <trkpt lat="38.009114" lon="-6.587404">
        <ele>610.8</ele>
        <time>2009-02-16T13:50:45Z</time>
      </trkpt>
      <trkpt lat="38.009110" lon="-6.587518">
        <ele>611.1</ele>
        <time>2009-02-16T13:51:51Z</time>
      </trkpt>
      <trkpt lat="38.009131" lon="-6.587604">
        <ele>617.5</ele>
        <time>2009-02-16T12:22:15Z</time>
      </trkpt>
      <trkpt lat="38.009121" lon="-6.587917">
        <ele>617.5</ele>
        <time>2009-02-16T13:52:19Z</time>
      </trkpt>
    </trkseg>
  </trk>
</gpx>
